[[[{"header":{"parameterUnit":"kt","parameterCategory":2,"dx":1,"dy":1,"la1":29.285339999999998,"la2":30.599998999999997,"lo1":-89.70041500000002,"lo2":-87.6738589999976,"nx":112,"ny":82,"refTime":"2022-10-21T12:00:00:Z","depth":0,"parameterNumber":1,"parameterNumberName":"U-component_of_WINDS"},"data":[-6.271,-6.4275,0.0,-5.1697,-5.0374,0.0,-3.6522,0.0,0.0,0.0,0.0,0.0,0.0,0.0,0.0,0.0,0.0,0.0,0.0,0.0,0.0,0.0,0.0,0.0,0.0,0.0,0.0,0.0,0.0,0.0,0.0,0.0,-5.6286,-5.5508,-5.7188,-5.691,-5.4549,-5.6167,-5.6321,-5.4988,-5.4988,-5.3845,-5.1737,-5.148,-5.0752,-4.9585,-4.9043,-4.8825,-4.8825,-4.8661,-4.8606,-4.8606,-4.8606,-4.7612,-4.6117,-4.6002,-4.4268,-4.1881,-4.0818,-3.9171,-3.7428,-3.7428,-3.5926,-3.4159,-3.4512,-3.4051,-3.3202,-3.2358,-3.1234,-2.9927,-2.8535,-2.7699,-2.7107,-2.6597,-2.6282,-2.6082,-2.5834,-2.5495,-2.5139,-2.5001,-2.3247,-2.1664,-2.1119,-1.8955,-1.7506,-1.8077,-1.7237,-1.6574,-1.6559,-1.6749,-1.6924,-1.6891,-1.6918,-1.7214,-1.7972,-1.8772,-1.8542,-1.6974,-1.69,-1.5797,-1.3441,-1.3366,-1.299,-1.2245,-1.2245,-1.2245,-1.2245,-1.1944,-1.1027,-0.9727,-0.9425,-0.8896,0.0,0.0,-5.9668,-4.6158,0.0,0.0,0.0,0.0,0.0,0.0,0.0,0.0,0.0,0.0,0.0,0.0,0.0,0.0,0.0,0.0,0.0,0.0,0.0,0.0,0.0,0.0,0.0,0.0,0.0,0.0,0.0,-5.8013,-5.7523,-5.7057,-5.8116,-5.7643,-5.539,-5.6502,-5.6622,-5.5668,-5.5606,-5.4641,-5.2921,-5.2291,-5.1452,-5.0464,-4.9558,-4.9124,-4.8989,-4.877,-4.8661,-4.8606,-4.8606,-4.7861,-4.6851,-4.6851,-4.5773,-4.3974,-4.2102,-3.9711,-3.7394,-3.6825,-3.5447,-3.4011,-3.3747,-3.364,-3.3456,-3.2574,-3.1643,-3.0578,-2.9034,-2.8002,-2.7067,-2.6151,-2.565,-2.5387,-2.5217,-2.4814,-2.4613,-2.5077,-2.2988,-2.1387,-2.1998,-1.9825,-1.814,-1.8681,-1.7788,-1.694,-1.6541,-1.6616,-1.6766,-1.6872,-1.6992,-1.7371,-1.8046,-1.8699,-1.8615,-1.7564,-1.7491,-1.6465,-1.4115,-1.3965,-1.3441,-1.2245,-1.2245,-1.2245,-1.2245,-1.2245,-1.1479,-1.011,-0.9878,-0.9274,0.0,0.0,0.0,-3.9871,0.0,0.0,0.0,0.0,-3.1658,0.0,0.0,0.0,0.0,0.0,0.0,0.0,0.0,0.0,0.0,0.0,0.0,0.0,0.0,0.0,0.0,0.0,0.0,0.0,0.0,0.0,-6.0829,-5.9714,-5.8658,-5.8761,-5.85,-5.7485,-5.5652,-5.6781,-5.7216,-5.6964,-5.6697,-5.6003,-5.4971,-5.3699,-5.2593,-5.148,-5.0201,-4.9422,-4.9043,-4.8989,-4.8825,-4.8606,-4.8606,-4.7917,-4.6882,-4.6882,-4.6907,-4.6485,-4.3891,-4.1153,-3.8467,-3.6589,-3.5508,-3.4796,-3.3917,-3.364,-3.364,-3.364,-3.2705,-3.1374,-2.9992,-2.8896,-2.7596,-2.5452,-2.5167,-2.5294,-2.4628,-2.4474,-2.4474,-2.4474,-2.2754,-2.1641,-2.2897,-2.1389,-1.9715,-1.8837,-1.815,-1.7518,-1.6971,-1.6526,-1.6468,-1.6872,-1.7233,-1.7686,-1.8056,-1.8414,-1.8331,-1.7574,-1.7564,-1.6465,-1.4182,-1.4032,-1.3515,-1.2245,-1.2245,-1.2245,-1.2245,-1.2245,-1.1787,-1.0882,-1.011,-0.935,-4.5333,0.0,0.0,0.0,0.0,0.0,0.0,0.0,0.0,0.0,0.0,0.0,0.0,0.0,0.0,0.0,0.0,0.0,0.0,0.0,0.0,0.0,0.0,0.0,0.0,0.0,0.0,0.0,0.0,0.0,-6.1536,-6.1127,-6.0476,-6.011,-5.9948,-5.9012,-5.7133,-5.7453,-5.7391,-5.6964,-5.6875,-5.6185,-5.4988,-5.4658,-5.3893,-5.2843,-5.1532,-5.0909,-5.07,-4.9504,-4.8934,-4.8879,-4.8661,-4.8386,-4.8083,-4.8083,-4.7582,-4.6497,-4.4114,-4.2163,-4.0236,-3.7019,-3.5199,-3.4211,-3.3758,-3.364,-3.364,-3.364,-3.2705,-3.1521,-3.0965,-2.9137,-2.7229,-2.638,-2.5479,-2.4706,-2.452,-2.4474,-2.4474,-2.4474,-2.3147,-2.2146,-2.2515,-2.1306,-2.0134,-1.974,-1.8713,-1.7565,-1.6469,-1.6237,-1.6368,-1.6845,-1.7233,-1.7686,-1.8056,-1.8414,-1.8699,-1.8762,-1.8762,-1.7722,-1.5351,-1.5277,-1.4316,-1.2321,-1.2245,-1.2245,-1.2245,-1.2245,-1.1787,-1.0882,-1.065,-1.0116,0.0,0.0,0.0,0.0,0.0,0.0,-3.2404,0.0,-2.952,0.0,0.0,0.0,0.0,0.0,0.0,0.0,0.0,0.0,0.0,0.0,0.0,0.0,0.0,0.0,0.0,0.0,0.0,0.0,0.0,-5.5287,-6.294,-6.2814,-6.2128,-6.133,-6.0809,-5.9846,-5.84,-5.7954,-5.7522,-5.7128,-5.7008,-5.6532,-5.5652,-5.5205,-5.4658,-5.4038,-5.2843,-5.2016,-5.1429,-5.0437,-4.9611,-4.8989,-4.8825,-4.877,-4.877,-4.8661,-4.8165,-4.7178,-4.4336,-4.2639,-4.1189,-3.7804,-3.5744,-3.4492,-3.3943,-3.3673,-3.364,-3.364,-3.3108,-3.2334,-3.1632,-2.9841,-2.7975,-2.7071,-2.5717,-2.4593,-2.4533,-2.4474,-2.4474,-2.4474,-2.3303,-2.2564,-2.3122,-2.2624,-2.1868,-2.1076,-1.9801,-1.856,-1.7577,-1.6685,-1.6457,-1.7277,-1.7603,-1.7908,-1.8267,-1.8709,-1.8993,-1.9213,-1.9213,-1.8615,-1.7269,-1.6308,-1.4905,-1.299,-1.2471,-1.2245,-1.2245,-1.2245,-1.1944,-1.141,-1.1033,-1.065,0.0,0.0,0.0,0.0,-3.8184,0.0,0.0,0.0,0.0,0.0,0.0,0.0,0.0,0.0,0.0,0.0,0.0,0.0,0.0,0.0,0.0,0.0,0.0,0.0,0.0,0.0,0.0,-6.4025,-5.8424,-5.7705,-6.4616,-6.4408,-6.3472,-6.2244,-6.1291,-6.0285,-5.9323,-5.839,-5.7696,-5.7335,-5.7128,-5.6831,-5.6518,-5.5606,-5.5205,-5.5158,-5.4086,-5.2992,-5.1863,-5.1635,-5.0647,-4.9234,-4.9097,-4.9043,-4.8934,-4.8715,-4.8606,-4.8092,-4.4727,-4.2916,-4.1525,-3.8741,-3.668,-3.5184,-3.4376,-3.3922,-3.3695,-3.364,-3.364,-3.3347,-3.2224,-3.0705,-2.9198,-2.7802,-2.6145,-2.4832,-2.4593,-2.4533,-2.4533,-2.4474,-2.3484,-2.3001,-2.4294,-2.4474,-2.3979,-2.2564,-2.1138,-2.0001,-1.9329,-1.7633,-1.6877,-1.7958,-1.812,-1.8267,-1.8635,-1.8993,-1.9213,-1.9213,-1.9213,-1.9213,-1.9213,-1.7122,-1.5351,-1.404,-1.299,-1.2396,-1.2245,-1.2245,-1.2245,-1.2245,-1.141,-1.0958,0.0,0.0,0.0,0.0,0.0,-3.3896,0.0,0.0,0.0,0.0,0.0,0.0,0.0,0.0,0.0,0.0,0.0,0.0,0.0,0.0,0.0,0.0,0.0,0.0,0.0,0.0,-6.3137,-6.5563,-6.4429,-6.4074,-6.5198,-6.4947,-6.3963,-6.2278,-6.1928,-6.0954,-5.9323,-5.908,-5.8442,-5.7335,-5.7291,-5.6995,-5.6563,-5.6352,-5.6261,-5.6216,-5.5158,-5.4564,-5.4182,-5.2291,-5.1325,-5.0909,-4.988,-4.9233,-4.8934,-4.8715,-4.8606,-4.8228,-4.5773,-4.3627,-4.1565,-3.9236,-3.6905,-3.4893,-3.4696,-3.4331,-3.3922,-3.3695,-3.364,-3.3586,-3.3347,-3.1414,-2.9482,-2.9198,-2.7082,-2.5129,-2.4891,-2.4832,-2.4713,-2.4533,-2.4294,-2.4174,-2.4474,-2.4474,-2.3979,-2.2564,-2.1929,-2.0992,-1.9452,-1.8699,-1.824,-1.8105,-1.8341,-1.8552,-1.8625,-1.8993,-1.9213,-1.9213,-1.9213,-1.9213,-1.9213,-1.7869,-1.6168,-1.4032,-1.374,-1.3215,-1.2245,-1.2245,-1.2245,-1.2245,-1.2095,-1.1567,0.0,0.0,0.0,-3.3647,0.0,0.0,0.0,0.0,0.0,0.0,0.0,0.0,0.0,0.0,0.0,0.0,0.0,0.0,0.0,0.0,0.0,0.0,0.0,0.0,0.0,0.0,-6.4591,-6.5706,-6.6112,-6.5987,-6.5351,-6.5205,-6.4481,-6.302,-6.2415,-6.1646,-6.0654,-5.9761,-5.8876,-5.8147,-5.7609,-5.7128,-5.6742,-5.6607,-5.6563,-5.6548,-5.6034,-5.5514,-5.4847,-5.3189,-5.2493,-5.2342,-5.1041,-5.0041,-4.926,-4.8879,-4.8715,-4.8283,-4.6073,-4.387,-4.1594,-3.9376,-3.6984,-3.4971,-3.4865,-3.4492,-3.4138,-3.3749,-3.364,-3.364,-3.364,-3.2134,-3.0424,-2.9709,-2.7935,-2.6204,-2.5292,-2.507,-2.5011,-2.4713,-2.4713,-2.4653,-2.4533,-2.4474,-2.4234,-2.3559,-2.2866,-2.2016,-2.0866,-1.9969,-1.9297,-1.8908,-1.8869,-1.889,-1.8972,-1.914,-1.9213,-1.9213,-1.9213,-1.9213,-1.9213,-1.8689,-1.7574,-1.5806,-1.4622,-1.374,-1.314,-1.314,-1.284,-1.2245,-1.2245,-1.2019,0.0,0.0,0.0,0.0,0.0,0.0,0.0,-3.4877,0.0,0.0,0.0,0.0,0.0,0.0,0.0,0.0,0.0,0.0,0.0,0.0,0.0,0.0,0.0,0.0,0.0,-6.4114,-6.4585,-6.5601,-6.6234,-6.621,-6.5423,-6.5369,-6.4869,-6.3803,-6.2921,-6.2312,-6.1997,-6.0503,-5.9451,-5.8885,-5.8019,-5.7404,-5.7008,-5.6742,-5.6652,-5.6652,-5.6563,-5.6079,-5.5205,-5.4211,-5.3602,-5.3337,-5.2016,-5.0755,-4.9584,-4.9179,-4.8825,-4.8393,-4.6265,-4.4032,-4.1648,-3.9643,-3.725,-3.5153,-3.4918,-3.4705,-3.4374,-3.3911,-3.3695,-3.364,-3.364,-3.2629,-3.1374,-3.0255,-2.9008,-2.7628,-2.6086,-2.569,-2.5588,-2.507,-2.4951,-2.4832,-2.4549,-2.4474,-2.4474,-2.4474,-2.3799,-2.3112,-2.2525,-2.1308,-2.0392,-2.0025,-1.9529,-1.917,-1.9337,-1.9297,-1.9213,-1.9213,-1.9213,-1.9213,-1.9213,-1.9213,-1.8836,-1.7869,-1.5731,-1.4481,-1.3965,-1.4257,-1.3583,-1.2245,-1.2245,-1.2245,0.0,0.0,0.0,0.0,0.0,0.0,-4.7034,-4.7072,0.0,0.0,0.0,0.0,0.0,0.0,0.0,0.0,0.0,0.0,0.0,0.0,0.0,0.0,0.0,0.0,0.0,-6.5127,-6.5263,-6.6271,-6.666,-6.6497,-6.5715,-6.5663,-6.5095,-6.3768,-6.3413,-6.2854,-6.1997,-6.1608,-6.0546,-5.8885,-5.8793,-5.82,-5.7291,-5.7008,-5.692,-5.692,-5.6652,-5.6518,-5.6337,-5.5252,-5.4278,-5.3337,-5.2016,-5.0857,-4.9853,-4.9206,-4.8989,-4.872,-4.718,-4.4623,-4.1756,-4.049,-3.786,-3.5153,-3.5153,-3.4971,-3.4705,-3.4406,-3.3998,-3.364,-3.364,-3.2629,-3.1632,-3.1485,-3.0537,-2.9255,-2.7686,-2.7338,-2.6931,-2.5529,-2.5248,-2.507,-2.4593,-2.4474,-2.4474,-2.4474,-2.4593,-2.4328,-2.347,-2.2721,-2.2007,-2.127,-2.0209,-1.9606,-1.959,-1.9408,-1.9213,-1.9213,-1.9213,-1.9213,-1.9213,-1.9213,-1.9213,-1.9056,-1.7795,-1.6094,-1.3965,-1.5054,-1.4383,-1.2245,-1.2245,-1.2245,0.0,0.0,0.0,0.0,0.0,0.0,0.0,0.0,0.0,0.0,0.0,0.0,0.0,0.0,0.0,0.0,0.0,0.0,0.0,0.0,0.0,0.0,0.0,0.0,0.0,0.0,0.0,-6.666,-6.6966,-6.6966,-6.6637,-6.6037,-6.5142,-6.389,-6.3541,-6.3218,-6.2821,-6.2034,-6.1028,-5.9807,-5.9169,-5.8452,-5.7554,-5.7172,-5.6964,-5.6964,-5.6697,-5.6563,-5.6518,-5.6125,-5.5328,-5.4278,-5.3748,-5.2442,-5.0805,-5.0542,-4.9366,-4.7845,-4.7262,-4.4768,-4.1808,-4.1305,-3.8877,-3.6182,-3.6182,-3.5553,-3.4759,-3.4652,-3.4245,-3.3836,-3.3695,-3.3217,-3.2629,-3.1873,-3.1319,-3.0424,-2.8396,-2.7935,-2.7489,-2.59,-2.5426,-2.5129,-2.4772,-2.4593,-2.4549,-2.4713,-2.4951,-2.4866,-2.4085,-2.3931,-2.3504,-2.2525,-2.1325,-2.0565,-2.044,-1.9726,-1.9213,-1.9213,-1.9213,-1.9213,-1.9213,-1.9213,-1.9213,-1.9213,-1.8762,-1.7722,-1.6029,-1.5863,-1.5269,-1.4233,-1.2908,-1.2245,-2.8116,0.0,0.0,0.0,0.0,0.0,0.0,0.0,0.0,0.0,0.0,0.0,0.0,0.0,0.0,0.0,0.0,0.0,0.0,0.0,0.0,0.0,0.0,0.0,0.0,0.0,0.0,0.0,-6.7139,-6.7281,-6.7281,-6.6259,-6.517,-6.3983,-6.3573,-6.3381,-6.3381,-6.2449,-6.1572,-6.0763,-5.9807,-5.8917,-5.8136,-5.7404,-5.7053,-5.7084,-5.6697,-5.6607,-5.6652,-5.6638,-5.5958,-5.4988,-5.4988,-5.3602,-5.1583,-5.1532,-4.9749,-4.7313,-4.6941,-4.4637,-4.1713,-4.1408,-3.9322,-3.6908,-3.6908,-3.5973,-3.4865,-3.479,-3.4523,-3.417,-3.3836,-3.3695,-3.3402,-3.2465,-3.2224,-3.1541,-2.9198,-2.8701,-2.8184,-2.6648,-2.5765,-2.5189,-2.4951,-2.4653,-2.4533,-2.4772,-2.507,-2.5129,-2.4637,-2.4757,-2.4523,-2.369,-2.2318,-2.1316,-2.0889,-1.994,-1.9243,-1.9098,-1.9213,-1.9213,-1.9213,-1.9213,-1.9213,-1.9213,-1.9213,-1.8836,-1.7943,-1.6456,-1.5706,-1.5714,-1.3351,-1.2245,0.0,0.0,0.0,0.0,0.0,0.0,0.0,0.0,0.0,0.0,0.0,0.0,0.0,0.0,0.0,0.0,0.0,0.0,0.0,0.0,0.0,0.0,0.0,0.0,0.0,0.0,0.0,0.0,0.0,-6.7281,-6.7281,-6.6259,-6.517,-6.3983,-6.3573,-6.3381,-6.3381,-6.309,-6.2482,-6.1575,-6.0767,-5.9996,-5.9201,-5.7923,-5.7335,-5.7291,-5.6773,-5.6697,-5.6889,-5.6652,-5.5958,-5.4988,-5.4988,-5.3699,-5.184,-5.1583,-4.9956,-4.7596,-4.6213,-4.4034,-4.1586,-4.0469,-3.8659,-3.6908,-3.6908,-3.61,-3.51,-3.4865,-3.479,-3.463,-3.4116,-3.3836,-3.364,-3.3586,-3.3586,-3.2911,-3.0407,-2.9898,-2.9425,-2.7859,-2.6321,-2.5189,-2.4951,-2.4653,-2.4474,-2.4489,-2.4951,-2.5248,-2.5248,-2.5011,-2.4832,-2.4863,-2.2901,-2.1296,-2.068,-2.0001,-1.9335,-1.8709,-1.9046,-1.9213,-1.9213,-1.9213,-1.9213,-1.9213,-1.9213,-1.9203,-1.9213,-1.69,-1.5706,-1.5714,-1.3351,-1.2245,0.0,0.0,0.0,0.0,0.0,0.0,0.0,0.0,0.0,0.0,0.0,0.0,0.0,0.0,0.0,0.0,0.0,0.0,0.0,0.0,0.0,0.0,0.0,0.0,0.0,0.0,0.0,0.0,0.0,0.0,-6.7281,-6.6591,-6.5886,-6.5142,-6.4568,-6.3971,-6.3346,-6.309,-6.2517,-6.1611,-6.1358,-6.0541,-5.9282,-5.8628,-5.8104,-5.7597,-5.7084,-5.6875,-5.6964,-5.6875,-5.6487,-5.6049,-5.6049,-5.5188,-5.3845,-5.3091,-5.1224,-4.8795,-4.6665,-4.4736,-4.3004,-4.1535,-3.9672,-3.7932,-3.7932,-3.6678,-3.5153,-3.51,-3.4918,-3.4759,-3.4599,-3.4224,-3.3814,-3.3695,-3.364,-3.3184,-3.145,-3.1096,-3.048,-2.8396,-2.7356,-2.6422,-2.5351,-2.4951,-2.4832,-2.5011,-2.5129,-2.541,-2.5867,-2.5867,-2.5808,-2.5808,-2.4403,-2.3023,-2.1742,-2.0947,-1.9984,-1.8758,-1.9035,-1.9213,-1.9213,-1.9213,-1.9213,-1.9213,-1.9213,-1.9213,-1.9213,-1.7648,-1.653,-1.5714,-1.4174,-1.299,0.0,0.0,0.0,0.0,0.0,0.0,0.0,0.0,0.0,0.0,0.0,0.0,0.0,0.0,0.0,0.0,0.0,0.0,0.0,0.0,0.0,0.0,0.0,0.0,0.0,0.0,0.0,0.0,0.0,0.0,-6.7281,-6.6751,-6.6234,-6.5741,-6.5052,-6.4333,-6.3543,-6.3189,-6.2721,-6.2103,-6.1787,-6.0954,-5.9682,-5.9129,-5.8452,-5.7727,-5.7391,-5.7229,-5.726,-5.7053,-5.6875,-5.6697,-5.6607,-5.5912,-5.4924,-5.3874,-5.187,-4.9445,-4.6916,-4.5159,-4.369,-4.2134,-4.0449,-3.8983,-3.8585,-3.7244,-3.5733,-3.5312,-3.51,-3.4918,-3.479,-3.4545,-3.4224,-3.3814,-3.3782,-3.3489,-3.2574,-3.2004,-3.1243,-2.9747,-2.8417,-2.728,-2.6145,-2.5351,-2.4951,-2.5129,-2.5189,-2.547,-2.6044,-2.6204,-2.6263,-2.6263,-2.5298,-2.414,-2.2907,-2.1592,-2.0412,-1.932,-1.9152,-1.9119,-1.9203,-1.9213,-1.9213,-1.9213,-1.9213,-1.9213,-1.9213,-1.809,-1.7122,-1.6299,-1.4772,-1.359,0.0,0.0,0.0,0.0,0.0,0.0,0.0,0.0,0.0,0.0,0.0,0.0,0.0,0.0,0.0,0.0,0.0,0.0,0.0,0.0,0.0,0.0,0.0,0.0,0.0,0.0,0.0,0.0,0.0,-6.7281,-6.7281,-6.6773,-6.6283,-6.5732,-6.5135,-6.4486,-6.38,-6.3449,-6.3156,-6.2957,-6.2103,-6.1249,-6.0465,-5.9451,-5.8577,-5.7782,-5.777,-5.777,-5.7684,-5.7185,-5.6964,-5.692,-5.6652,-5.5958,-5.4941,-5.3874,-5.1948,-4.96,-4.6966,-4.5186,-4.3769,-4.2134,-4.0906,-3.9868,-3.8884,-3.7855,-3.6753,-3.5628,-3.5259,-3.5206,-3.4918,-3.4812,-3.463,-3.417,-3.403,-3.3922,-3.3695,-3.2629,-3.1762,-3.1707,-2.954,-2.7628,-2.7263,-2.591,-2.4891,-2.4951,-2.5129,-2.5426,-2.5798,-2.6119,-2.6263,-2.6263,-2.5453,-2.4681,-2.3963,-2.1924,-2.0596,-2.0394,-1.9309,-1.8805,-1.9234,-1.9203,-1.9213,-1.9213,-1.9213,-1.9213,-1.9213,-1.809,-1.7564,-1.7426,-1.5136,-1.4032,0.0,0.0,0.0,0.0,0.0,0.0,0.0,0.0,0.0,0.0,0.0,0.0,0.0,0.0,0.0,0.0,0.0,0.0,0.0,0.0,0.0,0.0,0.0,0.0,0.0,0.0,0.0,0.0,0.0,-6.7281,-6.7281,-6.7117,-6.6855,-6.6307,-6.6125,-6.5477,-6.4338,-6.4158,-6.3699,-6.2992,-6.2721,-6.2171,-6.1285,-6.0427,-5.9642,-5.8867,-5.8263,-5.79,-5.7727,-5.7379,-5.7128,-5.692,-5.6652,-5.6427,-5.5958,-5.4115,-5.3085,-5.1891,-4.7814,-4.5971,-4.5132,-4.2683,-4.1049,-4.0013,-3.9721,-3.8933,-3.7855,-3.6804,-3.6494,-3.6286,-3.5289,-3.4918,-3.4705,-3.4406,-3.4138,-3.3922,-3.3695,-3.3347,-3.2869,-3.1873,-3.0424,-2.8951,-2.7744,-2.6204,-2.5248,-2.5561,-2.5426,-2.547,-2.6044,-2.6204,-2.6263,-2.6263,-2.6028,-2.5362,-2.4023,-2.2582,-2.1232,-1.9896,-1.911,-1.874,-1.8784,-1.9109,-1.9213,-1.9213,-1.9213,-1.9213,-1.9213,-1.8909,-1.8384,-1.7491,-1.6011,-1.4838,0.0,0.0,0.0,0.0,0.0,0.0,0.0,0.0,0.0,0.0,0.0,0.0,0.0,0.0,0.0,0.0,0.0,0.0,0.0,0.0,0.0,0.0,0.0,0.0,0.0,0.0,0.0,0.0,0.0,-6.7281,-6.7281,-6.7281,-6.7031,-6.6497,-6.6474,-6.5901,-6.4626,-6.4481,-6.4037,-6.3321,-6.3157,-6.2551,-6.1608,-6.0805,-6.0229,-5.9761,-5.8949,-5.8348,-5.79,-5.7641,-5.7348,-5.7084,-5.6831,-5.6652,-5.6382,-5.4735,-5.3493,-5.2158,-4.844,-4.64,-4.5028,-4.2886,-4.157,-4.0832,-4.0352,-3.9721,-3.8884,-3.7369,-3.6908,-3.6649,-3.547,-3.51,-3.4865,-3.462,-3.4406,-3.4138,-3.389,-3.3673,-3.3402,-3.2684,-3.1561,-3.0199,-2.8722,-2.7472,-2.6531,-2.5975,-2.59,-2.6044,-2.6204,-2.6263,-2.6263,-2.6263,-2.6263,-2.5893,-2.4991,-2.3676,-2.2264,-2.0823,-1.9904,-1.9235,-1.8677,-1.9046,-1.9213,-1.9213,-1.9088,-1.9088,-1.9213,-1.9213,-1.8909,-1.8237,-1.7048,-1.5863,0.0,0.0,0.0,0.0,0.0,0.0,0.0,0.0,0.0,0.0,0.0,0.0,0.0,0.0,0.0,0.0,0.0,0.0,0.0,0.0,0.0,0.0,0.0,0.0,0.0,0.0,0.0,0.0,0.0,0.0,-6.7281,-6.7281,-6.7053,-6.6591,-6.6591,-6.6076,-6.4961,-6.4741,-6.4368,-6.3863,-6.3383,-6.2687,-6.1787,-6.0987,-6.0612,-6.0541,-5.9682,-5.8908,-5.8252,-5.79,-5.7597,-5.7379,-5.7053,-5.6831,-5.6473,-5.5391,-5.3668,-5.1513,-4.8955,-4.658,-4.4443,-4.2951,-4.2224,-4.1804,-4.0928,-4.0449,-3.9868,-3.7905,-3.7267,-3.6856,-3.5711,-3.5312,-3.51,-3.4843,-3.462,-3.4406,-3.417,-3.3868,-3.3695,-3.3695,-3.2739,-3.1485,-3.0049,-2.9159,-2.797,-2.6211,-2.643,-2.669,-2.6321,-2.6263,-2.6263,-2.6263,-2.6263,-2.6263,-2.6263,-2.4813,-2.3405,-2.2262,-2.1019,-1.9817,-1.8628,-1.8929,-1.913,-1.9192,-1.8878,-1.8899,-1.9213,-1.9213,-1.9213,-1.9203,-1.8016,-1.6974,0.0,0.0,0.0,0.0,0.0,0.0,0.0,0.0,0.0,0.0,0.0,0.0,0.0,0.0,0.0,0.0,0.0,0.0,0.0,0.0,0.0,0.0,0.0,0.0,0.0,0.0,0.0,0.0,0.0,0.0,-6.7281,-6.7281,-6.7239,-6.7117,-6.7117,-6.6818,-6.6174,-6.5494,-6.4933,-6.4368,-6.3541,-6.3023,-6.2721,-6.1856,-6.143,-6.1322,-5.9925,-5.9201,-5.903,-5.8094,-5.7727,-5.7641,-5.7141,-5.692,-5.6742,-5.5484,-5.4071,-5.2424,-4.9408,-4.7147,-4.5305,-4.334,-4.2363,-4.1971,-4.1758,-4.1523,-4.1049,-3.9868,-3.8884,-3.8006,-3.6908,-3.5891,-3.51,-3.4843,-3.4759,-3.4705,-3.4705,-3.4277,-3.3976,-3.3976,-3.3598,-3.2869,-3.1541,-2.9823,-2.801,-2.6439,-2.6573,-2.669,-2.6321,-2.6263,-2.6263,-2.6263,-2.6263,-2.6263,-2.6263,-2.4813,-2.3469,-2.2406,-2.0746,-1.9309,-1.8372,-1.8235,-1.8324,-1.8721,-1.9014,-1.9203,-1.9213,-1.9213,-1.9213,-1.9203,-1.8016,-1.7417,0.0,0.0,0.0,0.0,0.0,0.0,0.0,0.0,0.0,0.0,0.0,0.0,0.0,0.0,0.0,0.0,0.0,0.0,0.0,0.0,0.0,0.0,0.0,0.0,0.0,0.0,0.0,0.0,0.0,0.0,0.0,-6.7281,-6.7281,-6.7281,-6.7281,-6.7009,-6.6497,-6.585,-6.5209,-6.4626,-6.3856,-6.3385,-6.3189,-6.2687,-6.2104,-6.1575,-6.0809,-6.0042,-5.9242,-5.8743,-5.8221,-5.7684,-5.7304,-5.7053,-5.6845,-5.6095,-5.4699,-5.2849,-5.067,-4.8274,-4.5903,-4.4221,-4.3095,-4.2363,-4.2224,-4.2018,-4.157,-4.0352,-3.9672,-3.8933,-3.7346,-3.6517,-3.5921,-3.5183,-3.4918,-3.479,-3.479,-3.4492,-3.4192,-3.4009,-3.3922,-3.3652,-3.3012,-3.1505,-2.9804,-2.8223,-2.7721,-2.7332,-2.6807,-2.6439,-2.6263,-2.6263,-2.6263,-2.6263,-2.6263,-2.5539,-2.4321,-2.2446,-2.1799,-2.0476,-1.8379,-1.7901,-1.805,-1.8725,-1.859,-1.8795,-1.9213,-1.9213,-1.9213,-1.9213,-1.8689,-1.809,0.0,0.0,0.0,0.0,0.0,0.0,0.0,0.0,0.0,0.0,0.0,0.0,0.0,0.0,0.0,0.0,0.0,0.0,0.0,0.0,0.0,0.0,0.0,0.0,0.0,0.0,0.0,0.0,0.0,0.0,0.0,0.0,0.0,-6.7348,-6.7302,-6.7053,-6.6637,-6.6136,-6.5539,0.0,-6.4254,-6.3765,-6.3445,-6.335,-6.2822,-6.1964,-6.1718,-6.0842,-5.9523,-5.9363,-5.8702,-5.7814,-5.751,-5.726,-5.7008,-5.6742,-5.5164,-5.2935,-5.1723,-4.926,-4.6416,-4.4979,-4.3832,-4.2959,-4.2501,-4.2204,-4.1758,-4.0689,-4.0207,-3.9623,-3.7753,-3.7113,-3.6701,-3.5786,-3.5183,-3.4865,-3.4865,-3.4674,-3.4406,-3.4245,-3.4116,-3.403,-3.4084,-3.2936,-3.1652,-3.0556,-2.9369,-2.8299,-2.7349,-2.6749,-2.638,-2.6263,-2.6263,-2.6263,-2.6263,-2.6263,-2.5287,-2.3064,-2.2931,-2.1709,-1.8983,-1.8335,-1.8306,-1.8691,-1.8328,-1.8453,-1.914,-1.914,-1.9192,-1.9213,-1.9213,-1.8762,-5.5018,0.0,0.0,0.0,0.0,0.0,0.0,0.0,0.0,0.0,0.0,0.0,0.0,0.0,0.0,0.0,0.0,0.0,0.0,0.0,0.0,0.0,0.0,0.0,0.0,0.0,0.0,0.0,0.0,0.0,0.0,0.0,0.0,-6.7593,-6.7389,-6.726,-6.7181,-6.666,-6.6161,-6.5601,-6.4834,-6.4193,-6.3705,-6.374,-6.3482,-6.2989,-6.2034,-6.1139,-6.0306,-5.9602,-5.8816,-5.8071,-5.7814,-5.7554,-5.7291,-5.7008,-5.5141,-5.2619,-5.1669,-4.9501,-4.6871,-4.5086,-4.4274,-4.3787,-4.2731,-4.2204,-4.1925,-4.157,-4.0811,-3.977,-3.8635,-3.7652,-3.6908,-3.6804,-3.5921,-3.5153,-3.5153,-3.494,-3.4759,-3.4759,-3.4331,-3.4084,-3.4321,-3.3066,-3.2334,-3.2978,-3.1374,-2.9464,-2.7448,-2.7175,-2.6924,-2.6321,-2.6263,-2.6263,-2.6263,-2.6263,-2.5792,-2.4697,-2.3257,-2.1938,-2.0828,-2.0214,-1.947,-1.838,-1.8636,-1.8719,-1.868,-1.868,-1.8889,-1.9213,-1.9213,-1.9213,-4.7058,0.0,0.0,0.0,0.0,0.0,0.0,0.0,0.0,0.0,0.0,0.0,0.0,0.0,0.0,0.0,0.0,0.0,0.0,0.0,0.0,0.0,0.0,0.0,0.0,0.0,0.0,0.0,0.0,0.0,0.0,0.0,0.0,0.0,-6.741,-6.7281,-6.7281,-6.6728,-6.6379,-6.6161,-6.5162,-6.4539,-6.4309,-6.3921,-6.361,-6.3285,-6.2754,-6.2345,-6.189,-6.0536,-5.9523,-5.8743,-5.804,-5.7684,-5.7554,-5.7097,-5.5746,-5.3909,-5.2584,-5.0499,-4.8144,-4.6629,-4.5357,-4.4274,-4.3609,-4.2868,-4.2158,-4.1925,-4.1428,-4.0763,-3.9672,-3.8635,-3.7702,-3.7113,-3.6048,-3.5153,-3.5153,-3.51,-3.4971,-3.4865,-3.463,-3.4545,-3.4599,-3.4148,-3.3696,-3.3793,-3.31,-3.1596,-2.8988,-2.7797,-2.6982,-2.6321,-2.6263,-2.6263,-2.6263,-2.6263,-2.5851,-2.4951,-2.3649,-2.2791,-2.2382,-2.1282,-2.0126,-1.891,-1.8646,-1.839,-1.8188,-1.847,-1.8711,-1.8889,-1.915,-1.9213,-4.2682,-4.6574,0.0,0.0,0.0,0.0,0.0,0.0,0.0,0.0,0.0,0.0,0.0,0.0,0.0,0.0,0.0,0.0,0.0,0.0,0.0,0.0,0.0,0.0,0.0,0.0,0.0,0.0,0.0,0.0,0.0,0.0,0.0,0.0,-6.7574,-6.7373,-6.7323,-6.6885,-6.6637,-6.6474,-6.5513,-6.5107,-6.5209,-6.4398,-6.3918,-6.3696,-6.3447,-6.3222,-6.289,-6.1497,-6.0421,-5.9563,-5.8567,-5.8136,-5.8008,-5.7317,-5.6204,-5.4789,-5.3252,-5.1322,-4.9318,-4.7739,-4.6186,-4.4841,-4.429,-4.3384,-4.2409,-4.2204,-4.1925,-4.1476,-4.0449,-3.9574,-3.8734,-3.8006,-3.6753,-3.5733,-3.5733,-3.5417,-3.5153,-3.4971,-3.4971,-3.5002,-3.4918,-3.4971,-3.4843,-3.4438,-3.417,-3.323,-3.1171,-2.9255,-2.7721,-2.6673,-2.638,-2.6263,-2.6263,-2.6263,-2.5969,-2.5351,-2.4323,-2.3784,-2.3784,-2.2153,-2.0698,-1.9512,-1.8733,-1.814,-1.7696,-1.8177,-1.8481,-1.8698,-1.9077,-1.9213,-4.6496,-4.8205,0.0,0.0,0.0,0.0,0.0,0.0,0.0,0.0,0.0,0.0,0.0,0.0,0.0,0.0,0.0,0.0,0.0,0.0,0.0,0.0,0.0,0.0,0.0,0.0,0.0,0.0,0.0,0.0,0.0,0.0,0.0,0.0,-6.8026,-6.7689,-6.7446,-6.7323,-6.6987,-6.6474,-6.5936,-6.5962,-6.6427,-6.5263,-6.4655,-6.4486,-6.3952,-6.3546,-6.3089,-6.2345,-6.1391,-6.0383,-5.9602,-5.912,-5.8793,-5.7708,-5.6366,-5.4789,-5.3252,-5.1754,-5.0151,-4.7971,-4.66,-4.5654,-4.4465,-4.3474,-4.2712,-4.2455,-4.2204,-4.1758,-4.0689,-4.0256,-4.0013,-4.0013,-3.8435,-3.6908,-3.6908,-3.5973,-3.5153,-3.5153,-3.5395,-3.55,-3.5206,-3.5395,-3.55,-3.5206,-3.4513,-3.4009,-3.3955,-3.1798,-2.9502,-2.7448,-2.6631,-2.6263,-2.6263,-2.6263,-2.6263,-2.6187,-2.5335,-2.4891,-2.4891,-2.3001,-2.1348,-2.0034,-1.8998,-1.8077,-1.7301,-1.7685,-1.8146,-1.8698,-1.9077,-1.9213,-4.2305,-4.5875,0.0,0.0,0.0,0.0,0.0,0.0,0.0,0.0,0.0,0.0,0.0,0.0,0.0,0.0,0.0,0.0,0.0,0.0,0.0,0.0,0.0,0.0,0.0,0.0,0.0,0.0,0.0,0.0,0.0,0.0,0.0,0.0,-6.8131,-6.78,-6.7446,-6.7405,-6.7245,-6.7009,-6.6497,-6.6331,-6.645,-6.5263,-6.4655,-6.4516,-6.3983,-6.361,-6.3283,-6.2922,-6.2277,-6.1355,-5.9846,-5.9242,-5.9039,-5.7966,-5.6594,-5.5044,-5.3368,-5.1816,-5.0302,-4.8686,-4.756,-4.66,-4.5612,-4.4552,-4.3564,-4.2822,-4.2316,-4.1945,-4.1804,-4.1023,-4.0256,-4.0062,-3.8435,-3.6908,-3.6908,-3.6048,-3.5312,-3.5763,-3.5921,-3.6077,-3.6338,-3.613,-3.5921,-3.5868,-3.5236,-3.462,-3.4084,-3.2423,-3.0649,-2.8969,-2.7239,-2.6263,-2.6263,-2.6263,-2.6263,-2.6263,-2.5969,-2.5513,-2.4891,-2.3604,-2.22,-2.0749,-1.9245,-1.8158,-1.7443,-1.7476,-1.7742,-1.8135,-1.8606,-1.8994,-4.2782,-4.6254,0.0,-5.2823,0.0,0.0,0.0,0.0,0.0,0.0,0.0,0.0,0.0,0.0,0.0,0.0,0.0,0.0,0.0,0.0,0.0,0.0,0.0,0.0,0.0,0.0,0.0,0.0,0.0,0.0,0.0,0.0,0.0,-6.8602,-6.8371,-6.8012,-6.7543,-6.7466,-6.7405,-6.7323,-6.7009,-6.6855,-6.6728,-6.5814,-6.5244,-6.4947,-6.4373,-6.3887,-6.3511,-6.335,-6.2922,-6.2345,-6.1172,-6.0306,-5.9602,-5.8535,-5.7346,-5.6045,-5.4309,-5.2709,-5.12,-4.9767,-4.838,-4.7118,-4.6559,-4.5371,-4.4114,-4.3564,-4.2868,-4.2316,-4.2455,-4.1804,-4.0976,-4.0832,-3.9427,-3.8006,-3.7601,-3.6649,-3.5891,-3.613,-3.6286,-3.6494,-3.6598,-3.6546,-3.6286,-3.5868,-3.547,-3.4993,-3.4513,-3.3066,-3.1505,-3.0143,-2.8166,-2.679,-2.6263,-2.6263,-2.6263,-2.6263,-2.6263,-2.5969,-2.541,-2.4443,-2.3168,-2.1517,-1.985,-1.8564,-1.7464,-1.7382,-1.7438,-1.7654,-1.8125,-1.8585,-4.6234,-4.8214,-5.0141,-5.5019,0.0,0.0,0.0,0.0,0.0,0.0,0.0,0.0,0.0,0.0,0.0,0.0,0.0,0.0,0.0,0.0,0.0,0.0,0.0,0.0,0.0,0.0,0.0,0.0,0.0,0.0,0.0,0.0,0.0,-6.8898,-6.8681,-6.834,-6.7702,-6.7563,-6.7466,-6.7483,-6.7446,-6.7385,-6.726,-6.6705,-6.621,-6.5706,-6.5079,-6.4427,-6.3831,-6.3541,-6.3348,-6.3189,-6.3058,-6.1996,-6.0421,-5.933,-5.841,-5.7465,-5.5571,-5.3997,-5.2596,-5.0944,-4.9028,-4.732,-4.7239,-4.599,-4.4581,-4.4537,-4.3771,-4.2868,-4.2804,-4.2409,-4.2018,-4.2018,-4.1023,-3.9819,-3.8834,-3.7753,-3.6804,-3.639,-3.6649,-3.6804,-3.639,-3.6649,-3.6546,-3.547,-3.5259,-3.5153,-3.5153,-3.376,-3.2265,-3.0929,-2.9293,-2.7779,-2.6439,-2.6321,-2.6321,-2.6263,-2.6263,-2.6263,-2.6263,-2.5351,-2.4144,-2.2567,-2.0941,-1.9307,-1.7652,-1.7415,-1.7324,-1.7301,-1.7654,-1.8104,-4.0414,-4.4775,-4.9349,-5.0756,0.0,0.0,0.0,0.0,0.0,0.0,0.0,0.0,0.0,0.0,0.0,0.0,0.0,0.0,0.0,0.0,0.0,0.0,0.0,0.0,0.0,0.0,0.0,0.0,0.0,0.0,0.0,0.0,-6.9863,-6.9112,-6.8899,-6.8521,-6.8086,-6.7836,-6.7719,-6.7603,-6.7487,-6.7426,-6.7385,-6.6751,-6.6427,-6.6259,-6.5732,-6.5079,-6.4516,-6.4303,-6.3883,-6.3316,-6.3154,-6.238,-6.1175,-5.9728,-5.8577,-5.7383,-5.4829,-5.3522,-5.2482,-4.9963,-4.8814,-4.8142,-4.744,-4.6476,-4.5399,-4.4711,-4.4318,-4.3876,-4.3005,-4.2666,-4.2455,-4.2111,-4.1166,-4.0207,-3.977,-3.8258,-3.7113,-3.778,-3.7421,-3.7165,-3.7855,-3.7397,-3.6804,-3.6546,-3.5786,-3.5153,-3.5153,-3.4277,-3.3121,-3.1652,-3.0461,-2.9065,-2.7157,-2.6982,-2.6749,-2.6263,-2.6263,-2.6263,-2.6263,-2.5351,-2.4697,-2.4323,-2.1957,-2.0306,-1.9418,-1.8078,-1.7393,-1.729,-1.7396,-1.769,-4.1219,-4.5871,-4.9758,-4.85,-5.15,0.0,0.0,0.0,0.0,0.0,0.0,0.0,0.0,0.0,0.0,0.0,0.0,0.0,0.0,0.0,0.0,0.0,0.0,0.0,0.0,0.0,0.0,0.0,0.0,0.0,0.0,0.0,-7.1087,-6.9263,-6.9055,-6.8755,-6.8238,-6.816,-6.8125,-6.81,-6.7799,-6.7626,-6.7593,-6.7145,-6.6751,-6.6474,0.0,-6.5565,-6.4713,-6.4603,-6.4128,-6.3511,-6.3253,-6.2822,-6.2207,-6.0842,-5.9768,-5.8547,-5.5553,-5.3976,-5.2829,-5.0521,-4.9253,-4.8575,-4.8064,-4.721,-4.6282,-4.5399,-4.4841,-4.4274,-4.3231,-4.2895,-4.2712,-4.2409,-4.1758,-4.0976,-4.0352,-3.9279,-3.8409,-3.8485,-3.8057,-3.7753,-3.8081,-3.7675,-3.7113,-3.6649,-3.6025,-3.5523,-3.5206,-3.4492,-3.3555,-3.2423,-3.1132,-2.9615,-2.797,-2.7466,-2.6924,-2.6263,-2.6263,-2.6263,-2.6263,-2.5749,-2.5292,-2.4891,-2.3228,-2.17,-2.0477,-1.8948,-1.7912,-1.7361,-1.7104,-1.7162,-4.3911,-4.8175,-5.0823,-4.8546,-4.8888,-4.9363,0.0,0.0,0.0,0.0,0.0,0.0,0.0,0.0,0.0,0.0,0.0,0.0,0.0,0.0,0.0,0.0,0.0,0.0,0.0,0.0,0.0,0.0,0.0,0.0,0.0,-7.4542,-7.2849,-6.9766,-6.9348,-6.8911,-6.8377,-6.8476,-6.8559,-6.864,-6.812,-6.7892,-6.7907,-6.7609,-6.7139,-6.6637,0.0,-6.6001,-6.4961,-6.477,-6.4403,-6.3831,-6.3449,-6.3254,-6.3056,-6.2034,-6.1212,-6.0186,-5.7241,-5.5044,-5.3347,-5.1608,-5.0018,-4.8766,-4.8652,-4.7985,-4.7078,-4.6323,-4.5442,-4.4493,-4.3592,-4.3095,-4.2849,-4.2758,-4.2363,-4.1804,-4.0928,-4.0375,-3.9868,-3.8983,-3.8685,-3.8409,-3.7879,-3.775,-3.7393,-3.6442,-3.6234,-3.5921,-3.5259,-3.462,-3.3955,-3.3284,-3.1818,-3.0405,-2.9141,-2.8144,-2.7274,-2.6673,-2.6497,-2.6321,-2.6263,-2.6263,-2.5867,-2.5114,-2.4412,-2.3213,-2.1422,-2.006,-1.8824,-1.7715,-1.6974,-1.6881,-4.127,-4.6606,-5.1739,-5.2835,-5.2309,-5.1115,-4.9558,0.0,0.0,0.0,0.0,0.0,0.0,0.0,0.0,0.0,0.0,0.0,0.0,0.0,0.0,0.0,0.0,0.0,0.0,0.0,0.0,0.0,0.0,0.0,0.0,-7.4043,-7.226,-7.1697,-7.007,-6.9182,-6.9055,-6.9067,-6.8985,-6.8782,-6.8346,-6.8171,-6.8134,-6.7667,-6.7385,-6.7302,0.0,0.0,-6.6174,-6.5732,-6.5087,-6.4338,-6.3859,-6.3482,-6.3056,-6.2242,-6.1751,-6.1179,-5.9383,-5.6492,-5.3387,-5.1931,-5.0257,-4.8773,-4.8766,-4.8072,-4.7239,-4.72,-4.6429,-4.5442,-4.4537,-4.3726,-4.3032,-4.2849,-4.2501,-4.227,-4.2131,-4.1166,-4.0352,-4.0134,-3.9402,-3.8734,-3.8435,-3.798,-3.7495,-3.6908,-3.6442,-3.5921,-3.5259,-3.51,-3.4727,-3.3955,-3.3631,-3.2827,-3.1299,-2.9973,-2.893,-2.8241,-2.7507,-2.6807,-2.6263,-2.6263,-2.6204,-2.6028,-2.5157,-2.4323,-2.3439,-2.1592,-2.006,-1.8812,-1.7839,-1.708,-4.3418,-4.8364,-5.319,-5.4026,-5.3115,-5.1588,-4.9931,0.0,0.0,0.0,0.0,0.0,0.0,0.0,0.0,0.0,0.0,0.0,0.0,0.0,0.0,0.0,0.0,0.0,0.0,0.0,0.0,0.0,0.0,0.0,0.0,-7.4836,-7.3061,-7.2155,-7.0333,-6.9421,-6.9421,-6.9277,-6.9225,-6.9236,-6.8782,-6.8565,-6.8626,-6.8117,-6.78,0.0,0.0,0.0,-6.645,-6.5911,-6.528,-6.4568,-6.3983,-6.3642,-6.3417,-6.2822,-6.2277,-6.1716,-6.0842,-5.8364,-5.5094,-5.2391,-5.0448,-4.9106,-4.9025,-4.8575,-4.8003,-4.7558,-4.7029,-4.6311,-4.4885,-4.4186,-4.3726,-4.3095,-4.2804,-4.2666,-4.2941,-4.2197,-4.1355,-4.095,-4.023,-3.9451,-3.8635,-3.8309,-3.798,-3.7444,-3.6908,-3.639,-3.5763,-3.5417,-3.5047,-3.4674,-3.4277,-3.3555,-3.2499,-3.1838,-3.0929,-2.9804,-2.8608,-2.7414,-2.6263,-2.6263,-2.6263,-2.6263,-2.5867,-2.5216,-2.4427,-2.2596,-2.1015,-1.9542,-1.814,-1.7162,-4.8503,0.0,-5.4989,-5.5382,-5.4383,-5.2732,0.0,0.0,0.0,0.0,0.0,0.0,0.0,0.0,0.0,0.0,0.0,0.0,0.0,0.0,0.0,0.0,0.0,0.0,0.0,0.0,0.0,0.0,0.0,0.0,0.0,-7.6157,-7.4458,-7.2759,-7.106,-6.9995,-6.9579,-6.9402,-6.9402,-6.9579,-6.9112,-6.8947,-6.9014,-6.8477,-6.8117,0.0,0.0,0.0,-6.6705,-6.6136,-6.5592,-6.5099,-6.4314,-6.3952,-6.3894,-6.3482,-6.2889,-6.2207,-6.1822,-6.0155,-5.7612,-5.4014,-5.1511,-4.9805,-4.9374,-4.9069,-4.8773,-4.8059,-4.7579,-4.6937,-4.5527,-4.4841,-4.4318,-4.3637,-4.3095,-4.2941,-4.3485,-4.3032,-4.2316,-4.1705,-4.0997,-4.0134,-3.8983,-3.8585,-3.8309,-3.7801,-3.7393,-3.6856,-3.6234,-3.5733,-3.5364,-3.5206,-3.4652,-3.4116,-3.3609,-3.3393,-3.2718,-3.1374,-2.9728,-2.8188,-2.6814,-2.6422,-2.6263,-2.6263,-2.6263,-2.591,-2.5173,-2.3694,-2.2037,-2.0329,-1.8812,-1.7527,0.0,-5.7577,-5.7187,-5.8874,-5.803,-5.5948,0.0,0.0,0.0,0.0,0.0,0.0,0.0,-4.1404,-4.3135,-4.5444,-4.9659,0.0,0.0,0.0,0.0,0.0,0.0,0.0,0.0,0.0,0.0,0.0,0.0,0.0,0.0,-7.7856,-7.6233,-7.4542,-7.2797,-7.1173,-6.9617,-6.9571,-6.9571,-6.9579,-6.9297,-6.9193,-6.9156,-6.8544,0.0,0.0,0.0,0.0,0.0,-6.6728,-6.6474,-6.639,-6.5154,-6.4568,-6.4427,-6.3925,-6.3449,-6.2989,-6.2242,-6.1684,-6.0779,-5.7709,-5.4307,-5.1094,-4.9774,-4.933,-4.9293,-4.91,-4.8245,-4.736,-4.7089,-4.578,-4.4493,-4.445,-4.3564,-4.2986,-4.3709,-4.3304,-4.2758,-4.2666,-4.1637,-4.0519,-3.9721,-3.8983,-3.8309,-3.7801,-3.7699,-3.7267,-3.6286,-3.613,-3.5868,-3.5259,-3.51,-3.51,-3.5047,-3.4331,-3.3631,-3.2957,-3.0705,-2.9122,-2.8457,-2.6989,-2.6263,-2.6263,-2.6263,-2.6204,-2.6145,-2.5173,-2.3514,-2.1294,-2.0267,-1.8626,0.0,-6.0518,-6.1592,-6.1318,-6.0779,0.0,0.0,0.0,0.0,0.0,-4.1683,-3.9844,-3.9835,-4.0359,-4.2735,-4.8748,-5.1254,0.0,0.0,0.0,0.0,0.0,0.0,0.0,0.0,0.0,0.0,0.0,0.0,0.0,0.0,-7.8045,-7.6875,-7.6233,-7.4571,-7.2872,-7.1173,-7.0108,-6.9579,-6.9579,-6.9474,-6.9439,-6.943,-6.8873,0.0,0.0,0.0,0.0,0.0,-6.6832,-6.6567,-6.6544,-6.5236,-6.4713,-6.4568,-6.3983,-6.3642,-6.3482,-6.2923,-6.238,-6.1349,-5.8274,-5.6271,-5.4435,-5.1204,-5.0555,-5.0745,-4.9611,-4.8811,-4.8137,-4.7509,-4.6815,-4.5906,-4.4798,-4.4186,-4.3921,-4.4214,-4.386,-4.344,-4.3204,-4.252,-4.1684,-4.0593,-3.9721,-3.9156,-3.8958,-3.8232,-3.7597,-3.7188,-3.6546,-3.6077,-3.5816,-3.5417,-3.5153,-3.5153,-3.494,-3.4277,-3.3121,-3.2224,-3.0741,-2.8629,-2.7975,-2.7239,-2.6263,-2.6263,-2.6263,-2.6263,-2.591,-2.4769,-2.2929,-2.1395,-1.969,-6.1062,-6.2451,-6.3729,-6.3212,-6.3042,-6.2001,-5.8114,0.0,0.0,-4.5508,-4.212,-3.9985,-4.056,-4.0633,-4.3084,-5.0494,-5.2127,0.0,0.0,0.0,0.0,0.0,0.0,0.0,0.0,0.0,0.0,0.0,0.0,0.0,0.0,-7.8525,-7.7685,-7.7199,-7.5506,-7.3828,-7.2117,-7.0448,-6.9579,-6.9579,-6.9579,-6.9579,-6.9571,-6.9044,0.0,0.0,0.0,0.0,0.0,-6.7053,-6.6855,-6.6796,-6.5712,-6.529,-6.5181,-6.4368,-6.4045,-6.3952,-6.3479,-6.2922,-6.2007,-5.9572,-5.8264,-5.6925,-5.3717,-5.2957,-5.2783,-5.0738,-4.9561,-4.8735,-4.8059,-4.7539,-4.6875,-4.5314,-4.4711,-4.4493,-4.4493,-4.4214,-4.3932,-4.3937,-4.3294,-4.2501,-4.159,-4.0615,-3.9916,-3.9697,-3.8908,-3.8182,-3.775,-3.7062,-3.6494,-3.6182,-3.5763,-3.5523,-3.5523,-3.5312,-3.4781,-3.3772,-3.3284,-3.1908,-2.9369,-2.8779,-2.7819,-2.6263,-2.6263,-2.6263,-2.6263,-2.6263,-2.5717,-2.4634,-2.2791,-2.0968,-6.3598,-6.352,-6.2841,-6.4541,-6.4861,-6.3472,0.0,0.0,0.0,-4.5773,-4.212,-4.0367,-4.2082,-4.2382,-4.4033,-4.9165,0.0,0.0,0.0,0.0,0.0,0.0,0.0,0.0,0.0,0.0,0.0,0.0,0.0,0.0,0.0,-7.9596,-7.8794,-7.7249,-7.5552,-7.3834,-7.2155,-7.0448,-6.9579,-6.9579,-6.9579,-6.9579,-6.9571,-6.9044,-6.8809,0.0,0.0,0.0,0.0,-6.7563,-6.7446,-6.7385,-6.6728,-6.6474,-6.6355,-6.5154,-6.4626,-6.4457,-6.3921,-6.3514,-6.3056,-6.2242,-6.0357,-5.8192,-5.7432,-5.6637,-5.5437,-5.2728,-5.06,-4.9131,-4.888,-4.8033,-4.7037,-4.6115,-4.5186,-4.4537,-4.4537,-4.4214,-4.4198,-4.5114,-4.3949,-4.2804,-4.2804,-4.1705,-4.0567,-3.9795,-3.9648,-3.9156,-3.7903,-3.7699,-3.7342,-3.6286,-3.6182,-3.6182,-3.613,-3.5576,-3.5153,-3.5153,-3.3847,-3.2389,-3.0741,-2.9369,-2.7842,-2.6263,-2.6263,-2.6263,-2.6263,-2.6263,-2.6263,-2.6204,-2.4634,-2.2567,-6.3059,-6.4446,-6.6073,-6.6563,-6.669,-6.5331,0.0,0.0,0.0,-4.574,-4.2114,-4.0363,-4.2049,-4.2469,-4.4533,0.0,0.0,-5.5997,0.0,0.0,0.0,0.0,0.0,0.0,0.0,0.0,0.0,0.0,0.0,0.0,0.0,-7.9671,-7.9408,-7.8959,-7.6158,-7.4408,-7.3903,-7.103,-6.9595,-6.9581,-6.9595,-6.9579,-6.9571,-6.9246,-6.8985,-6.8782,0.0,0.0,0.0,-6.7563,-6.7446,-6.7385,-6.6728,-6.6474,-6.6355,-6.5154,-6.4713,-6.4568,-6.3952,-6.3543,-6.3079,-6.1658,-6.0577,-5.9915,-6.0217,-5.8017,-5.5273,-5.444,-5.2001,-4.9504,-4.9137,-4.8645,-4.7955,-4.7008,-4.6641,-4.6269,-4.5612,-4.5357,-4.53,-4.5286,-4.487,-4.4346,-4.3709,-4.2822,-4.1965,-4.1381,-4.0378,-3.9501,-3.9107,-3.8283,-3.7597,-3.7267,-3.7239,-3.6959,-3.6234,-3.5973,-3.5681,-3.5206,-3.4781,-3.3372,-3.0797,-3.0292,-2.8875,-2.6321,-2.6263,-2.6263,-2.6263,-2.6263,-2.6263,-2.6187,-2.5775,-2.4828,-6.3478,-6.5402,-6.7614,-6.8296,-6.8472,-6.7118,-6.203,0.0,0.0,-4.6766,-4.2594,-4.08,-4.3816,-4.3958,0.0,0.0,0.0,0.0,0.0,0.0,0.0,0.0,0.0,0.0,0.0,0.0,0.0,0.0,0.0,0.0,-7.9776,-7.9787,-7.9792,-7.9789,-7.7143,-7.5394,-7.4711,-7.1992,-7.0261,-6.9603,-6.9581,-6.9595,-6.9571,-6.9316,-6.9138,-6.8948,-6.8507,0.0,0.0,-6.7704,-6.7567,-6.7552,-6.7016,-6.6773,-6.6683,-6.5763,-6.5298,-6.5024,-6.4373,-6.3856,-6.3339,-6.225,-6.1499,-6.1172,-6.1644,-5.9075,-5.5878,-5.533,-5.2999,-5.0411,-4.948,-4.9025,-4.8568,-4.748,-4.7239,-4.6997,-4.6074,-4.5864,-4.578,-4.5556,-4.5386,-4.5114,-4.455,-4.3798,-4.3032,-4.2363,-4.1071,-4.0013,-3.9697,-3.8709,-3.7929,-3.775,-3.7699,-3.7444,-3.6804,-3.639,-3.5973,-3.5576,-3.5312,-3.4095,-3.1762,-3.102,-2.9615,-2.7222,-2.6539,-2.6263,-2.6263,-2.6263,-2.6263,-2.6263,-2.6263,-2.5985,-6.4495,-6.6252,-6.8038,-6.9592,-6.9969,-6.8665,-6.3558,0.0,0.0,0.0,-4.3674,-4.187,-4.6153,0.0,0.0,0.0,0.0,0.0,0.0,0.0,0.0,0.0,0.0,0.0,0.0,0.0,0.0,0.0,0.0,0.0,-7.9902,-7.9878,-7.9899,-7.9859,-7.8231,-7.6552,-7.4859,-7.306,-7.1288,-6.9611,-6.9603,-6.9581,-6.9579,-6.9336,-6.9236,-6.9193,-6.8668,0.0,0.0,-6.7892,-6.7705,-6.7745,-6.7393,-6.7281,-6.7218,-6.666,-6.6161,-6.5601,-6.4968,-6.4279,-6.3705,-6.3477,-6.2821,-6.2138,-6.2103,-5.979,-5.6903,-5.5673,-5.3623,-5.1405,-4.9786,-4.9287,-4.8873,-4.7639,-4.736,-4.7159,-4.6282,-4.6032,-4.599,-4.5948,-4.5641,-4.5329,-4.5286,-4.4594,-4.3798,-4.305,-4.1825,-4.0759,-4.0013,-3.9131,-3.8409,-3.7953,-3.7852,-3.775,-3.7699,-3.6856,-3.6234,-3.613,-3.5576,-3.4599,-3.3121,-3.1596,-3.0104,-2.8629,-2.7106,-2.6321,-2.6263,-2.6263,-2.6263,-2.6263,-2.6263,-2.6263,-6.4831,-6.7155,-6.9513,-6.9893,-6.9964,-6.8658,-6.3564,-6.053,0.0,0.0,0.0,0.0,0.0,0.0,0.0,0.0,0.0,0.0,0.0,0.0,0.0,0.0,0.0,0.0,0.0,0.0,0.0,0.0,0.0,0.0,-7.9876,-7.988,-7.987,-7.9728,-7.8209,-7.653,-7.4862,-7.3127,-7.1407,-6.9737,-6.9632,-6.9596,-6.9588,-6.9517,-6.9411,-6.9166,-6.8861,0.0,0.0,-6.78,-6.7623,-6.751,-6.7344,-6.7281,-6.7218,-6.666,-6.6161,-6.5601,-6.4968,-6.4279,-6.3771,-6.3705,-6.3415,-6.3053,-6.2956,-6.0315,-5.7148,-5.6362,-5.3655,-5.0738,-4.9652,-4.9287,-4.9062,-4.8575,-4.8383,-4.8228,-4.7903,-4.738,-4.6886,-4.6682,-4.6186,-4.5683,-4.5372,-4.5114,-4.4783,-4.423,-4.3114,-4.229,-4.2131,-4.0545,-3.9354,-3.9255,-3.8709,-3.8158,-3.775,-3.7495,-3.701,-3.6234,-3.6025,-3.5055,-3.3121,-3.2039,-3.0554,-2.8629,-2.7547,-2.6749,-2.6263,-2.6263,-2.6263,-2.6263,-2.6263,-2.6263,-6.5906,-6.8034,-6.9971,-6.9971,-6.997,-6.9054,-6.5612,0.0,0.0,0.0,0.0,-4.9313,-4.7565,0.0,0.0,0.0,0.0,0.0,0.0,0.0,0.0,0.0,0.0,0.0,0.0,0.0,0.0,0.0,0.0,-7.991,-7.9879,-7.9906,-7.9863,-7.9785,-7.8921,-7.7298,-7.484,-7.3976,-7.2288,-6.9799,-6.9718,-6.9639,-6.9603,-6.9581,-6.9509,-6.9393,-6.9101,0.0,-6.8636,-6.8137,-6.7855,-6.7706,-6.743,-6.7323,-6.7203,-6.6966,-6.6521,-6.5987,-6.5379,-6.4777,-6.4223,-6.4223,-6.3856,-6.3243,-6.2493,-5.9968,-5.7055,-5.5647,-5.3051,-5.0568,-4.9735,-4.9399,-4.925,-4.9106,-4.8987,-4.8835,-4.8804,-4.8275,-4.7579,-4.6937,-4.657,-4.6186,-4.5683,-4.5386,-4.52,-4.4913,-4.3681,-4.2758,-4.2758,-4.1804,-4.088,-4.0304,-3.9525,-3.8809,-3.8107,-3.7852,-3.7393,-3.6598,-3.6286,-3.5553,-3.4148,-3.2533,-3.102,-2.9596,-2.801,-2.6924,-2.6263,-2.6263,-2.6263,-2.6263,-2.6263,-2.6263,-6.663,-6.8452,-6.9971,-6.9971,-6.9971,-6.9514,-6.7831,-6.5311,0.0,0.0,0.0,-5.3503,-5.2658,-5.5695,0.0,-6.2278,0.0,0.0,0.0,0.0,-7.7829,0.0,0.0,0.0,0.0,0.0,0.0,0.0,0.0,-7.9903,-7.9903,-7.9903,-7.9888,-7.989,-7.9812,-7.8316,-7.5323,-7.4998,-7.3276,-7.0217,-6.9924,-6.9724,-6.9611,-6.9603,-6.9581,-6.9571,-6.9307,0.0,-6.9078,-6.8485,-6.8117,-6.7944,-6.7589,-6.7385,-6.7302,-6.7245,-6.6944,-6.6427,-6.5987,-6.5352,-6.4741,-6.4741,-6.4123,-6.3137,-6.166,-5.9516,-5.7118,-5.4888,-5.2633,-5.0777,-5.0129,-4.9657,-4.9367,-4.9367,-4.9362,-4.9287,-4.9206,-4.8956,-4.8407,-4.738,-4.7008,-4.6682,-4.6115,-4.5683,-4.5386,-4.5386,-4.417,-4.3186,-4.3095,-4.2868,-4.2316,-4.1166,-4.0304,-3.9525,-3.8734,-3.8283,-3.7777,-3.7113,-3.6598,-3.6025,-3.5364,-3.31,-3.1541,-3.0909,-2.8568,-2.7041,-2.6439,-2.6321,-2.6263,-2.6263,-2.6263,-2.6263,-6.5187,-6.7579,-6.9971,-6.9971,-6.9971,-6.9514,-6.7831,-6.7104,-6.5394,-6.0534,0.0,0.0,-5.3265,0.0,-6.2147,-6.3939,0.0,-7.5098,-7.8138,-7.9128,-7.9565,-7.9565,-7.9755,-7.9906,-7.9906,-7.9906,-7.9906,-7.9906,-7.9881,-7.9881,-7.9881,-7.9881,-7.9886,-7.9898,-7.9871,-7.8974,-7.707,-7.5586,-7.3875,-7.1968,-7.047,-6.9774,-6.9736,-6.9656,-6.9581,-6.9571,-6.9307,0.0,-6.8835,-6.8393,-6.8088,-6.7817,-6.7583,-6.7426,-6.7405,-6.7302,-6.6944,-6.6474,-6.6403,-6.567,-6.4741,-6.4741,-6.4249,-6.3397,-6.1726,-5.9961,-5.805,-5.5706,-5.3462,-5.1554,-5.0811,-4.9998,-4.9367,-4.9367,-4.9626,-4.9704,-4.925,-4.9657,-4.9772,-4.8735,-4.7619,-4.6845,-4.6734,-4.6199,-4.578,-4.578,-4.53,-4.4783,-4.4318,-4.3412,-4.2501,-4.1898,-4.1166,-4.0327,-3.9525,-3.9452,-3.8859,-3.7699,-3.7137,-3.6598,-3.6077,-3.3772,-3.2245,-3.1596,-2.9236,-2.7739,-2.7058,-2.6497,-2.6263,-2.6263,-2.6263,-2.6263,-6.5832,-6.811,-6.9969,-6.9971,-6.997,-6.9779,-6.9058,-6.8862,-6.7986,-6.4803,-6.4875,0.0,0.0,0.0,0.0,0.0,0.0,0.0,-7.6308,-7.6926,-7.7754,0.0,-7.9906,0.0,-7.9906,-7.9906,-7.9906,0.0,-7.9906,-7.9906,-7.9906,-7.9906,-7.9906,-7.9906,-7.9906,-7.9557,-7.8766,-7.6153,-7.3994,-7.2286,-7.0614,-6.9788,-6.9774,-6.9736,-6.9656,-6.9611,0.0,-6.9277,-6.9009,-6.8701,-6.8367,-6.8037,-6.7779,-6.7583,-6.7462,-6.7385,-6.716,-6.6863,-6.6591,-6.6149,-6.566,-6.5352,-6.4777,-6.3684,-6.0898,-5.9393,-5.8064,-5.4912,-5.3276,-5.2174,-5.1051,-5.0428,-5.0066,-4.9694,-4.9913,-5.0057,-4.9615,-4.9944,-5.0161,-4.9473,-4.8583,-4.7698,-4.6937,-4.6641,-4.6282,-4.5906,-4.5556,-4.5243,-4.4999,-4.423,-4.3412,-4.2501,-4.1851,-4.1166,-4.0375,-3.9916,-3.9304,-3.8409,-3.7448,-3.6701,-3.6182,-3.4385,-3.2848,-3.1687,-2.986,-2.8356,-2.7233,-2.6556,-2.6263,-2.6263,-2.6263,-2.6263,-6.6095,-6.7986,-6.9383,-6.9808,-6.9914,-6.9869,-6.9926,-6.9931,-6.9591,-6.8337,-6.8717,-6.8526,0.0,0.0,0.0,-6.8349,-6.9634,0.0,-7.536,-7.5952,0.0,-7.9495,0.0,-7.9798,-7.9798,-7.9798,0.0,0.0,-7.9856,-7.9906,-7.9906,-7.9906,-7.9906,-7.9906,-7.9906,-7.9906,-7.9906,-7.7373,-7.5038,-7.2951,-7.0808,-6.9765,-6.9799,-6.9774,-6.9691,-6.9596,-6.9611,-6.9448,-6.9166,-6.8985,-6.8659,-6.8238,-6.8019,-6.7779,-6.7543,-6.7466,-6.7385,-6.726,-6.6877,-6.6614,-6.6427,-6.6037,-6.5334,-6.392,-6.0413,-5.911,-5.8045,-5.4371,-5.3137,-5.2679,-5.1588,-5.0984,-5.0638,-5.0273,-5.0308,-5.0447,-5.0125,-5.0304,-5.0411,-5.0012,-4.9436,-4.869,-4.7569,-4.7059,-4.6682,-4.6199,-4.5725,-4.5414,-4.5329,-4.487,-4.4142,-4.3168,-4.262,-4.1991,-4.1213,-4.0401,-3.9721,-3.9131,-3.7855,-3.6908,-3.639,-3.4971,-3.3501,-3.1948,-3.048,-2.8969,-2.7448,-2.6807,-2.638,-2.6263,-2.6263,-2.6263,-6.4877,-6.6108,-6.777,-6.9408,-6.9722,-6.9646,-6.9783,-6.9821,-6.9787,-6.9831,-6.8554,-6.7356,0.0,0.0,-6.7995,-7.1013,-7.2824,-7.505,-7.8568,-7.9187,-7.9318,0.0,0.0,0.0,0.0,0.0,0.0,-7.9528,0.0,-7.9906,-7.9906,-7.9906,-7.9906,-7.9906,-7.9906,-7.9906,-7.9906,-7.9723,-7.7967,-7.4678,-7.1357,-6.9765,-6.9799,-6.9793,-6.9718,-6.9603,-6.9596,-6.9445,-6.9215,-6.9166,-6.8861,-6.8426,-6.8275,-6.8073,-6.7796,-6.7543,-6.7426,-6.7426,-6.7405,-6.7009,-6.6474,-6.645,-6.566,-6.4115,-6.0981,-5.9593,-5.8396,-5.509,-5.3649,-5.3013,-5.2836,-5.1752,-5.0811,-5.1184,-5.108,-5.0905,-5.0871,-5.0871,-5.0801,-5.0379,-4.998,-4.9504,-4.8842,-4.7658,-4.6845,-4.6804,-4.624,-4.5725,-4.5329,-4.487,-4.4346,-4.3888,-4.3394,-4.2804,-4.1991,-4.1213,-4.0423,-3.9648,-3.8383,-3.7444,-3.6908,-3.5531,-3.4062,-3.2616,-3.1096,-2.9577,-2.8126,-2.7507,-2.6866,-2.6263,-2.6263,-2.6263,-6.5922,-6.6863,-6.7651,-6.9253,-6.956,-6.9464,-6.9545,-6.9583,-6.9684,-6.9711,-7.0077,-7.0389,-7.0439,-7.0185,-7.0333,-7.1448,-7.1227,-7.1764,-7.4087,-7.5575,-7.6737,-7.7622,-7.8789,0.0,0.0,0.0,0.0,-7.9466,-7.9598,-7.9726,-7.9906,-7.9906,-7.9906,-7.9906,-7.9906,-7.9906,-7.9906,-7.9906,-7.8204,-7.4786,-7.1411,-6.9795,-6.9803,-6.98,-6.9781,-6.9718,-6.9625,-6.952,-6.9445,-6.9287,-6.9078,-6.8873,-6.8492,-6.8242,-6.8036,-6.7798,-6.7583,-6.7446,-6.7446,-6.7302,-6.7031,-6.6614,-6.5295,-6.3391,-6.0934,-5.9041,-5.7245,-5.5096,-5.4142,-5.3678,-5.3137,-5.2237,-5.1454,-5.1353,-5.1114,-5.094,-5.094,-5.1045,-5.1011,-5.045,-5.0233,-4.998,-4.9473,-4.869,-4.7816,-4.6937,-4.6652,-4.6282,-4.5725,-4.53,-4.4826,-4.4346,-4.3904,-4.3394,-4.2804,-4.159,-4.0711,-4.0423,-3.8709,-3.7495,-3.6959,-3.613,-3.4705,-3.2691,-3.1727,-3.0199,-2.8184,-2.7507,-2.6866,-2.6263,-2.6263,-2.6263,-6.5415,0.0,-6.7425,-6.8418,-6.9005,-6.9326,-6.9361,-6.9452,-6.9488,-6.9522,-7.0378,-7.1137,-7.1197,-7.1041,-7.0858,-7.0758,-6.9822,-6.9745,-7.1478,-7.3301,-7.5009,-7.6546,-7.8288,0.0,0.0,0.0,0.0,-7.9356,-7.9431,-7.959,-7.974,-7.9856,-7.9906,-7.9906,-7.9906,-7.9906,-7.9906,-7.9338,-7.7602,-7.4799,-7.1985,-7.0312,-6.9775,-6.9776,-6.9768,-6.9793,-6.9691,-6.9618,-6.9551,-6.9392,-6.9277,-6.9145,-6.8795,-6.8522,-6.8275,-6.8055,-6.7817,-6.7583,-6.7543,-6.7503,-6.7364,-6.6863,-6.5321,-6.3237,-6.1161,-5.8998,-5.6852,-5.5116,-5.4455,-5.4176,-5.362,-5.2833,-5.2175,-5.1916,-5.152,-5.125,-5.125,-5.1251,-5.1184,-5.0734,-5.0486,-5.0269,-4.998,-4.9473,-4.8766,-4.7688,-4.733,-4.7048,-4.66,-4.5809,-4.5157,-4.4826,-4.439,-4.3932,-4.3485,-4.1985,-4.1045,-4.0854,-3.9032,-3.7675,-3.6959,-3.6598,-3.5395,-3.3163,-3.241,-3.0984,-2.8912,-2.801,-2.7216,-2.6556,-2.6321,-2.6263,0.0,0.0,-6.689,-6.6822,-6.7921,-6.9093,-6.9246,-6.9208,-6.9181,-6.9364,-6.9279,-6.9219,-6.9364,-6.9263,-6.9184,-6.9184,-6.9111,-6.9684,-7.1406,-7.3018,-7.4659,-7.6324,-7.8013,-7.9027,0.0,-7.9064,-7.9102,-7.9115,-7.9336,-7.9474,-7.9512,-7.9733,-7.9862,-7.9868,-7.9868,-7.9906,-7.9906,-7.8208,-7.6504,-7.4799,-7.3117,-7.1405,-6.9776,-6.9775,-6.9769,-6.9799,-6.98,-6.9722,-6.9603,-6.9595,-6.9439,-6.9225,-6.9215,-6.8873,-6.8442,-6.8287,-6.8053,-6.7815,-6.7719,-6.7527,-6.7353,-6.725,-6.5737,-6.3616,-6.1614,-5.9432,-5.7243,-5.5243,-5.4565,-5.44,-5.4267,-5.3566,-5.2866,-5.2866,-5.2398,-5.1883,-5.1916,-5.162,-5.1319,-5.1319,-5.0804,-5.0344,-5.034,-5.0017,-4.9578,-4.8918,-4.8267,-4.7837,-4.7837,-4.6352,-4.5329,-4.5286,-4.487,-4.439,-4.396,-4.2493,-4.1397,-4.0854,-3.9353,-3.8006,-3.701,-3.6908,-3.6002,-3.4062,-3.3108,-3.1858,-3.0329,-2.8912,-2.7855,-2.7175,-2.6573,-2.6263,-6.4128,0.0,0.0,-6.4768,-6.5305,-6.5824,-6.7037,-6.7321,-6.7715,-6.8973,-6.9202,-6.9217,-6.9236,-6.9135,-6.9072,-6.9072,-6.9968,-7.0491,-6.9847,-7.2246,-7.4197,-7.4553,-7.6209,-7.7248,-7.7137,-7.8171,-7.8916,-7.9102,-7.9177,-7.9257,-7.9346,-7.9433,-7.9507,-7.9606,-7.9606,-7.9681,-7.9906,-7.8208,-7.6504,-7.4837,-7.3127,-7.1429,-6.9776,-6.978,-6.9781,-6.9789,-6.9774,-6.978,-6.9722,-6.9611,-6.9555,-6.9457,-6.9277,-6.8997,-6.8687,-6.8659,-6.8298,-6.7836,-6.7815,-6.6911,-6.5768,-6.5723,-6.3424,-6.0531,-5.9954,-5.8093,-5.6051,-5.549,-5.495,-5.4537,-5.44,-5.3673,-5.3077,-5.3265,-5.2587,-5.1982,-5.2273,-5.2014,-5.1653,-5.1386,-5.1184,-5.0908,-5.0415,-5.0269,-5.0017,-4.9578,-4.8918,-4.8314,-4.7876,-4.7008,-4.6145,-4.5372,-4.5157,-4.4768,-4.3977,-4.2493,-4.1397,-4.0854,-3.9353,-3.8208,-3.7546,-3.7113,-3.6182,-3.4652,-3.3326,-3.1858,-3.0329,-2.8912,-2.7855,-2.7175,-2.6573,-2.6263,-5.9676,0.0,0.0,0.0,-5.9543,-6.0083,-6.4446,-6.4407,-6.4391,-6.7425,-6.8062,-6.8287,-6.8999,-6.9072,-6.9006,0.0,-6.9754,-7.0053,-6.9156,-7.1271,-7.2907,-7.281,-7.3729,-7.4655,-7.5278,-7.6811,-7.7805,-7.7969,-7.8687,-7.9166,-7.9237,-7.9279,-7.9336,-7.9424,-7.9486,-7.925,-7.8704,-7.7085,-7.5443,-7.3777,-7.2073,-7.074,-6.9773,-6.9795,-6.978,-6.9794,-6.9795,-6.98,-6.978,-6.9634,-6.9595,-6.9571,-6.943,-6.916,-6.8809,-6.8809,-6.85,-6.7943,-6.7064,-6.6087,-6.5094,-6.4318,-6.2092,-5.9632,-5.9372,-5.783,-5.608,-5.5717,-5.5284,-5.4879,-5.4557,-5.4023,-5.3561,-5.3532,-5.3083,-5.2621,-5.2498,-5.2369,-5.2111,-5.1653,-5.1453,-5.115,-5.0662,-5.0482,-5.0269,-5.0017,-4.9293,-4.8652,-4.8236,-4.741,-4.6641,-4.6019,-4.5683,-4.5257,-4.455,-4.2877,-4.1652,-4.1161,-3.95,-3.8158,-3.7444,-3.7062,-3.6182,-3.4492,-3.3272,-3.1858,-3.0329,-2.8912,-2.7855,-2.7175,-2.6573,-2.6263,0.0,0.0,0.0,-5.267,-5.2113,-5.2854,0.0,0.0,-5.9325,-6.4134,-6.5256,-6.5954,-6.7848,-6.8334,-6.8483,-6.8707,-6.9006,-6.9193,-6.9044,-7.0352,-7.1324,-7.1324,-7.1511,-7.2235,-7.3693,-7.5563,-7.6587,-7.64,-7.8054,-7.9063,-7.9076,-7.8976,-7.9031,-7.9241,-7.9207,-7.8449,-7.6968,-7.5519,-7.3949,-7.2289,-7.059,-6.98,-6.9768,-6.978,-6.9799,-6.9781,-6.9765,-6.9767,-6.9774,-6.9632,-6.9581,-6.9587,-6.9579,-6.9174,-6.8586,-6.8586,-6.8272,-6.7598,-6.5753,-6.4948,-6.4508,-6.2892,-6.128,-5.9889,-5.9282,-5.8122,-5.6778,-5.5895,-5.5523,-5.5319,-5.4746,-5.4428,-5.4182,-5.38,-5.3712,-5.3477,-5.275,-5.2622,-5.2524,-5.1981,-5.162,-5.1285,-5.1043,-5.0662,-5.0411,-5.0344,-4.9515,-4.888,-4.8773,-4.7728,-4.6927,-4.6845,-4.624,-4.5725,-4.5329,-4.3347,-4.1905,-4.1397,-3.95,-3.7956,-3.6908,-3.6753,-3.5793,-3.4009,-3.2924,-3.1692,-3.0329,-2.8798,-2.7797,-2.7175,-2.6573,-2.607,0.0,0.0,0.0,0.0,0.0,0.0,0.0,0.0,-5.2147,-5.5859,-5.7627,-5.9422,-6.2514,-6.4084,-6.5393,-6.6739,-6.9169,-7.0427,-6.9193,-7.0352,-7.1324,-7.1324,-7.2534,-7.3506,-7.3843,-7.655,-7.7746,-7.6512,-7.7783,-7.868,-7.8815,-7.7432,-7.7327,-7.877,-7.7726,-7.7006,-7.6674,-7.5356,-7.3836,-7.2149,-7.0524,-6.98,-6.9768,-6.978,-6.9779,-6.9795,-6.98,-6.9776,-6.9753,-6.9642,-6.9596,-6.9588,-6.9595,-6.8573,-6.7099,-6.7099,-6.5917,-6.429,-6.3901,-6.2717,-6.1364,-6.0981,-5.9665,-5.8206,-5.8081,-5.7548,-5.684,-5.6234,-5.5848,-5.5434,-5.4773,-5.4592,-5.451,-5.431,-5.4023,-5.3673,-5.3208,-5.2903,-5.2524,-5.1981,-5.1851,-5.1653,-5.1285,-5.1011,-5.0697,-5.0379,-4.9908,-4.9393,-4.888,-4.8081,-4.741,-4.6927,-4.624,-4.5725,-4.5329,-4.3104,-4.1208,-4.0111,-3.8659,-3.7448,-3.6505,-3.5666,-3.4661,-3.3567,-3.1742,-3.0629,-3.0329,-2.8338,-2.7349,-2.7175,-2.6573,-2.4856,0.0,0.0,0.0,0.0,0.0,0.0,0.0,0.0,0.0,0.0,0.0,-5.297,0.0,0.0,-6.1032,-6.3474,-6.67,-6.8646,-6.7861,-6.9119,-7.0165,-7.0165,-7.1623,-7.2609,-7.2609,-7.56,-7.7178,-7.628,-7.7657,-7.8503,-7.8449,-7.7704,-7.7609,-7.8424,-7.804,-7.7024,-7.526,-7.4694,-7.325,-7.0873,-7.0921,-7.0556,-6.9805,-7.065,-7.0576,-6.9779,-6.9781,-6.9795,-6.9794,-6.9703,-6.9639,-6.952,-6.872,-6.7298,-6.569,-6.5485,-6.4696,-6.3611,-6.2585,-6.1551,-6.0575,-5.9592,-5.865,-5.7905,-5.7854,-5.7643,-5.7332,-5.6829,-5.6517,-5.6171,-5.5339,-5.5147,-5.514,-5.48,-5.455,-5.4297,-5.3847,-5.3414,-5.2931,-5.2367,-5.2078,-5.1785,-5.1386,-5.1184,-5.1045,-5.0839,-5.0379,-4.9803,-4.9187,-4.8353,-4.7087,-4.5191,-4.4403,-4.3679,-4.2812,-4.1643,-4.0679,-4.0083,-3.816,-3.6476,-3.5155,-3.4137,-3.2949,-3.1521,-3.0461,-2.9331,-2.8072,-2.6698,-2.5598,-2.4738,-2.4142,-2.2929,0.0,0.0,0.0,0.0,0.0,0.0,0.0,0.0,0.0,0.0,0.0,0.0,0.0,0.0,0.0,-5.9368,-6.3261,-6.6028,-6.6403,-6.7584,-6.8551,-6.885,-7.0269,-7.1254,-7.1254,-7.398,-7.5727,-7.551,-7.7004,-7.7978,-7.8153,-7.8018,0.0,-7.8098,-7.8343,-7.7099,-7.4286,-7.4208,-7.2755,-6.9957,0.0,0.0,-6.9778,-7.1196,-7.1057,-6.9797,-6.977,-6.978,-6.9797,-6.9782,-6.9729,-6.9484,-6.7889,-6.6243,-6.466,-6.4014,-6.3529,-6.2942,-6.1233,-6.0573,-6.0275,-5.8641,-5.8144,-5.8112,-5.7992,-5.7959,0.0,-5.7295,-5.7065,-5.6778,-5.5824,-5.5634,-5.5593,-5.5166,-5.5037,-5.4923,-5.4446,-5.3961,-5.3414,-5.2866,-5.2367,-5.1916,-5.152,-5.1386,-5.1221,-5.0929,-5.0678,-5.0074,-4.9076,-4.836,-4.6872,-4.4164,-4.322,-4.2246,-4.0968,-4.0081,-3.979,-4.0269,-3.7233,-3.4614,-3.283,-3.19,-3.0489,-2.8494,-2.8141,-2.7115,-2.5362,-2.4575,-2.3469,-2.2116,-2.0158,-1.9335,0.0,0.0,0.0,0.0,0.0,0.0,0.0,0.0,0.0,0.0,0.0,0.0,0.0,0.0,0.0,0.0,-5.9914,-6.4487,-6.624,-6.6449,-6.6906,-6.8334,-6.997,-7.1011,-7.1011,-7.2626,-7.3613,-7.36,-7.4946,-7.6467,-7.8061,0.0,0.0,0.0,0.0,-7.5993,-7.5604,-7.4473,-7.3047,-7.1298,-7.0339,-6.9776,-6.9639,-6.9918,-6.9957,-6.9788,-6.9797,-6.9786,-6.9799,-6.9802,-6.9787,-6.9583,-6.7929,-6.6222,-6.4553,-6.2997,-6.1342,-5.9778,-5.9317,0.0,0.0,-5.8282,-5.814,-5.8128,-5.8112,-5.8009,-5.7802,-5.7328,-5.6819,-5.6314,-5.573,-5.5434,-5.5278,-5.5226,-5.5166,-5.5114,-5.4819,-5.4345,-5.3784,-5.3133,-5.2771,-5.243,-5.1916,-5.1554,-5.0896,-4.9628,-5.0271,-5.0041,-4.7786,-4.8001,-4.7851,-4.6591,0.0,0.0,-4.3122,-3.9388,-3.7891,-3.9642,-3.5003,-3.1217,-2.9074,-2.8137,-2.6645,-2.4595,-2.3196,-2.2884,-2.3589,-2.2386,-2.1659,-2.1306,-1.4639,-1.1903,0.0,0.0,0.0,0.0,0.0,0.0,0.0,0.0,0.0,0.0,0.0,0.0,0.0,0.0,0.0,0.0,-5.4674,-5.816,-5.883,-6.124,-6.3552,-6.5292,-6.7847,-6.9476,-6.9476,-7.178,-7.3232,-7.3168,-7.3726,-7.4318,-7.4946,-7.4392,-7.4798,-7.6324,-7.6022,-7.5314,-7.4262,-7.3855,-7.2422,-6.9972,-7.0626,-7.0456,-6.9625,-7.0745,-7.0709,0.0,-6.9783,-6.9774,-6.9779,-6.9781,-6.9191,0.0,0.0,0.0,0.0,0.0,-6.0237,-5.9501,-5.9196,-5.8943,-5.8697,-5.843,-5.8218,-5.8103,-5.8103,-5.8071,-5.7969,-5.7783,-5.7498,-5.712,-5.6358,-5.6216,-5.608,-5.5533,-5.5544,-5.5593,-5.5324,-5.4749,-5.4151,-5.3726,-5.3107,0.0,-5.1981,-5.1752,-5.1457,-5.0867,-5.0996,-5.0581,-4.9024,-4.8559,-4.7441,-4.497,-4.3683,-4.2349,-4.0678,-3.8559,0.0,0.0,0.0,-3.3145,-3.1377,-2.9491,0.0,0.0,0.0,0.0,0.0,0.0,0.0,0.0,-0.9292,-0.8048,0.0,0.0,0.0,0.0,0.0,0.0,0.0,0.0,0.0,0.0,0.0,0.0,0.0,0.0,0.0,0.0,0.0,-5.2133,-5.1862,-5.569,-5.912,-6.0954,-6.4478,-6.6468,-6.5733,-6.8551,-7.0781,-7.1581,-7.1637,-7.1969,-7.2664,-7.2892,-7.3446,-7.4506,-7.4818,-7.4355,-7.3097,-7.2807,-7.1561,-6.9404,-7.0562,-7.0551,-6.9542,-7.0979,-7.0969,-6.9768,-6.9799,-6.9521,-6.907,-6.9084,-6.811,-6.6355,-6.3513,-6.2097,-6.156,-6.0177,-5.9672,-5.9626,-5.9397,-5.9157,-5.8954,-5.8697,-5.8444,-5.8218,-5.8218,-5.8193,-5.8098,-5.8119,-5.7939,-5.7534,-5.6885,-5.6757,-5.661,-5.5966,-5.5907,-5.5931,-5.5836,-5.5173,-5.4508,-5.4151,-5.3494,-5.2866,-5.2398,-5.2078,-5.1752,-5.1357,-5.1424,0.0,-4.9317,-4.8764,-4.7404,-4.4271,-4.2933,-4.1524,-3.9662,-3.8119,-3.7614,-3.8438,-3.5592,-3.3664,-3.3019,-2.9359,-2.5108,-2.0428,-1.692,-1.4133,0.0,0.0,0.0,0.0,0.0,0.0,0.0,0.0,0.0,0.0,0.0,0.0,0.0,0.0,0.0,0.0,0.0,0.0,0.0,0.0,0.0,0.0,0.0,0.0,-4.7831,-5.0754,-5.3631,-5.5443,-5.9762,-6.1536,-5.8888,-6.1469,-6.4597,-6.7745,-6.8021,-6.9385,-7.2517,-7.2701,-7.2738,-7.2775,-7.2775,-7.2891,-7.3097,-7.1488,-7.0741,-7.0867,-6.9672,-6.9134,-6.9208,-6.9686,-6.9854,-6.98,-6.9768,-6.8859,-6.7316,-6.7325,-6.6404,-6.4811,-6.3077,-6.1371,-5.9911,-5.9742,-5.9689,-5.9652,-5.9385,-5.928,-5.9243,-5.8965,-5.871,-5.8476,-5.8476,-5.83,-5.8135,-5.8108,-5.7659,-5.7164,-5.7137,-5.6751,-5.6377,-5.6355,-5.6164,-5.6048,-5.6314,-5.5739,-5.4976,-5.4338,-5.4011,-5.3702,-5.3477,-5.2556,-5.1423,-5.0011,-5.1029,0.0,-4.7358,-4.8105,-4.8161,-4.5998,-4.4986,-4.3798,-4.2232,-3.832,-3.6726,-3.8389,-3.298,-3.0381,-3.1877,-2.5315,-2.039,-1.7655,-1.1497,-0.8192,-0.7976,0.0,0.0,0.0,0.0,0.0,0.0,0.0,0.0,0.0,0.0,0.0,0.0,0.0,0.0,0.0,0.0,0.0,0.0,0.0,0.0,0.0,0.0,0.0,0.0,0.0,-5.107,-5.192,-5.538,-5.647,-5.356,-5.7225,-6.0237,-6.1322,-6.3418,-6.5571,-6.7819,-6.6861,-6.7266,-6.9403,-6.9476,-6.9035,-6.8075,-6.9715,-6.9026,-6.5961,-6.7824,-6.8335,-6.7553,-6.8926,-6.9003,-6.8096,-6.8096,-6.7192,-6.5715,-6.5714,-6.4059,-6.1519,-6.0934,-6.0387,-5.9866,-5.981,-5.9738,-5.9664,-5.9575,-5.9525,-5.9501,-5.9029,-5.8595,-5.8263,-5.847,-5.8463,-5.8374,-5.8396,-5.8151,-5.7832,-5.7388,-5.7081,-5.6793,-5.6459,-5.631,-5.6222,-5.6153,-5.5907,-5.5569,-5.5002,-5.4324,-5.233,-4.7578,-4.9631,-5.0437,-4.6166,-4.9154,-5.1191,-4.9154,-4.8961,-4.8345,-4.6693,-4.5314,-4.3865,-4.2339,-4.0339,-3.8556,-3.7153,-3.3326,-3.0507,-2.9258,-2.3894,-1.9303,-1.5732,-1.0253,-0.6664,-0.5049,0.0,0.0,0.0,0.0,0.0,0.0,0.0,0.0,0.0,0.0,0.0,0.0,0.0,0.0,0.0,0.0,0.0,0.0,0.0,0.0,0.0,0.0,0.0,0.0,0.0,0.0,-4.9821,-5.1447,0.0,-4.909,-5.1231,-5.3031,-5.3716,-5.6263,-5.9019,-6.1908,-6.1454,-6.2631,-6.6013,-6.6033,-6.5518,-6.4614,-6.6765,-6.63,-6.3251,-6.5657,-6.6427,-6.5731,-6.701,-6.7125,-6.6381,-6.6392,-6.5525,-6.3973,-6.3362,-6.1468,-5.8968,-5.8987,-5.8625,-5.8124,-5.8725,-5.8934,-5.893,-5.9493,-5.9672,-5.9584,-5.9177,-5.7517,-5.5748,-5.5895,-5.4733,-5.3679,-5.5447,-5.5831,-5.5972,-5.7338,-5.7425,-5.7094,-5.6736,-5.6509,-5.6336,-5.6176,-5.6025,-5.5812,-5.5208,-5.4481,-5.1961,-4.5556,-4.6955,-4.786,-4.4724,-4.6905,-4.9074,-4.957,-4.9242,-4.8345,-4.6693,-4.5314,-4.3865,-4.2339,-4.137,-3.9548,-3.6533,-3.3536,-3.0226,-2.6595,-2.1848,-1.7131,-1.2436,-0.7829,-0.4256,0.0,0.0,0.0,0.0,0.0,0.0,0.0,0.0,0.0,0.0,0.0,0.0,0.0,0.0,0.0,0.0,0.0,0.0,0.0,0.0,0.0,0.0,0.0,0.0,0.0,0.0,0.0,-4.8659,-4.7815,0.0,0.0,0.0,0.0,-4.5353,-4.7132,-5.0223,-5.5034,-5.6385,-5.8675,-6.2332,-6.2232,-6.2306,-6.2718,-6.2902,-6.2902,-6.2735,-6.3262,-6.3613,-6.3806,-6.4168,-6.44,-6.4602,-6.4715,-6.3821,-6.2117,-6.0256,-5.8547,-5.707,-5.6805,-5.5726,-5.4533,-5.6298,-5.6899,-5.7077,-5.8808,-5.9374,-5.9221,-5.8816,-5.5214,-5.1025,-5.0764,-4.7455,0.0,0.0,-5.0717,-5.1739,-5.6667,-5.7365,-5.6864,-5.7101,-5.6745,-5.6381,-5.6381,-5.62,-5.5646,0.0,-5.3913,-5.1854,-4.6368,0.0,-4.3499,-4.48,-4.4182,-4.4805,-4.8247,-4.8833,-4.8191,-4.6086,-4.5014,-4.3821,-4.2339,-4.125,-3.9376,-3.6303,-3.3246,-2.9164,-2.3827,-1.8939,-1.366,-0.7941,-0.4074,0.0,0.0,0.0,0.0,0.0,0.0,0.0,0.0,0.0,0.0,0.0,0.0,0.0,0.0,0.0,0.0,0.0,0.0,0.0,0.0,0.0,0.0,0.0,0.0,0.0,0.0,-3.661,-4.0068,-4.3905,-4.2714,-4.0738,0.0,0.0,0.0,0.0,0.0,0.0,-4.8124,-4.7407,-4.9551,-5.5413,-5.5319,-5.6541,-5.9366,-6.157,-6.157,-5.9403,-6.1934,-6.2663,-6.1818,-6.3342,-6.3576,-6.2692,-6.2952,-6.2097,-6.0218,-5.6069,-5.4061,-5.3212,-4.9535,-4.7834,-4.7787,-5.0748,-5.1063,-5.0558,-5.4633,-5.5098,-5.3455,-5.0882,0.0,-4.7015,-4.3196,0.0,0.0,0.0,0.0,-4.6877,-5.1805,-5.2478,-5.2737,-5.6551,-5.6876,-5.6381,-5.6381,-5.6314,-5.4229,0.0,-4.5517,-4.2136,-3.2721,0.0,0.0,0.0,0.0,-4.3754,-4.4308,-4.7063,-4.8191,-4.6086,-4.4552,-4.3257,-4.2267,-3.9861,-3.6827,-3.3246,-2.9052,-2.4563,-1.9876,-1.4263,-0.9491,-0.5712,0.0,0.0,0.0,0.0,0.0,0.0,0.0,0.0,0.0,0.0,0.0,0.0,0.0,0.0,0.0,0.0,0.0,0.0,0.0,0.0,0.0,0.0,0.0,0.0,0.0,0.0,0.0,-3.2407,-3.674,-3.9975,-3.8031,-3.5888,0.0,0.0,0.0,0.0,0.0,0.0,0.0,0.0,0.0,-4.7436,-4.7456,-4.8742,-5.1539,-5.5485,-5.665,-5.5027,-5.8998,-6.0548,-5.9972,-6.1182,-6.1419,-6.0844,-6.1139,-5.9077,-5.5207,-5.2508,-5.0024,-4.7675,0.0,0.0,0.0,0.0,-4.6012,-4.5713,-4.9165,-4.9177,0.0,-4.5207,0.0,0.0,0.0,0.0,0.0,0.0,0.0,0.0,0.0,0.0,-5.1776,-5.4514,-5.4742,-5.4349,-5.4349,-5.138,-4.6888,0.0,-3.9259,-3.6329,-2.8279,0.0,0.0,0.0,0.0,-4.0517,-4.2711,-4.6511,-4.823,-4.624,-4.4465,-4.2686,-4.1145,-3.8242,-3.4752,-3.0784,-2.6027,-2.1169,-1.6268,-1.1337,-0.6975,0.0,0.0,0.0,0.0,0.0,0.0,0.0,0.0,0.0,0.0,0.0,0.0,0.0,0.0,0.0,0.0,0.0,0.0,0.0,0.0,0.0,0.0,0.0,0.0,0.0,0.0,0.0,0.0,0.0,-3.3146,-3.6225,0.0,0.0,0.0,0.0,0.0,0.0,0.0,0.0,0.0,0.0,0.0,0.0,0.0,-4.031,-4.2472,-4.7192,-4.957,-4.9672,-5.4092,-5.6298,-5.6542,-5.6805,-5.7287,-5.7904,-5.7669,0.0,-4.9679,-4.8709,0.0,0.0,0.0,0.0,0.0,0.0,0.0,0.0,0.0,0.0,0.0,0.0,0.0,0.0,0.0,0.0,0.0,0.0,0.0,0.0,0.0,0.0,-5.0566,-5.0803,-5.0913,-5.0609,0.0,-4.3067,-3.6929,-3.4297,-3.3544,0.0,0.0,0.0,0.0,0.0,0.0,0.0,-4.1889,-4.63,-4.8268,-4.6323,-4.435,-4.2155,-3.9518,-3.6417,-3.2757,-2.8412,-2.3275,-1.8049,-1.2789,-0.9148,0.0,0.0,0.0,0.0,0.0,0.0,0.0,0.0,0.0,0.0,0.0,0.0,0.0,0.0,0.0,0.0,0.0,0.0,0.0,0.0,0.0,0.0,0.0,0.0,0.0,0.0,0.0,0.0,0.0,0.0,0.0,0.0,0.0,0.0,0.0,0.0,0.0,0.0,0.0,0.0,0.0,0.0,0.0,0.0,0.0,0.0,0.0,0.0,0.0,0.0,-4.5025,-4.6105,-4.6182,-4.6435,-4.8089,-5.057,-4.6858,-4.6997,-4.9253,0.0,0.0,0.0,0.0,0.0,0.0,0.0,0.0,0.0,0.0,0.0,0.0,0.0,0.0,0.0,0.0,0.0,0.0,0.0,0.0,0.0,0.0,0.0,0.0,0.0,-4.5755,-4.4782,0.0,0.0,0.0,0.0,0.0,0.0,0.0,0.0,0.0,0.0,0.0,0.0,-3.805,-4.4617,-4.8053,-4.5551,-4.3532,-4.1312,-3.8736,-3.4274,-2.9701,-2.5079,-1.891,-1.3521,0.0,0.0,0.0,0.0,0.0,0.0,0.0,0.0,0.0,0.0,0.0,0.0,0.0,0.0,0.0,0.0,0.0,0.0,0.0,0.0,0.0,0.0,0.0,0.0,0.0,0.0,0.0,0.0,0.0,0.0,0.0,0.0,0.0,0.0,0.0,0.0,0.0,0.0,0.0,0.0,0.0,0.0,0.0,0.0,0.0,0.0,0.0,0.0,0.0,0.0,0.0,0.0,0.0,0.0,0.0,0.0,0.0,0.0,0.0,-3.6774,0.0,0.0,0.0,0.0,0.0,0.0,0.0,0.0,0.0,0.0,0.0,0.0,0.0,0.0,0.0,0.0,0.0,0.0,0.0,0.0,0.0,0.0,0.0,0.0,0.0,0.0,0.0,0.0,0.0,0.0,0.0,0.0,0.0,0.0,0.0,0.0,0.0,0.0,0.0,0.0,-3.6973,-4.398,-4.7664,-4.4985,-4.2497,-3.9805,-3.6627,-3.1598,-2.6465,-2.1503,-1.5706,0.0,0.0,0.0,0.0,0.0,0.0,0.0,0.0,0.0,0.0,0.0,0.0,0.0,0.0,0.0,0.0,0.0,0.0,0.0,0.0,0.0,0.0,0.0,0.0,0.0,0.0,0.0,0.0,0.0,0.0,0.0,0.0,0.0,0.0,0.0,0.0,0.0,0.0,0.0,0.0,0.0,0.0,0.0,0.0,0.0,0.0,0.0,0.0,0.0,0.0,0.0,0.0,0.0,0.0,0.0,0.0,0.0,0.0,0.0,-3.2573,0.0,0.0,0.0,0.0,0.0,0.0,0.0,0.0,0.0,0.0,0.0,0.0,0.0,0.0,0.0,0.0,0.0,0.0,0.0,0.0,0.0,0.0,0.0,0.0,0.0,0.0,0.0,0.0,0.0,0.0,0.0,0.0,0.0,0.0,0.0,0.0,0.0,0.0,0.0,0.0,0.0,-3.6365,-4.3244,-4.685,-4.4326,-4.1573,-3.8268,-3.4142,-2.8921,-2.3532,-1.7952,-1.2826,0.0,0.0,0.0,0.0,0.0,0.0,0.0,0.0,0.0,0.0,0.0,0.0,0.0,0.0,0.0,0.0,0.0,0.0,0.0,0.0,0.0,0.0,0.0,0.0,0.0,0.0,0.0,0.0,0.0,0.0,0.0,0.0,0.0,0.0,0.0,0.0,0.0,0.0,0.0,0.0,0.0,0.0,0.0,0.0,0.0,0.0,0.0,0.0,0.0,0.0,0.0,0.0,0.0,0.0,0.0,0.0,0.0,0.0,0.0,0.0,0.0,0.0,0.0,0.0,0.0,0.0,0.0,0.0,0.0,0.0,0.0,0.0,0.0,0.0,0.0,0.0,0.0,0.0,0.0,0.0,0.0,0.0,0.0,0.0,0.0,0.0,0.0,0.0,0.0,0.0,0.0,0.0,0.0,0.0,0.0,0.0,0.0,0.0,0.0,0.0,0.0,-3.4793,-4.1425,-4.5252,-4.3471,-4.102,-3.7248,-3.1741,-2.6853,-2.1303,-1.4663,0.0,0.0,0.0,0.0,0.0,0.0,0.0,0.0,0.0,0.0,0.0,0.0,0.0,0.0,0.0,0.0,0.0,0.0,0.0,0.0,0.0,0.0,0.0,0.0,0.0,0.0,0.0,0.0,0.0,0.0,0.0,0.0,0.0,0.0,0.0,0.0,0.0,0.0,0.0,0.0,0.0,0.0,0.0,0.0,0.0,0.0,0.0,0.0,0.0,0.0,0.0,0.0,0.0,0.0,0.0,0.0,0.0,0.0,0.0,0.0,0.0,0.0,0.0,0.0,0.0,0.0,0.0,0.0,0.0,0.0,0.0,0.0,0.0,0.0,0.0,0.0,0.0,0.0,0.0,0.0,0.0,0.0,0.0,0.0,0.0,0.0,0.0,0.0,0.0,0.0,0.0,0.0,0.0,0.0,0.0,0.0,0.0,0.0,0.0,0.0,0.0,0.0,-3.4334,-4.0915,-4.4467,-4.2333,-3.9415,-3.5632,-3.0871,-2.5267,-1.9565,-1.369,0.0,0.0,0.0,0.0,0.0,0.0,0.0,0.0,0.0,0.0,0.0,0.0,0.0,0.0,0.0,0.0,0.0,0.0,0.0,0.0,0.0,0.0,0.0,0.0,0.0,0.0,0.0,0.0,0.0,0.0,0.0,0.0,0.0,0.0,0.0,0.0,0.0,0.0,0.0,0.0,0.0,0.0,0.0,0.0,0.0,0.0,0.0,0.0,0.0,0.0,0.0,0.0,0.0,0.0,0.0,0.0,0.0,0.0,0.0,0.0,0.0,0.0,0.0,0.0,0.0,0.0,0.0,0.0,0.0,0.0,0.0,0.0,0.0,0.0,0.0,0.0,0.0,0.0,0.0,0.0,0.0,0.0,0.0,0.0,0.0,0.0,0.0,0.0,0.0,0.0,0.0,0.0,0.0,0.0,0.0,0.0,0.0,0.0,0.0,0.0,0.0,0.0,-3.3494,-3.9976,-4.3564,-4.1645,-3.8243,-3.4313,-2.9818,-2.4102,-1.8396,-1.2784,0.0,0.0,0.0,0.0,0.0,0.0,0.0,0.0,0.0,0.0,0.0,0.0,0.0,0.0,0.0,0.0,0.0,0.0,0.0,0.0,0.0,0.0,0.0,0.0,0.0,0.0,0.0,0.0,0.0,0.0,0.0,0.0,0.0,0.0,0.0,0.0,0.0,0.0,0.0,0.0,0.0,0.0,0.0,0.0,0.0,0.0,0.0,0.0,0.0,0.0,0.0,0.0,0.0,0.0,0.0,0.0,0.0,0.0,0.0,0.0,0.0,0.0,0.0,0.0,0.0,0.0,0.0,0.0,0.0,0.0,0.0,0.0,0.0,0.0,0.0,0.0,0.0,0.0,0.0,0.0,0.0,0.0,0.0,0.0,0.0,0.0,0.0,0.0,0.0,0.0,0.0,0.0,0.0,0.0,0.0,0.0,0.0,0.0,0.0,0.0,0.0,0.0,-3.1896,-3.813,-4.2143,-4.1473,-3.7921,-3.3449,-2.8265,-2.3512,-1.8005,0.0,0.0,0.0,0.0,0.0,0.0,0.0,0.0,0.0,0.0,0.0,0.0,0.0,0.0,0.0,0.0,0.0,0.0,0.0,0.0,0.0,0.0,0.0,0.0,0.0,0.0,0.0,0.0,0.0,0.0,0.0,0.0,0.0,0.0,0.0,0.0,0.0,0.0,0.0,0.0,0.0,0.0,0.0,0.0,0.0,0.0,0.0,0.0,0.0,0.0,0.0,0.0,0.0,0.0,0.0,0.0,0.0,0.0,0.0,0.0,0.0,0.0,0.0,0.0,0.0,0.0,0.0,0.0,0.0,0.0,0.0,0.0,0.0,0.0,0.0,0.0,0.0,0.0,0.0,0.0,0.0,0.0,0.0,0.0,0.0,0.0,0.0,0.0,0.0,0.0,0.0,0.0,0.0,0.0,0.0,0.0,0.0,0.0,0.0,0.0,0.0,0.0,0.0,-3.1784,-3.51,-3.8045,0.0,-3.692,-3.254,-2.8297,-2.3097,-1.7818,-1.2352,0.0,0.0,0.0,0.0,0.0,0.0,0.0,0.0,0.0,0.0,0.0,0.0,0.0,0.0,0.0,0.0,0.0,0.0,0.0,0.0,0.0,0.0,0.0,0.0,0.0,0.0,0.0,0.0,0.0,0.0,0.0,0.0,0.0,0.0,0.0,0.0,0.0,0.0,0.0,0.0,0.0,0.0,0.0,0.0,0.0,0.0,0.0,0.0,0.0,0.0,0.0,0.0,0.0,0.0,0.0,0.0,0.0,0.0,0.0,0.0,0.0,0.0,0.0,0.0,0.0,0.0,0.0,0.0,0.0,0.0,0.0,0.0,0.0,0.0,0.0,0.0,0.0,0.0,0.0,0.0,0.0,0.0,0.0,0.0,0.0,0.0,0.0,0.0,0.0,0.0,0.0,0.0,0.0,0.0,0.0,0.0,0.0,0.0,0.0,0.0,0.0,0.0,0.0,-3.4924,-3.7929,0.0,-3.6128,-3.2115,-2.8312,-2.3588,-1.8451,-1.2946,0.0,0.0,0.0,0.0,0.0,0.0,0.0,0.0,0.0,0.0,0.0,0.0,0.0,0.0,0.0,0.0,0.0,0.0,0.0,0.0,0.0,0.0,0.0,0.0,0.0,0.0,0.0,0.0,0.0,0.0,0.0,0.0,0.0,0.0,0.0,0.0,0.0,0.0,0.0,0.0,0.0,0.0,0.0,0.0,0.0,0.0,0.0,0.0,0.0,0.0,0.0,0.0,0.0,0.0,0.0,0.0,0.0,0.0,0.0,0.0,0.0,0.0,0.0,0.0,0.0,0.0,0.0,0.0,0.0,0.0,0.0,0.0,0.0,0.0,0.0,0.0,0.0,0.0,0.0,0.0,0.0,0.0,0.0,0.0,0.0,0.0,0.0,0.0,0.0,0.0,0.0,0.0,0.0,0.0,0.0,0.0,0.0,0.0,0.0,0.0,0.0,0.0,0.0,-3.6631,-4.0191,-3.8806,-3.5508,-3.1945,-2.8294,-2.4525,-1.9638,-1.3239,-1.1467,0.0,0.0,0.0,0.0,0.0,0.0,0.0,0.0,0.0,0.0,0.0,0.0,0.0,0.0,0.0,0.0,0.0,0.0,0.0,0.0,0.0,0.0,0.0,0.0,0.0,0.0,0.0,0.0,0.0,0.0,0.0,0.0,0.0,0.0,0.0,0.0,0.0,0.0,0.0,0.0,0.0,0.0,0.0,0.0,0.0,0.0,0.0,0.0,0.0,0.0,0.0,0.0,0.0,0.0,0.0,0.0,0.0,0.0,0.0,0.0,0.0,0.0,0.0,0.0,0.0,0.0,0.0,0.0,0.0,0.0,0.0,0.0,0.0,0.0,0.0,0.0,0.0,0.0,0.0,0.0,0.0,0.0,0.0,0.0,0.0,0.0,0.0,0.0,0.0,0.0,0.0,0.0,0.0,0.0,0.0,0.0,0.0,0.0,0.0,0.0,0.0,0.0,-3.2757,-3.3976,-3.7805,-3.4205,-3.0546,-2.8069,-2.445,-1.9638,-1.3239,-1.1467,0.0,0.0,0.0,0.0,0.0,0.0,0.0,0.0,0.0,0.0,0.0,0.0,0.0,0.0,0.0,0.0,0.0,0.0,0.0,0.0,0.0,0.0,0.0,0.0,0.0,0.0,0.0,0.0,0.0,0.0,0.0,0.0,0.0,0.0,0.0,0.0,0.0,0.0,0.0,0.0,0.0,0.0,0.0,0.0,0.0,0.0,0.0,0.0,0.0,0.0,0.0,0.0,0.0,0.0,0.0,0.0,0.0,0.0,0.0,0.0,0.0,0.0,0.0,0.0,0.0,0.0,0.0,0.0,0.0,0.0,0.0,0.0,0.0,0.0,0.0,0.0,0.0,0.0,0.0,0.0,0.0,0.0,0.0,0.0,0.0,0.0,0.0,0.0,0.0,0.0,0.0,0.0,0.0,0.0,0.0,0.0,0.0,0.0,0.0,0.0,0.0,0.0,-2.8281,-2.9904,-3.5062,-3.2242,-2.9116,-2.6857,-2.3722,-1.9425,-1.3571,-1.1688,0.0,0.0,0.0,0.0,0.0,0.0,0.0,0.0,0.0,0.0,0.0,0.0,0.0,0.0,0.0,0.0,0.0,0.0,0.0,0.0,0.0,0.0,0.0,0.0,0.0,0.0,0.0,0.0,0.0,0.0,0.0,0.0,0.0,0.0,0.0,0.0,0.0,0.0,0.0,0.0,0.0,0.0,0.0,0.0,0.0,0.0,0.0,0.0,0.0,0.0,0.0,0.0,0.0,0.0,0.0,0.0,0.0,0.0,0.0,0.0,0.0,0.0,0.0,0.0,0.0,0.0,0.0,0.0,0.0,0.0,0.0,0.0,0.0,0.0,0.0,0.0,0.0,0.0,0.0,0.0,0.0,0.0,0.0,0.0,0.0,0.0,0.0,0.0,0.0,0.0,0.0,0.0,0.0,0.0,0.0,0.0,0.0,0.0,0.0,0.0,0.0,0.0,0.0,-2.7156,-3.1035,-2.974,-2.7689,-2.5555,-2.2833,-1.9075,-1.3996,0.0,0.0,0.0,0.0,0.0,0.0,0.0,0.0,0.0,0.0,0.0,0.0,0.0,0.0,0.0,0.0,0.0,0.0,0.0,0.0,0.0,0.0,0.0,0.0,0.0,0.0,0.0,0.0,0.0,0.0,0.0,0.0,0.0,0.0,0.0,0.0,0.0,0.0,0.0,0.0,0.0,0.0,0.0,0.0,0.0,0.0,0.0,0.0,0.0,0.0,0.0,0.0,0.0,0.0,0.0,0.0,0.0,0.0,0.0,0.0,0.0,0.0,0.0,0.0,0.0,0.0,0.0,0.0,0.0,0.0,0.0,0.0,0.0,0.0,0.0,0.0,0.0,0.0,0.0,0.0,0.0,0.0,0.0,0.0,0.0,0.0,0.0,0.0,0.0,0.0,0.0,0.0,0.0,0.0,0.0,0.0,0.0,0.0,0.0,0.0,0.0,0.0,0.0,0.0,0.0,-2.5847,-2.6466,-2.6463,-2.5703,-2.2595,-1.8791,-1.4232,0.0,0.0,0.0,0.0,0.0,0.0,0.0,0.0,0.0,0.0,0.0,0.0,0.0,0.0]}],[{"header":{"parameterUnit":"kt","parameterCategory":2,"dx":1,"dy":1,"la1":29.285339999999998,"la2":30.599998999999997,"lo1":-89.70041500000002,"lo2":-87.6738589999976,"nx":112,"ny":82,"refTime":"2022-10-21T12:00:00:Z","depth":0,"parameterNumber":2,"parameterNumberName":"V-component_of_WINDS"},"data":[2.8744,2.8785,0.0,2.3152,2.2297,0.0,1.626,0.0,0.0,0.0,0.0,0.0,0.0,0.0,0.0,0.0,0.0,0.0,0.0,0.0,0.0,0.0,0.0,0.0,0.0,0.0,0.0,0.0,0.0,0.0,0.0,0.0,3.0323,3.1725,3.5216,3.7489,3.8195,3.9787,4.1391,4.2961,4.2961,4.4386,4.6995,4.7276,4.8057,4.9369,4.9907,5.012,5.012,5.028,5.0333,5.0333,5.0333,5.117,5.2471,5.2571,5.3941,5.5958,5.6831,5.5812,5.4204,5.4204,5.2518,5.0643,5.1046,5.1081,5.1004,5.1409,5.3424,5.5551,5.5553,5.7748,5.9826,5.9389,5.9031,5.858,5.8025,5.7096,5.6797,5.8017,5.9395,6.0757,6.1992,6.3481,6.421,6.3302,6.3496,6.4378,6.6106,6.6254,6.664,6.7745,6.7855,6.7781,6.7662,6.7405,6.743,6.7763,6.7782,6.8086,6.8745,6.876,6.8831,6.9006,6.9006,6.9006,6.9006,6.9059,6.9135,6.9215,6.9256,6.9326,0.0,0.0,2.5097,1.9712,0.0,0.0,0.0,0.0,0.0,0.0,0.0,0.0,0.0,0.0,0.0,0.0,0.0,0.0,0.0,0.0,0.0,0.0,0.0,0.0,0.0,0.0,0.0,0.0,0.0,0.0,0.0,2.8373,3.0505,3.2611,3.5006,3.6988,3.8515,3.984,4.1044,4.214,4.2284,4.3463,4.56,4.6263,4.7251,4.8414,4.945,4.988,4.996,5.0173,5.028,5.0333,5.0333,5.0989,5.1919,5.1919,5.2772,5.4182,5.5744,5.5289,5.3904,5.2959,5.1696,5.0423,4.9914,4.9757,4.9835,5.028,5.1763,5.3365,5.4177,5.6164,5.788,5.7717,5.7442,5.7019,5.6472,5.557,5.512,5.616,5.7619,5.896,5.9828,6.0343,6.0752,6.1104,6.1528,6.2672,6.5131,6.5426,6.6015,6.7671,6.7837,6.778,6.7643,6.7426,6.741,6.7613,6.7632,6.7928,6.861,6.864,6.8745,6.9006,6.9006,6.9006,6.9006,6.9006,6.9061,6.9198,6.9193,6.9277,0.0,0.0,0.0,1.713,0.0,0.0,0.0,0.0,1.3642,0.0,0.0,0.0,0.0,0.0,0.0,0.0,0.0,0.0,0.0,0.0,0.0,0.0,0.0,0.0,0.0,0.0,0.0,0.0,0.0,0.0,2.7004,2.8163,2.9969,3.2992,3.3605,3.5313,3.8338,3.9574,4.0343,4.0632,4.1004,4.182,4.3045,4.4562,4.592,4.7276,4.8797,4.9638,4.9907,4.996,5.012,5.0333,5.0333,5.0937,5.184,5.184,5.1868,5.2196,5.42,5.4985,5.4683,5.2012,5.1423,5.1587,5.0166,4.9757,4.9757,4.9757,5.0241,5.0948,5.1818,5.3777,5.5348,5.4737,5.587,5.6645,5.5154,5.4808,5.4808,5.4808,5.6854,5.8463,5.7942,5.7017,5.7055,5.9067,5.9599,6.1092,6.4746,6.537,6.605,6.7671,6.7855,6.7777,6.768,6.7543,6.7527,6.7649,6.7613,6.7928,6.8557,6.8588,6.873,6.9006,6.9006,6.9006,6.9006,6.9006,6.9048,6.9196,6.9198,6.9267,1.7402,0.0,0.0,0.0,0.0,0.0,0.0,0.0,0.0,0.0,0.0,0.0,0.0,0.0,0.0,0.0,0.0,0.0,0.0,0.0,0.0,0.0,0.0,0.0,0.0,0.0,0.0,0.0,0.0,0.0,2.6041,2.7455,2.9988,3.3922,3.4437,3.6163,3.9266,3.9671,4.0093,4.0632,4.0756,4.1575,4.2961,4.338,4.4327,4.5633,4.722,4.7891,4.8112,4.9396,5.0013,5.0067,5.028,5.0544,5.078,5.078,5.1249,5.1981,5.2341,5.3007,5.3395,5.166,5.0621,5.0011,4.9814,4.9757,4.9757,4.9757,5.0241,5.0813,5.1154,5.2564,5.3875,5.3789,5.4641,5.5328,5.4912,5.4808,5.4808,5.4808,5.571,5.6401,5.6255,5.6237,5.6465,5.7127,5.7591,5.9299,6.3112,6.3642,6.4745,6.7561,6.7855,6.7777,6.768,6.7543,6.7426,6.7369,6.7369,6.7611,6.8188,6.8205,6.8452,6.8993,6.9006,6.9006,6.9006,6.9006,6.9048,6.9196,6.9194,6.9236,0.0,0.0,0.0,0.0,0.0,0.0,1.252,0.0,1.2265,0.0,0.0,0.0,0.0,0.0,0.0,0.0,0.0,0.0,0.0,0.0,0.0,0.0,0.0,0.0,0.0,0.0,0.0,0.0,0.0,2.2478,2.583,2.7394,2.9717,3.3127,3.4229,3.5959,3.8471,3.9275,3.9905,4.0467,4.057,4.1167,4.2223,4.2744,4.338,4.4151,4.5633,4.663,4.7332,4.8388,4.9288,4.996,5.012,5.0173,5.0173,5.028,5.0755,5.1261,5.1454,5.1496,5.155,5.1795,5.1167,5.0187,4.9735,4.9689,4.9757,4.9757,5.0021,5.039,5.0744,5.1817,5.2891,5.3274,5.4067,5.4754,5.4781,5.4808,5.4808,5.4808,5.5233,5.5498,5.5309,5.5474,5.5694,5.5999,5.6503,5.8199,6.2063,6.2819,6.4213,6.7412,6.776,6.7719,6.7583,6.7462,6.7344,6.7281,6.7281,6.741,6.7689,6.7927,6.8287,6.8831,6.8966,6.9006,6.9006,6.9006,6.9059,6.9111,6.9172,6.9194,0.0,0.0,0.0,0.0,1.4087,0.0,0.0,0.0,0.0,0.0,0.0,0.0,0.0,0.0,0.0,0.0,0.0,0.0,0.0,0.0,0.0,0.0,0.0,0.0,0.0,0.0,0.0,2.6684,2.3531,2.2876,2.5943,2.734,2.9177,3.1629,3.3278,3.5069,3.6889,3.8556,3.9653,4.024,4.0467,4.0818,4.1251,4.2284,4.2744,4.2804,4.4092,4.5459,4.68,4.7108,4.8168,4.9665,4.9853,4.9907,5.0013,5.0227,5.0333,5.0457,5.1114,5.0471,4.9707,5.1763,5.1901,5.0955,4.9668,4.9473,4.972,4.9757,4.9757,4.9908,5.046,5.1355,5.227,5.2983,5.3904,5.4646,5.4754,5.4781,5.4781,5.4808,5.5157,5.5359,5.4887,5.4808,5.4984,5.5498,5.5976,5.7679,6.1539,6.252,6.4104,6.7313,6.7623,6.7583,6.7483,6.7344,6.7281,6.7281,6.7281,6.7281,6.7281,6.7726,6.8188,6.8625,6.8831,6.898,6.9006,6.9006,6.9006,6.9006,6.9111,6.9184,0.0,0.0,0.0,0.0,0.0,1.2547,0.0,0.0,0.0,0.0,0.0,0.0,0.0,0.0,0.0,0.0,0.0,0.0,0.0,0.0,0.0,0.0,0.0,0.0,0.0,0.0,2.575,2.3782,2.2895,2.3321,2.519,2.5829,2.7895,3.1561,3.2324,3.4048,3.6889,3.7277,3.8407,4.024,4.0302,4.0654,4.1189,4.1413,4.1536,4.1598,4.2804,4.3499,4.3974,4.6263,4.7445,4.7891,4.9124,4.9773,5.0013,5.0227,5.0333,5.038,5.0282,4.9857,4.9425,4.9659,4.9534,4.9259,4.898,4.9144,4.9473,4.972,4.9757,4.9793,4.9908,5.1013,5.211,5.227,5.3439,5.451,5.4619,5.4646,5.47,5.4781,5.4887,5.494,5.4808,5.4808,5.4984,5.5498,5.567,5.7286,6.1461,6.213,6.3611,6.7273,6.7563,6.7466,6.7446,6.7344,6.7281,6.7281,6.7281,6.7281,6.7281,6.7572,6.7999,6.8588,6.8686,6.8789,6.9006,6.9006,6.9006,6.9006,6.9033,6.9123,0.0,0.0,0.0,1.2122,0.0,0.0,0.0,0.0,0.0,0.0,0.0,0.0,0.0,0.0,0.0,0.0,0.0,0.0,0.0,0.0,0.0,0.0,0.0,0.0,0.0,0.0,2.6507,2.3834,2.2683,2.3044,2.5004,2.5275,2.6874,3.0228,3.1374,3.2778,3.4579,3.6175,3.7598,3.8853,3.9779,4.0467,4.0942,4.1128,4.1189,4.1273,4.1842,4.2405,4.3141,4.5228,4.6035,4.6206,4.7805,4.8961,4.98,5.0067,5.0227,5.0327,5.006,4.9695,4.9351,4.9062,4.8857,4.869,4.8766,4.9031,4.9324,4.9683,4.9757,4.9757,4.9757,5.0562,5.1521,5.1981,5.2955,5.3875,5.4393,5.4537,5.4565,5.47,5.47,5.4727,5.4781,5.4808,5.4914,5.5166,5.5374,5.6615,5.975,6.0336,6.1908,6.567,6.6076,6.6426,6.7271,6.7302,6.7281,6.7281,6.7281,6.7281,6.7281,6.7389,6.7649,6.8123,6.8426,6.8686,6.8803,6.8803,6.886,6.9006,6.9006,6.9046,0.0,0.0,0.0,0.0,0.0,0.0,0.0,1.4313,0.0,0.0,0.0,0.0,0.0,0.0,0.0,0.0,0.0,0.0,0.0,0.0,0.0,0.0,0.0,0.0,0.0,2.7546,2.6422,2.412,2.2322,2.2395,2.4705,2.4848,2.6126,2.8909,3.0434,3.1578,3.2274,3.4843,3.661,3.7514,3.9043,4.0008,4.057,4.0942,4.1066,4.1066,4.1189,4.1781,4.2744,4.3998,4.4679,4.5053,4.663,4.8165,4.9476,4.9827,5.012,5.0222,4.983,4.9551,4.9306,4.8846,4.8655,4.8606,4.8728,4.888,4.9206,4.9572,4.972,4.9757,4.9757,5.0245,5.0948,5.1621,5.2332,5.3073,5.3932,5.4164,5.4254,5.4537,5.4592,5.4646,5.4816,5.4808,5.4808,5.4808,5.5063,5.5971,5.7924,5.8544,6.0074,6.351,6.4378,6.5238,6.6613,6.702,6.7281,6.7281,6.7281,6.7281,6.7281,6.7281,6.7348,6.7572,6.814,6.8495,6.864,6.8542,6.8678,6.9006,6.9006,6.9006,0.0,0.0,0.0,0.0,0.0,0.0,1.9784,2.0468,0.0,0.0,0.0,0.0,0.0,0.0,0.0,0.0,0.0,0.0,0.0,0.0,0.0,0.0,0.0,0.0,0.0,2.5163,2.4807,2.2094,2.1018,2.1526,2.3918,2.4062,2.5559,2.8893,2.9486,3.0571,3.2274,3.293,3.4692,3.7514,3.7727,3.8705,4.0302,4.057,4.0694,4.0694,4.1066,4.1251,4.1497,4.2684,4.3855,4.5053,4.663,4.7946,4.9097,4.9746,4.996,4.9904,4.907,4.9019,4.9215,4.8147,4.8133,4.8606,4.8606,4.869,4.888,4.9137,4.9467,4.9757,4.9757,5.0245,5.0744,5.088,5.1455,5.2238,5.3043,5.3223,5.343,5.4282,5.4455,5.4537,5.4754,5.4808,5.4808,5.4808,5.4754,5.5453,5.7548,5.8052,5.9056,6.1338,6.3371,6.4633,6.4836,6.6316,6.7281,6.7281,6.7281,6.7281,6.7281,6.7281,6.7281,6.7286,6.7591,6.8017,6.864,6.8254,6.8399,6.9006,6.9006,6.9006,0.0,0.0,0.0,0.0,0.0,0.0,0.0,0.0,0.0,0.0,0.0,0.0,0.0,0.0,0.0,0.0,0.0,0.0,0.0,0.0,0.0,0.0,0.0,0.0,0.0,0.0,0.0,2.1018,2.0154,2.0154,2.109,2.29,2.5333,2.8529,2.9209,2.99,3.064,3.2121,3.3915,3.6025,3.7063,3.8323,3.9926,4.0405,4.0632,4.0632,4.1004,4.1189,4.1251,4.172,4.2647,4.3855,4.4503,4.6092,4.8002,4.8278,4.8618,4.8901,4.8516,4.8008,4.7463,4.6996,4.7266,4.7798,4.7798,4.8267,4.8842,4.8918,4.925,4.9578,4.972,4.9949,5.0245,5.0638,5.0983,5.1521,5.271,5.2955,5.3231,5.4148,5.4372,5.451,5.4673,5.4754,5.4816,5.47,5.4592,5.4881,5.589,5.6039,5.6918,5.9063,6.1279,6.3057,6.4095,6.6063,6.7281,6.7281,6.7281,6.7281,6.7281,6.7281,6.7281,6.7281,6.7369,6.7611,6.8071,6.8032,6.8168,6.843,6.8808,6.9006,1.0442,0.0,0.0,0.0,0.0,0.0,0.0,0.0,0.0,0.0,0.0,0.0,0.0,0.0,0.0,0.0,0.0,0.0,0.0,0.0,0.0,0.0,0.0,0.0,0.0,0.0,0.0,0.0,1.9569,1.9213,1.9213,2.225,2.5261,2.832,2.9139,2.9555,2.9555,3.1391,3.2997,3.4465,3.6025,3.7534,3.8937,4.0008,4.0508,4.053,4.1004,4.1128,4.1066,4.115,4.1881,4.2961,4.2961,4.4679,4.7164,4.722,4.7624,4.8041,4.7767,4.7037,4.6225,4.5887,4.6449,4.7239,4.7239,4.7955,4.8766,4.8773,4.8962,4.9256,4.9578,4.972,4.9871,5.0351,5.046,5.0845,5.227,5.2587,5.2866,5.3742,5.417,5.4483,5.4592,5.4727,5.4781,5.4673,5.4537,5.451,5.4693,5.4639,5.5243,5.6841,5.9101,6.1041,6.243,6.4967,6.6561,6.6603,6.7005,6.7281,6.7281,6.7281,6.7281,6.7281,6.7281,6.7348,6.7552,6.7891,6.8029,6.8066,6.8685,6.9006,0.0,0.0,0.0,0.0,0.0,0.0,0.0,0.0,0.0,0.0,0.0,0.0,0.0,0.0,0.0,0.0,0.0,0.0,0.0,0.0,0.0,0.0,0.0,0.0,0.0,0.0,0.0,0.0,0.0,1.9213,1.9213,2.225,2.5261,2.832,2.9139,2.9555,2.9555,3.0346,3.1494,3.2912,3.438,3.5783,3.7083,3.9254,4.024,4.0302,4.0964,4.1004,4.0672,4.1066,4.1881,4.2961,4.2961,4.4562,4.6882,4.7164,4.7407,4.7492,4.6618,4.6301,4.6084,4.4945,4.5767,4.7239,4.7239,4.7907,4.8645,4.8766,4.8773,4.8887,4.9293,4.9578,4.9757,4.9793,4.9793,5.0197,5.162,5.1916,5.2142,5.2952,5.3818,5.4483,5.4592,5.4727,5.4808,5.4842,5.4592,5.4455,5.4455,5.4565,5.4646,5.4715,5.7041,5.871,5.9011,6.2482,6.4754,6.4977,6.6421,6.7281,6.7281,6.7281,6.7281,6.7281,6.7281,6.7245,6.7281,6.7782,6.8029,6.8066,6.8685,6.9006,0.0,0.0,0.0,0.0,0.0,0.0,0.0,0.0,0.0,0.0,0.0,0.0,0.0,0.0,0.0,0.0,0.0,0.0,0.0,0.0,0.0,0.0,0.0,0.0,0.0,0.0,0.0,0.0,0.0,0.0,1.9213,2.1236,2.3331,2.5333,2.6663,2.8065,2.9539,3.0346,3.1426,3.2845,3.3315,3.4777,3.6954,3.7983,3.8916,3.9864,4.053,4.0756,4.0632,4.0756,4.1229,4.1759,4.1759,4.2828,4.4386,4.5344,4.592,4.6204,4.6058,4.5623,4.4922,4.3961,4.4841,4.6323,4.6323,4.737,4.8606,4.8645,4.8728,4.8842,4.8956,4.9219,4.9547,4.972,4.9757,5.0017,5.0946,5.1119,5.1488,5.271,5.3257,5.3726,5.4365,5.4592,5.4646,5.4565,5.451,5.4338,5.408,5.408,5.4108,5.4108,5.6291,5.7891,5.8344,6.193,6.4358,6.4884,6.6384,6.7281,6.7281,6.7281,6.7281,6.7281,6.7281,6.7281,6.7281,6.763,6.7873,6.8066,6.852,6.8831,0.0,0.0,0.0,0.0,0.0,0.0,0.0,0.0,0.0,0.0,0.0,0.0,0.0,0.0,0.0,0.0,0.0,0.0,0.0,0.0,0.0,0.0,0.0,0.0,0.0,0.0,0.0,0.0,0.0,0.0,1.9213,2.0727,2.2322,2.3847,2.5461,2.7225,2.9294,3.0139,3.1016,3.2071,3.2594,3.4048,3.6305,3.7127,3.8323,3.9675,4.0093,4.0258,4.028,4.0508,4.0756,4.1004,4.1128,4.1942,4.3105,4.441,4.5189,4.5507,4.5803,4.5258,4.4362,4.3441,4.4142,4.5442,4.578,4.6927,4.8181,4.8491,4.8645,4.8728,4.8773,4.8994,4.9219,4.9547,4.9615,4.9767,5.028,5.06,5.0984,5.1915,5.2612,5.3253,5.3904,5.4365,5.4592,5.451,5.4483,5.431,5.3995,5.3875,5.3847,5.3847,5.5352,5.6528,5.6875,6.0138,6.2588,6.3688,6.5441,6.6676,6.7245,6.7281,6.7281,6.7281,6.7281,6.7281,6.7281,6.7513,6.7726,6.789,6.8394,6.8716,0.0,0.0,0.0,0.0,0.0,0.0,0.0,0.0,0.0,0.0,0.0,0.0,0.0,0.0,0.0,0.0,0.0,0.0,0.0,0.0,0.0,0.0,0.0,0.0,0.0,0.0,0.0,0.0,0.0,1.9213,1.9213,2.0654,2.2178,2.3762,2.5248,2.6959,2.8823,2.9587,3.0208,3.0706,3.2071,3.3515,3.4909,3.661,3.8131,3.9527,3.9612,3.9612,3.9738,4.0321,4.0632,4.0694,4.1066,4.1881,4.3021,4.441,4.5158,4.545,4.5752,4.5284,4.4443,4.3441,4.3771,4.4668,4.5527,4.6435,4.736,4.8259,4.8529,4.8568,4.8728,4.8804,4.8887,4.9256,4.9399,4.9473,4.972,5.0245,5.0707,5.0742,5.1946,5.3073,5.3219,5.4017,5.4619,5.4592,5.451,5.4372,5.4239,5.4001,5.3847,5.3847,5.4276,5.4631,5.4784,5.7301,5.9603,6.1395,6.3652,6.5581,6.7078,6.7245,6.7281,6.7281,6.7281,6.7281,6.7281,6.7513,6.7613,6.7687,6.8275,6.8588,0.0,0.0,0.0,0.0,0.0,0.0,0.0,0.0,0.0,0.0,0.0,0.0,0.0,0.0,0.0,0.0,0.0,0.0,0.0,0.0,0.0,0.0,0.0,0.0,0.0,0.0,0.0,0.0,0.0,1.9213,1.9213,1.9642,2.0519,2.2106,2.2527,2.4237,2.731,2.7731,2.8862,3.0723,3.1101,3.202,3.3448,3.4975,3.637,3.7683,3.8747,3.9423,3.9675,4.0177,4.0467,4.0694,4.1066,4.1374,4.1881,4.4116,4.494,4.5108,4.5473,4.5572,4.5231,4.3435,4.3637,4.4537,4.4798,4.5484,4.6435,4.732,4.756,4.7719,4.846,4.8728,4.888,4.9137,4.9324,4.9473,4.972,4.9908,5.0133,5.0638,5.1521,5.2363,5.3013,5.3875,5.4455,5.4351,5.4372,5.431,5.3995,5.3875,5.3847,5.3847,5.3961,5.4235,5.4758,5.6964,5.8734,5.968,6.2998,6.5086,6.5508,6.664,6.7281,6.7281,6.7281,6.7281,6.7281,6.7328,6.7434,6.7632,6.7997,6.834,0.0,0.0,0.0,0.0,0.0,0.0,0.0,0.0,0.0,0.0,0.0,0.0,0.0,0.0,0.0,0.0,0.0,0.0,0.0,0.0,0.0,0.0,0.0,0.0,0.0,0.0,0.0,0.0,0.0,1.9213,1.9213,1.9213,1.9935,2.1526,2.1599,2.3175,2.6522,2.6874,2.801,2.9949,3.0294,3.1272,3.293,3.4314,3.5389,3.6175,3.7554,3.8619,3.9423,3.9801,4.0155,4.053,4.0818,4.1066,4.1436,4.3344,4.4096,4.4155,4.4582,4.4808,4.4636,4.3074,4.3141,4.3787,4.423,4.4798,4.5527,4.6875,4.7239,4.744,4.8375,4.8645,4.8766,4.8987,4.9137,4.9324,4.9541,4.9689,4.9871,5.0209,5.0878,5.1654,5.2489,5.3197,5.38,5.4154,5.4148,5.3995,5.3875,5.3847,5.3847,5.3847,5.3847,5.3983,5.4365,5.5776,5.7252,5.8598,6.1715,6.3912,6.4868,6.6421,6.7281,6.7281,6.6567,6.6567,6.7281,6.7281,6.7328,6.7473,6.7745,6.8032,0.0,0.0,0.0,0.0,0.0,0.0,0.0,0.0,0.0,0.0,0.0,0.0,0.0,0.0,0.0,0.0,0.0,0.0,0.0,0.0,0.0,0.0,0.0,0.0,0.0,0.0,0.0,0.0,0.0,0.0,1.9213,1.9213,1.9862,2.1236,2.1236,2.2671,2.5589,2.6239,2.724,2.8684,2.964,3.0999,3.2594,3.4067,3.473,3.4777,3.6305,3.7619,3.8831,3.9423,3.9864,4.0177,4.0508,4.0818,4.1313,4.2503,4.2977,4.3034,4.3502,4.3627,4.339,4.2578,4.2501,4.2913,4.3698,4.4142,4.4668,4.6394,4.6956,4.728,4.815,4.8491,4.8645,4.8735,4.8987,4.9137,4.9256,4.951,4.972,4.972,5.0173,5.088,5.1785,5.2335,5.3023,5.404,5.3891,5.3678,5.3818,5.3847,5.3847,5.3847,5.3847,5.3847,5.3847,5.4446,5.5643,5.7619,5.9978,6.2142,6.417,6.5743,6.6713,6.6932,6.5837,6.591,6.7281,6.7281,6.7281,6.7245,6.7533,6.7763,0.0,0.0,0.0,0.0,0.0,0.0,0.0,0.0,0.0,0.0,0.0,0.0,0.0,0.0,0.0,0.0,0.0,0.0,0.0,0.0,0.0,0.0,0.0,0.0,0.0,0.0,0.0,0.0,0.0,0.0,1.9213,1.9213,1.936,1.9642,1.9642,2.0508,2.2383,2.4081,2.566,2.724,2.9209,3.0484,3.1101,3.2544,3.3181,3.3382,3.5829,3.7083,3.7426,3.9,3.9675,3.9801,4.0383,4.0694,4.0942,4.2382,4.2531,4.1981,4.3045,4.3014,4.2433,4.2128,4.2363,4.2804,4.2959,4.3186,4.3637,4.4668,4.5527,4.6311,4.7239,4.8064,4.8645,4.8735,4.8842,4.888,4.888,4.9181,4.9436,4.9436,4.9694,5.0133,5.0845,5.1916,5.2958,5.376,5.3737,5.3678,5.3818,5.3847,5.3847,5.3847,5.3847,5.3847,5.3847,5.4446,5.5122,5.5808,5.8182,5.9872,6.0564,6.2308,6.3903,6.5289,6.6311,6.6968,6.7281,6.7281,6.7281,6.7245,6.7533,6.7651,0.0,0.0,0.0,0.0,0.0,0.0,0.0,0.0,0.0,0.0,0.0,0.0,0.0,0.0,0.0,0.0,0.0,0.0,0.0,0.0,0.0,0.0,0.0,0.0,0.0,0.0,0.0,0.0,0.0,0.0,0.0,1.9213,1.9213,1.9213,1.9213,2.0008,2.1526,2.3319,2.495,2.6522,2.8514,2.9725,3.0139,3.0999,3.1986,3.2912,3.4229,3.5632,3.7018,3.7875,3.881,3.9738,4.0218,4.0508,4.0734,4.1697,4.1783,4.1383,4.1492,4.1687,4.1786,4.1147,4.1617,4.2363,4.2501,4.2758,4.3141,4.423,4.4841,4.5484,4.6845,4.759,4.7994,4.8537,4.8728,4.8773,4.8773,4.9031,4.9287,4.9367,4.9473,4.9657,4.9994,5.0912,5.1883,5.2802,5.311,5.3354,5.362,5.376,5.3847,5.3847,5.3847,5.3847,5.3847,5.4151,5.4626,5.5382,5.7349,5.8841,5.9648,5.9714,6.0937,6.3469,6.43,6.5545,6.7281,6.7281,6.7281,6.7281,6.7389,6.7513,0.0,0.0,0.0,0.0,0.0,0.0,0.0,0.0,0.0,0.0,0.0,0.0,0.0,0.0,0.0,0.0,0.0,0.0,0.0,0.0,0.0,0.0,0.0,0.0,0.0,0.0,0.0,0.0,0.0,0.0,0.0,0.0,0.0,1.8836,1.914,1.9862,2.109,2.2611,2.4179,0.0,2.7605,2.8808,2.9416,2.9709,3.0725,3.2256,3.2643,3.4248,3.6565,3.6824,3.7939,3.9549,3.9989,4.028,4.057,4.0942,4.0913,4.0527,4.0048,4.0158,4.0527,4.0146,4.0785,4.1758,4.2224,4.2574,4.2959,4.3921,4.4362,4.4885,4.6517,4.7078,4.74,4.8142,4.8537,4.8766,4.8766,4.8949,4.9137,4.925,4.9293,4.9399,4.9362,4.9998,5.0777,5.1488,5.2174,5.2805,5.3388,5.3649,5.3789,5.3847,5.3847,5.3847,5.3847,5.3847,5.4228,5.5169,5.6578,5.787,5.8861,5.8151,5.8955,6.1617,6.2122,6.3826,6.6749,6.6749,6.6932,6.7281,6.7281,6.7369,1.7413,0.0,0.0,0.0,0.0,0.0,0.0,0.0,0.0,0.0,0.0,0.0,0.0,0.0,0.0,0.0,0.0,0.0,0.0,0.0,0.0,0.0,0.0,0.0,0.0,0.0,0.0,0.0,0.0,0.0,0.0,0.0,0.0,1.7638,1.8689,1.9287,1.9423,2.1018,2.2539,2.412,2.6112,2.7746,2.9032,2.9048,2.9518,3.0467,3.2121,3.3716,3.5258,3.6435,3.7832,3.917,3.9549,3.9926,4.0302,4.057,3.9787,3.867,3.9558,3.8761,3.7618,3.9452,4.0304,4.0832,4.1991,4.2574,4.2849,4.3141,4.386,4.4755,4.5738,4.66,4.7239,4.732,4.7994,4.8606,4.8606,4.8759,4.8842,4.8842,4.9144,4.9362,4.9243,4.9958,5.039,5.0062,5.0948,5.2077,5.3295,5.3477,5.3561,5.3818,5.3847,5.3847,5.3847,5.3847,5.4074,5.4666,5.5294,5.5871,5.6456,5.8088,5.9261,5.9886,6.1435,6.3194,6.5143,6.5143,6.5873,6.7281,6.7281,6.7281,1.4499,0.0,0.0,0.0,0.0,0.0,0.0,0.0,0.0,0.0,0.0,0.0,0.0,0.0,0.0,0.0,0.0,0.0,0.0,0.0,0.0,0.0,0.0,0.0,0.0,0.0,0.0,0.0,0.0,0.0,0.0,0.0,0.0,0.0,1.8615,1.9213,1.9213,2.0799,2.1888,2.2539,2.5177,2.6733,2.738,2.846,2.924,2.9847,3.0777,3.1681,3.2562,3.4862,3.6565,3.7875,3.9148,3.9738,3.9926,4.0446,3.9855,3.8898,3.891,3.84,3.7784,3.8097,3.9082,4.0304,4.1023,4.1851,4.262,4.2849,4.3277,4.3904,4.4841,4.5738,4.6559,4.7078,4.7946,4.8606,4.8606,4.8645,4.869,4.8766,4.8887,4.8994,4.8956,4.9225,4.9489,4.9515,4.989,5.0811,5.243,5.3114,5.3532,5.3818,5.3847,5.3847,5.3847,5.3847,5.4045,5.4592,5.5045,5.5364,5.5572,5.6733,5.8038,5.9522,6.0281,6.1589,6.3428,6.4413,6.5253,6.5873,6.6786,6.7281,1.2441,1.172,0.0,0.0,0.0,0.0,0.0,0.0,0.0,0.0,0.0,0.0,0.0,0.0,0.0,0.0,0.0,0.0,0.0,0.0,0.0,0.0,0.0,0.0,0.0,0.0,0.0,0.0,0.0,0.0,0.0,0.0,0.0,0.0,1.7712,1.8605,1.9066,2.0289,2.109,2.1599,2.425,2.5319,2.495,2.717,2.8374,2.8777,2.9502,3.0071,3.0758,3.3217,3.506,3.65,3.8216,3.8937,3.9127,4.0134,3.9998,3.9171,3.8512,3.8063,3.7757,3.7131,3.8158,3.9672,4.023,4.126,4.2316,4.2574,4.2849,4.3231,4.4142,4.4928,4.5654,4.6311,4.736,4.8181,4.8181,4.8414,4.8606,4.869,4.869,4.8621,4.8728,4.869,4.8735,4.9069,4.9256,4.9849,5.1117,5.2238,5.311,5.3644,5.3789,5.3847,5.3847,5.3847,5.3989,5.4365,5.4792,5.5028,5.5028,5.5704,5.6868,5.8527,5.8742,5.9801,6.1713,6.3392,6.445,6.4941,6.653,6.7281,1.2622,1.2242,0.0,0.0,0.0,0.0,0.0,0.0,0.0,0.0,0.0,0.0,0.0,0.0,0.0,0.0,0.0,0.0,0.0,0.0,0.0,0.0,0.0,0.0,0.0,0.0,0.0,0.0,0.0,0.0,0.0,0.0,0.0,0.0,1.5549,1.7112,1.8625,1.9066,2.0081,2.1599,2.3188,2.3116,2.1744,2.4807,2.6451,2.6959,2.839,2.9379,3.0261,3.1681,3.3333,3.5126,3.6435,3.7212,3.7727,3.9569,3.9835,3.9171,3.8512,3.7602,3.6772,3.6893,3.7652,3.8734,4.0037,4.1166,4.2065,4.227,4.2574,4.2959,4.3921,4.4318,4.4537,4.4537,4.5906,4.7239,4.7239,4.7955,4.8606,4.8606,4.8383,4.8306,4.8568,4.8383,4.8306,4.8568,4.9062,4.9367,4.9404,5.0641,5.2012,5.3295,5.3708,5.3847,5.3847,5.3847,5.3847,5.3841,5.4331,5.4619,5.4619,5.5359,5.5977,5.638,5.6778,5.7993,6.0088,6.1676,6.3282,6.4941,6.653,6.7281,1.1682,1.1067,0.0,0.0,0.0,0.0,0.0,0.0,0.0,0.0,0.0,0.0,0.0,0.0,0.0,0.0,0.0,0.0,0.0,0.0,0.0,0.0,0.0,0.0,0.0,0.0,0.0,0.0,0.0,0.0,0.0,0.0,0.0,0.0,1.526,1.6826,1.8625,1.8772,1.9203,2.0008,2.1526,2.2033,2.1671,2.4807,2.6451,2.6888,2.832,2.924,2.9762,3.0519,3.1732,3.34,3.5959,3.7018,3.7341,3.919,3.9444,3.8811,3.8155,3.7388,3.663,3.5944,3.6494,3.7652,3.8784,3.994,4.1071,4.1898,4.2409,4.2776,4.2913,4.3609,4.4318,4.4493,4.5906,4.7239,4.7239,4.7946,4.8491,4.8111,4.7994,4.7876,4.7679,4.7837,4.7994,4.8033,4.8499,4.8987,4.9362,5.0287,5.1388,5.2397,5.3316,5.3847,5.3847,5.3847,5.3847,5.3847,5.3989,5.4248,5.4619,5.5105,5.5645,5.6242,5.6694,5.7371,5.8187,5.9958,6.1621,6.3246,6.4888,6.6238,1.1664,1.0785,0.0,0.9136,0.0,0.0,0.0,0.0,0.0,0.0,0.0,0.0,0.0,0.0,0.0,0.0,0.0,0.0,0.0,0.0,0.0,0.0,0.0,0.0,0.0,0.0,0.0,0.0,0.0,0.0,0.0,0.0,0.0,1.318,1.4143,1.578,1.8414,1.8552,1.8772,1.9066,2.0008,2.0519,2.0799,2.3306,2.4963,2.5829,2.7325,2.8444,2.9363,2.9709,3.0519,3.1681,3.3734,3.5258,3.6435,3.8195,3.8954,3.897,3.847,3.7771,3.6944,3.6075,3.6292,3.7062,3.7702,3.9008,4.0423,4.1071,4.1851,4.2409,4.227,4.2913,4.3654,4.3787,4.5057,4.6311,4.6641,4.744,4.8064,4.7837,4.7719,4.756,4.748,4.752,4.7719,4.8033,4.8375,4.8721,4.9062,4.9958,5.0912,5.1687,5.2833,5.3586,5.3847,5.3847,5.3847,5.3847,5.3847,5.3989,5.4338,5.4738,5.5249,5.5872,5.6445,5.6921,5.7347,5.9155,6.0563,6.1567,6.3209,6.4815,1.228,1.1242,0.986,0.8899,0.0,0.0,0.0,0.0,0.0,0.0,0.0,0.0,0.0,0.0,0.0,0.0,0.0,0.0,0.0,0.0,0.0,0.0,0.0,0.0,0.0,0.0,0.0,0.0,0.0,0.0,0.0,0.0,0.0,1.1761,1.2342,1.4293,1.7824,1.8341,1.8552,1.8635,1.8625,1.8846,1.9287,2.0872,2.2395,2.3834,2.539,2.7099,2.8754,2.9209,2.9624,3.0139,3.05,3.2359,3.506,3.6804,3.8387,3.9587,3.9183,3.8516,3.7603,3.6844,3.6694,3.6804,3.6908,3.8335,3.9965,4.0013,4.0906,4.1851,4.1971,4.2316,4.2758,4.2758,4.3609,4.4711,4.5569,4.6517,4.732,4.7639,4.744,4.732,4.7639,4.744,4.752,4.8375,4.8529,4.8606,4.8606,4.9584,5.0524,5.122,5.2173,5.308,5.376,5.3818,5.3818,5.3847,5.3847,5.3847,5.3847,5.4365,5.4871,5.5333,5.6009,5.6673,5.729,5.9027,5.9923,6.0088,6.1567,6.3136,1.0971,1.044,0.976,0.838,0.0,0.0,0.0,0.0,0.0,0.0,0.0,0.0,0.0,0.0,0.0,0.0,0.0,0.0,0.0,0.0,0.0,0.0,0.0,0.0,0.0,0.0,0.0,0.0,0.0,0.0,0.0,0.0,0.8269,1.0175,1.153,1.3397,1.5797,1.715,1.7908,1.8193,1.8478,1.8699,1.8846,2.0727,2.1744,2.225,2.3762,2.539,2.6888,2.7295,2.8359,2.9693,3.0123,3.1528,3.3649,3.6155,3.8131,3.9438,3.7859,3.7477,3.7435,3.5803,3.5384,3.5786,3.6649,3.7804,3.9032,3.9819,4.0256,4.0737,4.1711,4.2111,4.227,4.2666,4.3474,4.4362,4.4755,4.6103,4.7078,4.6447,4.6834,4.7037,4.6435,4.6804,4.732,4.752,4.8142,4.8606,4.8606,4.9181,4.9922,5.0777,5.1456,5.23,5.3443,5.3532,5.3649,5.3847,5.3847,5.3847,5.3847,5.4365,5.4666,5.4792,5.5741,5.6364,5.6595,5.7555,5.8717,6.0052,6.0417,6.1438,1.1045,1.059,0.9841,0.8062,0.7812,0.0,0.0,0.0,0.0,0.0,0.0,0.0,0.0,0.0,0.0,0.0,0.0,0.0,0.0,0.0,0.0,0.0,0.0,0.0,0.0,0.0,0.0,0.0,0.0,0.0,0.0,0.0,0.8257,0.9657,1.0552,1.2356,1.5128,1.5814,1.5963,1.5566,1.7297,1.7962,1.7638,1.9412,2.0727,2.1599,0.0,2.4107,2.631,2.6677,2.7801,2.9363,2.9916,3.0725,3.1867,3.4248,3.609,3.7478,3.7471,3.7357,3.7077,3.587,3.5294,3.513,3.5891,3.6884,3.7982,3.9032,3.9672,4.0304,4.1476,4.1878,4.2065,4.2316,4.2959,4.3654,4.423,4.5186,4.5977,4.5864,4.6269,4.6517,4.6299,4.6629,4.7078,4.744,4.7916,4.8336,4.8568,4.9031,4.9631,5.0287,5.1052,5.1947,5.3023,5.3328,5.3561,5.3847,5.3847,5.3847,5.3847,5.4136,5.4393,5.4619,5.5224,5.5801,5.6261,5.6835,5.7686,5.8845,5.892,5.9852,1.1407,1.0901,0.9937,0.8015,0.7306,0.6663,0.0,0.0,0.0,0.0,0.0,0.0,0.0,0.0,0.0,0.0,0.0,0.0,0.0,0.0,0.0,0.0,0.0,0.0,0.0,0.0,0.0,0.0,0.0,0.0,0.0,0.7752,0.822,0.934,0.9592,1.1223,1.43,1.4009,1.3404,1.2567,1.5649,1.677,1.6225,1.7879,1.9569,2.109,0.0,2.2887,2.5589,2.6169,2.7255,2.8754,2.9587,3.0002,3.033,3.2121,3.3582,3.5012,3.7261,3.7478,3.6664,3.6305,3.5595,3.4865,3.5024,3.5996,3.7113,3.7932,3.8983,4.0062,4.1097,4.1617,4.1925,4.2018,4.2363,4.2913,4.3698,4.4158,4.4668,4.5442,4.5696,4.5977,4.6464,4.6618,4.6905,4.76,4.7758,4.7994,4.8529,4.8987,4.9404,4.9813,5.0673,5.1489,5.2302,5.2931,5.3384,5.3644,5.3731,5.3818,5.3847,5.3847,5.408,5.4476,5.4669,5.5189,5.5989,5.6452,5.6876,5.7271,5.7534,5.8392,1.0242,0.9906,0.9589,0.8605,0.7526,0.6446,0.5373,0.0,0.0,0.0,0.0,0.0,0.0,0.0,0.0,0.0,0.0,0.0,0.0,0.0,0.0,0.0,0.0,0.0,0.0,0.0,0.0,0.0,0.0,0.0,0.0,0.7782,0.7675,0.7931,0.9069,0.9954,1.0552,1.0476,1.1003,1.2206,1.4449,1.5426,1.5417,1.7657,1.8846,1.914,0.0,0.0,2.2383,2.3762,2.5475,2.731,2.8599,2.9518,3.033,3.1799,3.2661,3.3564,3.6212,3.695,3.6606,3.5775,3.519,3.479,3.4865,3.5816,3.6908,3.6711,3.7681,3.8983,4.0013,4.0954,4.1737,4.1925,4.2224,4.2455,4.2593,4.3474,4.423,4.4378,4.5028,4.5654,4.5906,4.6382,4.6823,4.7239,4.76,4.7994,4.8529,4.8645,4.8911,4.9404,4.9626,5.007,5.095,5.1785,5.2461,5.2836,5.3265,5.362,5.3847,5.3847,5.3875,5.3961,5.4414,5.4792,5.5052,5.5884,5.6452,5.684,5.7232,5.7661,1.0074,0.9456,0.902,0.8617,0.7524,0.6334,0.5799,0.0,0.0,0.0,0.0,0.0,0.0,0.0,0.0,0.0,0.0,0.0,0.0,0.0,0.0,0.0,0.0,0.0,0.0,0.0,0.0,0.0,0.0,0.0,0.0,0.7866,0.7679,0.7584,0.8169,0.8447,0.8447,0.9274,0.9652,0.9576,1.2206,1.3172,1.2642,1.5492,1.6983,0.0,0.0,0.0,2.1671,2.3259,2.4977,2.6663,2.832,2.9171,2.9656,3.0725,3.1732,3.2728,3.4248,3.5329,3.6035,3.5505,3.4916,3.4385,3.4567,3.513,3.5845,3.6246,3.6991,3.8006,3.9623,4.0401,4.0954,4.1617,4.1971,4.2111,4.1831,4.2474,4.3294,4.3626,4.429,4.4985,4.5738,4.6061,4.6382,4.6864,4.7239,4.7639,4.8111,4.8414,4.8683,4.8949,4.9181,4.9631,5.0284,5.0705,5.122,5.1883,5.2552,5.3227,5.3847,5.3847,5.3847,5.3847,5.408,5.4386,5.4704,5.5403,5.6022,5.6553,5.7098,5.7478,0.9923,0.0,0.8096,0.803,0.722,0.6358,0.0,0.0,0.0,0.0,0.0,0.0,0.0,0.0,0.0,0.0,0.0,0.0,0.0,0.0,0.0,0.0,0.0,0.0,0.0,0.0,0.0,0.0,0.0,0.0,0.0,0.8004,0.7826,0.7647,0.7469,0.7434,0.739,0.8598,0.8598,0.739,1.0175,1.0997,1.0314,1.3621,1.5492,0.0,0.0,0.0,2.0872,2.2611,2.4036,2.5234,2.7465,2.839,2.8615,2.9518,3.0673,3.1867,3.2526,3.3688,3.496,3.5329,3.4909,3.431,3.4332,3.4438,3.479,3.5643,3.6344,3.7169,3.8884,3.9672,4.0256,4.1049,4.1617,4.1831,4.1265,4.1737,4.2409,4.2905,4.3581,4.4378,4.5442,4.578,4.6061,4.6576,4.6905,4.728,4.7758,4.8181,4.8452,4.8568,4.8918,4.9293,4.9594,4.974,5.0141,5.0948,5.1882,5.2735,5.3489,5.3726,5.3847,5.3847,5.3847,5.4017,5.4448,5.4984,5.5587,5.6234,5.684,5.7328,0.0,0.7964,0.6832,0.6448,0.6483,0.6313,0.0,0.0,0.0,0.0,0.0,0.0,0.0,0.2125,0.1648,0.0248,0.0,0.0,0.0,0.0,0.0,0.0,0.0,0.0,0.0,0.0,0.0,0.0,0.0,0.0,0.0,0.8183,0.8012,0.7752,0.7651,0.7481,0.7394,0.7466,0.7466,0.739,0.9123,0.9878,0.9873,1.3479,0.0,0.0,0.0,0.0,0.0,2.0799,2.1599,2.1732,2.5092,2.6663,2.7099,2.8545,2.9587,3.0467,3.1799,3.2626,3.3345,3.5019,3.5436,3.5116,3.4289,3.4062,3.4116,3.446,3.5455,3.6505,3.7038,3.8585,4.0062,4.0111,4.1071,4.1784,4.1028,4.1455,4.2018,4.2111,4.3023,4.4026,4.4798,4.5442,4.6061,4.6576,4.6659,4.6956,4.7719,4.7837,4.8033,4.8529,4.8645,4.8645,4.8683,4.9144,4.9626,5.003,5.1355,5.2268,5.2547,5.3401,5.3847,5.3847,5.3847,5.3875,5.3904,5.4448,5.5061,5.5835,5.6256,5.6901,0.0,0.7431,0.6745,0.6445,0.612,0.0,0.0,0.0,0.0,0.0,0.4014,0.3267,0.2306,0.1718,0.1119,0.016,0.0,0.0,0.0,0.0,0.0,0.0,0.0,0.0,0.0,0.0,0.0,0.0,0.0,0.0,0.0,0.8203,0.808,0.8012,0.7838,0.7659,0.7481,0.7446,0.739,0.739,0.7992,0.8295,0.8371,1.168,0.0,0.0,0.0,0.0,0.0,2.0592,2.1308,2.1381,2.4879,2.631,2.6663,2.832,2.9171,2.9518,3.0604,3.1613,3.2448,3.2385,3.3728,3.5098,3.3173,3.3541,3.4551,3.4257,3.4737,3.5538,3.6373,3.7322,3.8435,3.9721,4.0401,4.0689,4.0426,4.0811,4.1313,4.1449,4.2151,4.2977,4.401,4.4798,4.5343,4.5513,4.6174,4.6741,4.7067,4.752,4.7876,4.8072,4.8414,4.8606,4.8606,4.8759,4.9181,4.9922,5.046,5.1289,5.2454,5.2891,5.3316,5.3847,5.3847,5.3847,5.3847,5.4017,5.4508,5.5184,5.5919,5.6582,0.7362,0.6564,0.5996,0.5808,0.5585,0.5288,0.5276,0.0,0.0,0.4683,0.3824,0.2928,0.2259,0.1508,0.0752,0.011,0.0,0.0,0.0,0.0,0.0,0.0,0.0,0.0,0.0,0.0,0.0,0.0,0.0,0.0,0.0,0.7994,0.7994,0.7518,0.727,0.7271,0.758,0.7482,0.739,0.739,0.739,0.739,0.7466,1.0627,0.0,0.0,0.0,0.0,0.0,1.9862,2.0519,2.0581,2.3593,2.4736,2.5021,2.724,2.818,2.839,2.9432,3.0519,3.1509,3.1094,3.2713,3.4628,3.3322,3.4308,3.5603,3.4628,3.4462,3.4843,3.5643,3.6396,3.7369,3.9131,3.9819,4.0062,4.0062,4.0426,4.0788,4.0615,4.1355,4.2224,4.3068,4.3937,4.4624,4.487,4.5556,4.6216,4.6618,4.7118,4.756,4.7798,4.8111,4.8336,4.8336,4.8491,4.8873,4.9484,4.9813,5.0571,5.2043,5.2458,5.3016,5.3847,5.3847,5.3847,5.3847,5.3847,5.4067,5.4527,5.5364,5.608,0.6544,0.5348,0.4257,0.4442,0.4749,0.4995,0.0,0.0,0.0,0.471,0.3824,0.2911,0.2251,0.148,0.0769,0.0107,0.0,0.0,0.0,0.0,0.0,0.0,0.0,0.0,0.0,0.0,0.0,0.0,0.0,0.0,0.0,0.7577,0.7587,0.608,0.5863,0.6378,0.7584,0.7482,0.739,0.739,0.739,0.739,0.7466,1.0627,1.2055,0.0,0.0,0.0,0.0,1.8341,1.8625,1.8846,2.0799,2.1599,2.1961,2.5092,2.6522,2.7029,2.846,2.9448,3.033,3.1799,3.2771,3.3682,3.5108,3.6518,3.7305,3.5482,3.4695,3.4482,3.4705,3.5868,3.7165,3.8184,3.9279,4.0013,4.0013,4.0426,4.05,3.9477,4.0715,4.1971,4.1971,4.2905,4.3982,4.4783,4.4913,4.5343,4.6494,4.6659,4.6945,4.7719,4.7798,4.7798,4.7837,4.8298,4.8606,4.8606,4.9478,5.0355,5.1289,5.2043,5.2919,5.3847,5.3847,5.3847,5.3847,5.3847,5.3847,5.3875,5.4527,5.5333,0.4409,0.3518,0.2885,0.2979,0.3495,0.3996,0.0,0.0,0.0,0.4656,0.3453,0.238,0.2158,0.1112,0.0243,0.0,0.0,-0.0489,0.0,0.0,0.0,0.0,0.0,0.0,0.0,0.0,0.0,0.0,0.0,0.0,0.0,0.5222,0.5727,0.6128,0.591,0.6346,0.7279,0.7387,0.7238,0.7006,0.7238,0.739,0.7466,0.9501,1.1003,1.2206,0.0,0.0,0.0,1.8341,1.8625,1.8846,2.0799,2.1599,2.1961,2.5092,2.631,2.6663,2.839,2.9294,2.975,2.9906,3.204,3.4418,3.381,3.4431,3.5128,3.4598,3.4175,3.3944,3.4406,3.51,3.5973,3.7141,3.7601,3.8057,3.8784,3.9082,3.9206,3.928,3.9697,4.0281,4.1028,4.1898,4.2704,4.3322,4.4258,4.5043,4.5386,4.6132,4.6741,4.6956,4.7027,4.7199,4.7758,4.7955,4.822,4.8568,4.8873,4.9709,5.1255,5.1555,5.2362,5.3818,5.3847,5.3847,5.3847,5.3847,5.3847,5.3841,5.4039,5.4481,0.3118,0.257,0.2361,0.2385,0.2765,0.3297,0.3862,0.0,0.0,0.4297,0.3165,0.2049,0.1722,0.0767,0.0,0.0,0.0,0.0,0.0,0.0,0.0,0.0,0.0,0.0,0.0,0.0,0.0,0.0,0.0,0.0,0.2089,0.2961,0.3745,0.4531,0.4887,0.5437,0.6372,0.6932,0.7075,0.6779,0.7006,0.7238,0.7466,0.8972,1.0256,1.1229,1.386,0.0,0.0,1.7667,1.8183,1.7943,1.9851,2.0654,2.0945,2.345,2.4821,2.5532,2.7325,2.8514,2.9284,2.9193,3.1335,3.3734,3.2863,3.3593,3.4663,3.4323,3.4172,3.4163,3.4246,3.4567,3.5206,3.6598,3.6908,3.7216,3.8234,3.8485,3.8585,3.8908,3.9107,3.9477,4.0113,4.0932,4.1737,4.2363,4.3564,4.4537,4.487,4.5725,4.6423,4.6618,4.6659,4.6864,4.732,4.7639,4.7955,4.8298,4.8491,4.9262,5.0707,5.112,5.1947,5.3283,5.3668,5.3847,5.3847,5.3847,5.3847,5.3847,5.3847,5.4023,0.2464,0.2169,0.2153,0.2278,0.2367,0.2698,0.3748,0.0,0.0,0.0,0.2958,0.192,0.1108,0.0,0.0,0.0,0.0,0.0,0.0,0.0,0.0,0.0,0.0,0.0,0.0,0.0,0.0,0.0,0.0,0.0,-0.1569,0.0523,0.1743,0.183,0.2903,0.3928,0.4907,0.6071,0.6707,0.6703,0.6779,0.7006,0.739,0.8821,0.9576,0.9878,1.3037,0.0,0.0,1.6613,1.751,1.6734,1.8532,1.9213,1.9433,2.1018,2.2539,2.412,2.5673,2.745,2.9032,2.9347,3.064,3.2003,3.2071,3.3484,3.4955,3.42,3.4326,3.4591,3.4137,3.4192,3.4781,3.639,3.6753,3.701,3.7982,3.8284,3.8335,3.8385,3.8809,3.923,3.928,4.0064,4.0932,4.1664,4.2841,4.3804,4.4537,4.5314,4.5977,4.6452,4.6535,4.6618,4.6659,4.728,4.7758,4.7837,4.8298,4.8956,4.9922,5.0811,5.1621,5.2454,5.3342,5.3818,5.3847,5.3847,5.3847,5.3847,5.3847,5.3847,0.1344,0.0879,0.0531,0.0534,0.0992,0.1723,0.2914,0.3503,0.0,0.0,0.0,0.0,0.0,0.0,0.0,0.0,0.0,0.0,0.0,0.0,0.0,0.0,0.0,0.0,0.0,0.0,0.0,0.0,0.0,0.0,-0.3575,-0.2441,-0.122,-0.0174,0.0,0.1169,0.3514,0.3992,0.4758,0.5718,0.6475,0.6855,0.6931,0.7613,0.8523,0.9798,1.1755,0.0,0.0,1.714,1.812,1.8247,1.8993,1.9213,1.9433,2.1018,2.2539,2.412,2.5673,2.745,2.8978,2.9032,2.9571,3.0159,3.0536,3.0981,3.1596,3.2295,3.2479,3.2636,3.3727,3.4192,3.4513,3.513,3.5395,3.5606,3.5852,3.6603,3.7295,3.755,3.8158,3.8759,3.9181,3.9477,3.9795,4.0352,4.1543,4.2382,4.2593,4.4054,4.5172,4.5257,4.5725,4.6186,4.6618,4.6823,4.7159,4.7758,4.7916,4.8583,4.9922,5.0533,5.1356,5.2454,5.3201,5.3649,5.3847,5.3847,5.3847,5.3847,5.3847,5.3847,0.0503,0.0223,0.0,0.0,0.0305,0.0904,0.2005,0.0,0.0,0.0,0.0,0.2045,0.0726,0.0,0.0,0.0,0.0,0.0,0.0,0.0,0.0,0.0,0.0,0.0,0.0,0.0,0.0,0.0,0.0,-0.3664,-0.4274,-0.3751,-0.2963,-0.1741,-0.1205,0.0084,0.2041,0.2907,0.4026,0.5417,0.5946,0.6399,0.6779,0.7006,0.7689,0.8674,1.025,0.0,1.2798,1.5574,1.6918,1.7353,1.8542,1.9066,1.9349,2.0154,2.1454,2.3044,2.4607,2.6254,2.7676,2.7676,2.8514,2.9491,2.939,2.9817,3.0496,3.1403,3.1641,3.1983,3.3468,3.403,3.4245,3.4385,3.462,3.4834,3.4812,3.5478,3.6344,3.7169,3.7628,3.8158,3.8759,3.9107,3.9379,3.9648,4.1002,4.2018,4.2018,4.2913,4.3743,4.4274,4.4971,4.5641,4.6228,4.6535,4.6905,4.748,4.7719,4.8267,4.9225,5.0216,5.112,5.1914,5.2958,5.3561,5.3847,5.3847,5.3847,5.3847,5.3847,5.3847,0.0,0.0,0.0,0.0,0.0,0.0303,0.1332,0.1924,0.0,0.0,0.0,0.1752,0.0287,-0.0304,0.0,-0.1699,0.0,0.0,0.0,0.0,-0.5442,0.0,0.0,0.0,0.0,0.0,0.0,0.0,0.0,-0.4537,-0.4537,-0.4537,-0.4099,-0.3226,-0.2177,-0.1025,0.0246,0.18,0.3279,0.491,0.5273,0.587,0.6703,0.6779,0.7006,0.7466,0.9047,0.0,1.0401,1.3778,1.5492,1.6234,1.7952,1.8846,1.914,1.9203,2.0227,2.1744,2.3044,2.4678,2.6239,2.6239,2.7715,2.9358,2.8753,2.9189,3.0051,3.0582,3.1081,3.1652,3.2944,3.3652,3.4009,3.4009,3.4084,3.4192,3.4374,3.4599,3.5169,3.6603,3.7141,3.755,3.8184,3.8759,3.9107,3.9107,4.0474,4.1523,4.1617,4.1851,4.2409,4.3474,4.4274,4.4971,4.5654,4.6132,4.6547,4.7078,4.748,4.7916,4.8452,4.989,5.0845,5.1188,5.2616,5.3503,5.376,5.3818,5.3847,5.3847,5.3847,5.3847,0.0,0.0,0.0,0.0,0.0,0.0303,0.1332,0.1611,0.1641,0.1585,0.0,0.0,0.0232,0.0,-0.3121,-0.4331,0.0,-0.5828,-0.7266,-0.6401,-0.5651,-0.5651,-0.5664,-0.5675,-0.5675,-0.5675,-0.5675,-0.5675,-0.5498,-0.5498,-0.5498,-0.5498,-0.5411,-0.5237,-0.506,-0.4139,-0.2439,-0.0742,0.0967,0.2749,0.4542,0.5721,0.6178,0.663,0.7006,0.7466,0.9047,0.0,1.1905,1.4226,1.5954,1.7381,1.8267,1.8699,1.8772,1.914,2.0227,2.1599,2.1816,2.3821,2.6239,2.6239,2.752,2.8975,2.8701,2.844,2.847,2.9231,2.9787,3.0443,3.1596,3.2936,3.4009,3.4009,3.3631,3.3447,3.4245,3.3652,3.3414,3.4843,3.6292,3.7346,3.7424,3.8083,3.8585,3.8585,3.9206,3.9795,4.0256,4.1287,4.2224,4.2822,4.3474,4.4202,4.4971,4.5086,4.5598,4.6659,4.7108,4.748,4.7876,4.9484,5.0492,5.0811,5.2205,5.3144,5.3536,5.3731,5.3847,5.3847,5.3847,5.3847,0.0,-0.0297,-0.0534,-0.0076,-0.0305,-0.0457,0.0452,0.1052,0.1187,0.0778,0.1062,0.0,0.0,0.0,0.0,0.0,0.0,0.0,-0.7264,-0.6308,-0.5437,0.0,-0.5675,0.0,-0.5675,-0.5675,-0.5675,0.0,-0.5675,-0.5675,-0.5675,-0.5675,-0.5675,-0.5675,-0.5675,-0.5214,-0.4473,-0.2576,-0.0323,0.2366,0.3315,0.4498,0.5721,0.6178,0.663,0.7086,0.0,0.9274,1.0853,1.2655,1.4532,1.6334,1.7529,1.8267,1.8709,1.8846,1.9496,2.0362,2.1236,2.2455,2.3736,2.4678,2.6254,2.7773,2.7593,2.7774,2.8007,2.8206,2.8626,2.9369,3.1207,3.2204,3.2903,3.3598,3.3272,3.3054,3.3782,3.3293,3.2965,3.3922,3.5055,3.6188,3.7169,3.7601,3.7982,3.8435,3.8908,3.9329,3.955,4.0352,4.1287,4.2224,4.2868,4.3474,4.4158,4.4624,4.5214,4.5977,4.6764,4.74,4.7798,4.9106,5.0102,5.071,5.185,5.2774,5.3448,5.3702,5.3847,5.3847,5.3847,5.3847,-0.0649,-0.1187,-0.159,-0.1219,-0.1602,-0.1906,-0.0992,-0.0458,-0.0152,-0.0373,-0.0225,-0.0449,0.0,0.0,0.0,-0.6732,-0.6858,0.0,-0.7588,-0.6561,0.0,-0.6082,0.0,-0.6105,-0.6105,-0.6105,0.0,0.0,-0.5847,-0.5675,-0.5675,-0.5675,-0.5675,-0.5675,-0.5675,-0.5675,-0.5675,-0.4224,-0.1719,0.1671,0.2241,0.358,0.5417,0.5721,0.625,0.6855,0.7086,0.822,0.9798,1.1003,1.288,1.5128,1.6409,1.7529,1.8414,1.8552,1.8846,1.9287,2.0446,2.1163,2.1744,2.29,2.4834,2.664,2.6347,2.6938,2.7608,2.7257,2.7588,2.8453,3.0312,3.1243,3.1873,3.2725,3.2671,3.2526,3.302,3.2746,3.2581,3.3259,3.3976,3.4971,3.6419,3.7015,3.755,3.8083,3.8709,3.9131,3.923,3.9697,4.0449,4.1596,4.2158,4.2731,4.3429,4.4186,4.4798,4.5314,4.6435,4.7239,4.7639,4.869,4.9667,5.0635,5.1488,5.2397,5.3295,5.362,5.3789,5.3847,5.3847,5.3847,-0.2407,-0.2959,-0.3181,-0.3865,-0.4341,-0.4336,-0.3199,-0.3201,-0.3123,-0.1905,-0.2619,-0.3088,0.0,0.0,-0.7897,-0.8562,-0.9668,-1.0214,-0.9647,-0.8236,-0.7288,0.0,0.0,0.0,0.0,0.0,0.0,-0.7483,0.0,-0.5675,-0.5675,-0.5675,-0.5675,-0.5675,-0.5675,-0.5675,-0.5675,-0.5575,-0.3745,-0.0244,0.1635,0.358,0.5417,0.5493,0.5946,0.6779,0.6855,0.7912,0.9727,0.9798,1.1755,1.4622,1.5136,1.6186,1.7612,1.8414,1.8699,1.8699,1.8772,2.0008,2.1599,2.1671,2.3736,2.6067,2.5104,2.5757,2.6766,2.6129,2.6749,2.7744,2.8241,3.003,3.1596,3.1135,3.1378,3.1732,3.1788,3.1788,3.1898,3.2561,3.3238,3.3944,3.4759,3.624,3.7346,3.7397,3.8033,3.8709,3.923,3.9697,4.0281,4.0836,4.136,4.1971,4.2731,4.3429,4.4114,4.4913,4.6048,4.6864,4.7239,4.8236,4.933,5.0344,5.1119,5.2012,5.2897,5.3265,5.3591,5.3847,5.3847,5.3847,-0.1798,-0.3065,-0.399,-0.4539,-0.5551,-0.623,-0.5244,-0.4713,-0.4338,-0.3882,-0.4133,-0.4614,-0.5003,-0.7067,-0.9103,-1.02,-1.0407,-1.0405,-1.0247,-0.8444,-0.7558,-0.8587,-0.802,0.0,0.0,0.0,0.0,-0.7739,-0.7139,-0.6537,-0.5675,-0.5675,-0.5675,-0.5675,-0.5675,-0.5675,-0.5675,-0.5675,-0.4954,-0.351,-0.0545,0.1828,0.3582,0.4881,0.5645,0.5946,0.6551,0.723,0.7912,0.9199,1.0401,1.168,1.3935,1.5285,1.6177,1.7455,1.8267,1.8625,1.8625,1.914,1.9935,2.1163,2.2722,2.4175,2.431,2.5214,2.6088,2.54,2.5825,2.669,2.7588,2.9179,3.0612,3.0856,3.1323,3.1677,3.1677,3.1434,3.149,3.2451,3.2856,3.3238,3.3922,3.4971,3.6032,3.7169,3.7526,3.7982,3.8709,3.9206,3.9746,4.0281,4.0763,4.136,4.1971,4.3068,4.3849,4.4114,4.5725,4.6823,4.7199,4.7837,4.888,5.034,5.0774,5.1654,5.2866,5.3265,5.3591,5.3847,5.3847,5.3847,-0.2213,0.0,-0.5085,-0.5986,-0.7405,-0.8282,-0.729,-0.6764,-0.6385,-0.6006,-0.6235,-0.6693,-0.7248,-0.8644,-1.0037,-1.097,-1.1059,-1.0813,-1.0523,-0.9244,-0.8712,-0.9908,-0.9439,0.0,0.0,0.0,0.0,-0.9129,-0.8086,-0.7226,-0.6363,-0.5847,-0.5675,-0.5675,-0.5675,-0.5675,-0.5675,-0.5635,-0.5426,-0.523,-0.2278,-0.023,0.0913,0.3352,0.4802,0.5493,0.625,0.6627,0.6927,0.8367,0.9274,0.9949,1.213,1.3785,1.5136,1.626,1.7381,1.8267,1.8414,1.8562,1.8919,2.0362,2.1461,2.2394,2.3096,2.4137,2.5015,2.49,2.5248,2.5841,2.6807,2.8166,2.9444,2.9898,3.0575,3.1099,3.1099,3.1024,3.1135,3.1934,3.2396,3.2801,3.3238,3.3922,3.4865,3.6263,3.6729,3.709,3.7652,3.8609,3.9428,3.9746,4.0233,4.0788,4.1265,4.2631,4.3536,4.3715,4.5399,4.6629,4.7199,4.748,4.8383,4.9985,5.0386,5.1186,5.2428,5.2958,5.3414,5.3702,5.3818,5.3847,0.0,0.0,-0.6441,-0.8427,-0.9924,-1.0557,-0.9501,-0.9496,-0.9415,-0.8286,-0.8967,-0.942,-0.8286,-0.9657,-1.0958,-1.0958,-1.1643,-1.1896,-1.0751,-1.075,-1.1075,-1.1492,-1.1746,-1.1899,0.0,-1.1904,-1.191,-1.1824,-0.9302,-0.7652,-0.7656,-0.645,-0.576,-0.5672,-0.5672,-0.5675,-0.5675,-0.5469,-0.535,-0.523,-0.3432,-0.2572,-0.2437,0.0913,0.3504,0.5417,0.5877,0.633,0.6779,0.7238,0.8295,0.9652,0.9727,1.168,1.4548,1.4905,1.6103,1.7538,1.7908,1.8331,1.8679,1.9046,2.0019,2.1054,2.1517,2.2517,2.3711,2.4523,2.5011,2.5367,2.5739,2.6999,2.8184,2.8184,2.9045,2.9955,2.9898,3.0407,3.0912,3.0912,3.1823,3.2616,3.2691,3.3184,3.3836,3.4652,3.5553,3.613,3.613,3.7956,3.923,3.928,3.9697,4.0233,4.0814,4.2124,4.3149,4.3715,4.5071,4.6311,4.7159,4.7239,4.7885,4.933,5.0021,5.0737,5.1489,5.2428,5.3083,5.3477,5.3737,5.3847,-0.2099,0.0,0.0,-0.7379,-0.9178,-1.0573,-1.0918,-1.0587,-1.0271,-1.0077,-1.0342,-1.0499,-1.0116,-1.1027,-1.1869,-1.1869,-1.2259,-1.235,-1.1845,-1.1281,-1.1337,-1.2476,-1.1985,-1.1976,-1.2908,-1.3169,-1.2852,-1.191,-1.1128,-1.0258,-0.9216,-0.8787,-0.8094,-0.7052,-0.7052,-0.6621,-0.5675,-0.5469,-0.535,-0.5233,-0.4633,-0.3743,-0.2437,-0.0304,0.2284,0.5033,0.5721,0.6105,0.633,0.7086,0.7617,0.8144,0.9274,1.0928,1.273,1.288,1.4673,1.715,1.7538,1.7694,1.7853,1.8304,1.9013,1.9741,1.9915,2.1216,2.2717,2.2985,2.3964,2.507,2.5367,2.6615,2.7704,2.7507,2.8701,2.9861,2.9424,2.9804,3.035,3.08,3.1135,3.1656,3.2506,3.2801,3.3184,3.3836,3.4652,3.5425,3.6077,3.7141,3.8208,3.9181,3.9428,3.9869,4.0741,4.2124,4.3149,4.3715,4.5071,4.6145,4.6782,4.7078,4.7798,4.8918,4.9876,5.0737,5.1489,5.2428,5.3083,5.3477,5.3737,5.3847,-0.0846,0.0,0.0,0.0,-0.8434,-0.992,-1.1219,-1.0995,-1.0631,-1.1132,-1.1237,-1.1274,-1.1392,-1.1869,-1.2245,0.0,-1.2378,-1.2431,-1.2272,-1.1847,-1.1955,-1.2756,-1.2338,-1.2326,-1.3189,-1.3458,-1.3282,-1.2524,-1.2111,-1.1478,-1.0696,-1.0086,-0.9302,-0.8523,-0.7916,-0.7195,-0.6453,-0.5728,-0.5276,-0.5159,-0.504,-0.4482,-0.3428,-0.1828,0.0381,0.2971,0.4957,0.5877,0.6105,0.6858,0.7238,0.7466,0.8371,1.0105,1.2055,1.2055,1.3703,1.6077,1.6954,1.7245,1.729,1.7686,1.8025,1.8302,1.9005,1.9913,2.0968,2.2018,2.3182,2.4219,2.4935,2.5985,2.6924,2.6982,2.7855,2.8719,2.91,2.9253,2.9558,3.035,3.0688,3.1191,3.212,3.2471,3.2801,3.3184,3.4116,3.5024,3.5531,3.6626,3.7601,3.8359,3.8759,3.9255,4.0113,4.1678,4.285,4.3374,4.4942,4.6186,4.6864,4.7118,4.7798,4.9031,4.9913,5.0737,5.1489,5.2428,5.3083,5.3477,5.3737,5.3847,0.0,0.0,0.0,-0.6234,-0.7556,-0.8726,0.0,0.0,-1.0527,-1.1236,-1.1433,-1.1629,-1.204,-1.2126,-1.2152,-1.2192,-1.2245,-1.2279,-1.2252,-1.2484,-1.2657,-1.2657,-1.269,-1.2737,-1.2994,-1.3324,-1.3418,-1.3385,-1.2712,-1.2169,-1.2083,-1.0924,-1.0229,-1.0081,-0.8762,-0.7986,-0.792,-0.6275,-0.5414,-0.5213,-0.5014,-0.4881,-0.4802,-0.3275,-0.1675,-0.0076,0.358,0.5338,0.5721,0.6475,0.7006,0.7314,0.739,0.9184,1.1785,1.1785,1.2885,1.4677,1.609,1.6646,1.6833,1.7146,1.6994,1.6891,1.8407,1.8675,1.8998,2.1456,2.2503,2.3197,2.4518,2.5308,2.5916,2.6531,2.6707,2.7175,2.8641,2.8795,2.8816,2.9785,3.0407,3.0968,3.151,3.212,3.2581,3.2616,3.3793,3.4705,3.479,3.6211,3.7244,3.7346,3.8033,3.8709,3.923,4.1135,4.255,4.3149,4.4942,4.6352,4.7239,4.736,4.8042,4.9367,5.0098,5.0841,5.1489,5.2491,5.3114,5.3477,5.3737,5.3898,0.0,0.0,0.0,0.0,0.0,0.0,0.0,0.0,-0.9254,-0.9849,-1.0096,-1.0411,-1.1023,-1.13,-1.1531,-1.1768,-1.2196,-1.2497,-1.2279,-1.2484,-1.2657,-1.2657,-1.279,-1.2961,-1.3021,-1.3412,-1.3621,-1.3405,-1.4065,-1.4228,-1.3454,-1.3653,-1.3374,-1.2564,-1.1356,-1.048,-1.0094,-0.8003,-0.6785,-0.6471,-0.5396,-0.4881,-0.4802,-0.3275,-0.2361,-0.1828,0.1599,0.3352,0.3808,0.594,0.6855,0.6931,0.7238,0.8496,1.0028,1.0028,1.1623,1.3812,1.4167,1.4912,1.5798,1.5913,1.5987,1.6142,1.6449,1.7457,1.8812,2.0329,2.1578,2.282,2.4458,2.4951,2.5129,2.547,2.5985,2.6615,2.7698,2.8277,2.8816,2.9785,3.0011,3.035,3.0968,3.149,3.2065,3.2561,3.3347,3.4106,3.4705,3.5741,3.6626,3.7244,3.8033,3.8709,3.923,4.1444,4.3329,4.445,4.5767,4.6764,4.736,4.8089,4.8818,4.9531,5.0675,5.1356,5.1489,5.2741,5.3388,5.3477,5.3737,5.4385,0.0,0.0,0.0,0.0,0.0,0.0,0.0,0.0,0.0,0.0,0.0,-0.94,0.0,0.0,-1.0899,-1.1693,-1.1986,-1.2104,-1.1966,-1.2265,-1.2451,-1.2451,-1.271,-1.2803,-1.2803,-1.333,-1.3782,-1.4052,-1.4744,-1.5171,-1.5249,-1.5104,-1.4998,-1.4978,-1.2797,-1.1683,-1.1668,-0.942,-0.7699,-0.6668,-0.6127,-0.5475,-0.4805,-0.4089,-0.3313,-0.2361,0.0152,0.1828,0.2971,0.518,0.6399,0.6847,0.6844,0.7296,0.7993,0.8985,1.0174,1.1574,1.2875,1.3716,1.4403,1.5065,1.5373,1.5516,1.5705,1.6325,1.7255,1.8602,1.9529,2.0723,2.2852,2.3409,2.3619,2.4398,2.486,2.5319,2.6263,2.7216,2.8144,2.9102,2.9615,3.0125,3.08,3.1135,3.1434,3.1767,3.2561,3.3435,3.4202,3.5372,3.605,3.5705,3.6441,3.7306,3.8127,3.9345,4.1305,4.4321,4.6086,4.743,4.8276,4.9094,4.9899,5.0813,5.1456,5.2108,5.2797,5.3547,5.4123,5.4439,5.4706,5.5184,0.0,0.0,0.0,0.0,0.0,0.0,0.0,0.0,0.0,0.0,0.0,0.0,0.0,0.0,0.0,-1.154,-1.1796,-1.1865,-1.1709,-1.2221,-1.2628,-1.2683,-1.2944,-1.3045,-1.3045,-1.3545,-1.4121,-1.4849,-1.5317,-1.5865,-1.6701,-1.605,0.0,-1.6957,-1.4167,-1.2902,-1.3349,-1.1008,-0.9014,-0.743,0.0,0.0,-0.5185,-0.5057,-0.4268,-0.2895,-0.1218,0.0304,0.1752,0.3963,0.5335,0.6003,0.5492,0.5577,0.6226,0.7931,0.8716,0.9337,1.1695,1.2668,1.3156,1.4485,1.4902,1.5029,1.5336,1.5462,0.0,1.7244,1.7992,1.8998,2.1429,2.2125,2.2532,2.3559,2.3859,2.4024,2.4813,2.6028,2.7216,2.8184,2.9102,2.9898,3.0575,3.08,3.0853,3.0677,3.1667,3.2752,3.3493,3.4975,3.5643,3.4738,3.5549,3.6643,3.7787,3.7458,3.9187,4.3946,4.557,4.6884,4.8104,4.8771,4.9754,5.101,5.1162,5.2227,5.4235,5.4554,5.4956,5.5433,5.3383,5.3122,0.0,0.0,0.0,0.0,0.0,0.0,0.0,0.0,0.0,0.0,0.0,0.0,0.0,0.0,0.0,0.0,-1.1714,-1.2462,-1.1754,-1.2916,-1.3916,-1.4136,-1.4474,-1.4689,-1.4689,-1.4941,-1.5228,-1.5476,-1.6444,-1.6952,-1.677,0.0,0.0,0.0,0.0,-1.572,-1.5726,-1.3383,-1.1569,-1.0179,-0.7781,-0.6565,-0.6399,-0.5349,-0.4815,-0.4498,-0.2895,-0.2132,-0.1675,0.1523,0.3123,0.3418,0.2001,0.2964,0.5293,0.6066,0.726,0.8667,1.0126,0.0,0.0,1.4194,1.4766,1.4965,1.5029,1.5272,1.5894,1.7527,1.8874,2.0219,2.1882,2.282,2.3393,2.3513,2.3559,2.3679,2.3978,2.5125,2.6305,2.7512,2.8281,2.8988,2.9898,3.0519,3.0657,2.9819,3.0882,3.2034,3.2689,3.4239,3.5732,3.6812,0.0,0.0,4.0654,3.8622,3.9409,4.4513,4.3322,4.3066,4.445,4.5138,4.6035,4.7247,4.7823,5.036,5.4905,5.5407,5.5695,5.5505,4.5223,4.3661,0.0,0.0,0.0,0.0,0.0,0.0,0.0,0.0,0.0,0.0,0.0,0.0,0.0,0.0,0.0,0.0,-1.1933,-1.1965,-1.2103,-1.3366,-1.4162,-1.4027,-1.4421,-1.4609,-1.4609,-1.5094,-1.5566,-1.6221,-1.6682,-1.7158,-1.7475,-1.7175,-1.744,-1.8412,-1.6854,-1.618,-1.6548,-1.4607,-1.277,-1.1082,-0.8907,-0.7405,-0.6551,-0.549,-0.4944,0.0,-0.3199,-0.2513,-0.2361,0.0076,0.1661,0.0,0.0,0.0,0.0,0.0,0.6198,0.7306,0.8715,1.0062,1.141,1.2887,1.3977,1.4756,1.4756,1.4883,1.5127,1.5821,1.6691,1.7941,2.0096,2.06,2.0968,2.2578,2.2653,2.2532,2.2987,2.4233,2.5539,2.6422,2.7646,0.0,2.9785,3.0181,3.0235,2.9814,3.0566,3.1607,3.2757,3.4239,3.5265,3.5372,3.6655,3.8131,3.98,3.9237,0.0,0.0,0.0,4.5935,4.7069,4.8362,0.0,0.0,0.0,0.0,0.0,0.0,0.0,0.0,4.2349,4.1405,0.0,0.0,0.0,0.0,0.0,0.0,0.0,0.0,0.0,0.0,0.0,0.0,0.0,0.0,0.0,0.0,0.0,-1.2156,-1.3111,-1.4079,-1.4603,-1.4283,-1.4886,-1.504,-1.4498,-1.5119,-1.5935,-1.669,-1.6786,-1.7195,-1.8033,-1.7416,-1.7548,-1.849,-1.7187,-1.6654,-1.6876,-1.5559,-1.4072,-1.2394,-1.0231,-0.8585,-0.7386,-0.5898,-0.504,-0.4802,-0.3658,-0.3111,-0.3016,-0.1357,0.0074,0.1086,0.0693,0.1355,0.2688,0.3681,0.4893,0.6201,0.782,0.8973,0.9998,1.141,1.2823,1.3977,1.3977,1.424,1.462,1.4693,1.5389,1.6566,1.8552,1.906,1.9492,2.1483,2.1741,2.168,2.1924,2.3348,2.4769,2.5539,2.689,2.8184,2.9045,2.9615,2.9879,2.9651,3.0216,0.0,3.2797,3.4145,3.4997,3.5215,3.6426,3.7967,3.9748,3.9559,4.1229,4.5606,4.6385,4.7524,4.9534,5.0342,5.1622,5.3565,4.9666,4.6773,0.0,0.0,0.0,0.0,0.0,0.0,0.0,0.0,0.0,0.0,0.0,0.0,0.0,0.0,0.0,0.0,0.0,0.0,0.0,0.0,0.0,0.0,0.0,0.0,-1.5081,-1.5396,-1.5442,-1.5311,-1.6644,-1.6777,-1.4751,-1.554,-1.6331,-1.6891,-1.6881,-1.7219,-1.7996,-1.8042,-1.8051,-1.806,-1.806,-1.7584,-1.6708,-1.6422,-1.5764,-1.4821,-1.1737,-1.0024,-0.9496,-0.671,-0.5191,-0.4881,-0.4802,-0.474,-0.4486,-0.2939,-0.2174,-0.2122,-0.3513,-0.154,0.2092,0.1369,0.2867,0.5547,0.7621,0.8397,0.8656,0.9933,1.1346,1.2496,1.2496,1.346,1.463,1.4892,1.6126,1.7545,1.8015,1.9195,2.038,2.0442,2.1069,2.1375,2.0775,2.2167,2.3904,2.505,2.5834,2.6556,2.7175,2.8759,2.9689,2.8946,2.9461,0.0,3.2777,3.3762,3.5313,3.8087,3.9278,4.0486,4.1956,3.9682,4.0344,4.5548,4.4267,4.5361,4.9916,4.8371,4.7891,4.9006,5.0298,4.9287,4.5819,0.0,0.0,0.0,0.0,0.0,0.0,0.0,0.0,0.0,0.0,0.0,0.0,0.0,0.0,0.0,0.0,0.0,0.0,0.0,0.0,0.0,0.0,0.0,0.0,0.0,-1.5919,-1.5072,-1.5815,-1.5727,-1.3976,-1.4666,-1.5298,-1.5502,-1.5885,-1.6349,-1.6909,-1.667,-1.6771,-1.7304,-1.7322,-1.7052,-1.6501,-1.6335,-1.5777,-1.4699,-1.28,-1.0976,-0.9269,-0.7777,-0.6265,-0.4762,-0.4762,-0.4625,-0.4523,-0.3947,-0.3638,-0.3493,-0.306,-0.1384,0.0849,0.1697,0.3392,0.5417,0.6327,0.6782,0.7306,0.9547,1.1921,1.3786,1.323,1.343,1.3812,1.3885,1.4566,1.5496,1.6931,1.8066,1.9072,1.9924,2.0565,2.1021,2.1205,2.1741,2.2592,2.3844,2.526,2.6162,2.5833,2.808,2.912,2.6721,2.8379,3.0683,3.2766,3.3729,3.5125,3.7475,3.9131,4.0637,4.2063,4.1955,4.3294,4.6708,4.7484,4.894,5.1451,5.2279,5.3214,5.4416,5.5323,5.1048,4.1494,0.0,0.0,0.0,0.0,0.0,0.0,0.0,0.0,0.0,0.0,0.0,0.0,0.0,0.0,0.0,0.0,0.0,0.0,0.0,0.0,0.0,0.0,0.0,0.0,0.0,0.0,-1.5589,-1.5729,0.0,-1.3499,-1.3727,-1.39,-1.3829,-1.4289,-1.4852,-1.5507,-1.575,-1.6052,-1.6459,-1.6847,-1.6716,-1.611,-1.6106,-1.5764,-1.4966,-1.3582,-1.1788,-0.9677,-0.845,-0.6759,-0.4787,-0.4643,-0.451,-0.4403,-0.4431,-0.4298,-0.4123,-0.322,-0.1919,-0.0444,0.0961,0.2766,0.4638,0.5205,0.5746,0.6591,0.8844,1.1115,1.287,1.2392,1.2197,1.2208,1.2483,1.3018,1.3891,1.5431,1.6942,1.8276,1.9121,2.0011,2.0714,2.1143,2.1436,2.1985,2.3363,2.4828,2.5624,2.4864,2.6566,2.7354,2.5497,2.6808,2.9341,3.2965,3.3922,3.5125,3.7475,3.9131,4.0637,4.2063,4.3122,4.4799,4.729,4.9139,5.0933,5.2622,5.4763,5.5385,5.4406,5.4836,4.9896,0.0,0.0,0.0,0.0,0.0,0.0,0.0,0.0,0.0,0.0,0.0,0.0,0.0,0.0,0.0,0.0,0.0,0.0,0.0,0.0,0.0,0.0,0.0,0.0,0.0,0.0,0.0,-1.6695,-1.6347,0.0,0.0,0.0,0.0,-1.2046,-1.2299,-1.293,-1.4041,-1.5174,-1.5722,-1.5686,-1.6675,-1.6695,-1.571,-1.5756,-1.5756,-1.5642,-1.4242,-1.2581,-1.0677,-0.8804,-0.6911,-0.5155,-0.4667,-0.4393,-0.4276,-0.4214,-0.4158,-0.4053,-0.4034,-0.3042,-0.1607,-0.0737,0.1117,0.3366,0.4241,0.526,0.642,0.7874,0.9116,1.0092,1.004,0.9925,0.0,0.0,1.1709,1.2661,1.3605,1.5909,1.7997,1.8004,1.9331,2.0591,2.0591,2.1082,2.199,0.0,2.4427,2.4802,2.3817,0.0,2.4423,2.4897,2.468,2.6789,3.3159,3.4114,3.5335,3.816,3.9476,4.0685,4.2063,4.3185,4.49,4.7419,4.929,5.1286,5.3516,5.5395,5.4034,4.9097,4.9034,0.0,0.0,0.0,0.0,0.0,0.0,0.0,0.0,0.0,0.0,0.0,0.0,0.0,0.0,0.0,0.0,0.0,0.0,0.0,0.0,0.0,0.0,0.0,0.0,0.0,0.0,-1.274,-1.4683,-1.5225,-1.5178,-1.4276,0.0,0.0,0.0,0.0,0.0,0.0,-1.3289,-1.3314,-1.3683,-1.4395,-1.5471,-1.5614,-1.4871,-1.621,-1.621,-1.488,-1.5084,-1.3964,-1.1667,-1.0458,-0.8652,-0.6451,-0.53,-0.4547,-0.4211,-0.3675,-0.3543,-0.3721,-0.2921,-0.1984,-0.1043,-0.1107,0.0279,0.2263,0.2863,0.4457,0.6386,0.7321,0.0,0.9619,0.9329,0.0,0.0,0.0,0.0,1.0446,1.1544,1.4061,1.6438,1.6818,1.8824,2.0591,2.0591,2.0775,2.0817,0.0,2.1772,2.1585,1.8184,0.0,0.0,0.0,0.0,2.6031,3.031,3.2801,3.5335,3.816,3.994,4.1229,4.2083,4.4368,4.682,4.929,5.135,5.3434,5.555,5.2541,5.029,4.9177,0.0,0.0,0.0,0.0,0.0,0.0,0.0,0.0,0.0,0.0,0.0,0.0,0.0,0.0,0.0,0.0,0.0,0.0,0.0,0.0,0.0,0.0,0.0,0.0,0.0,0.0,0.0,-1.0218,-1.3055,-1.4156,-1.4172,-1.3507,0.0,0.0,0.0,0.0,0.0,0.0,0.0,0.0,0.0,-1.3211,-1.3832,-1.4034,-1.375,-1.4867,-1.4915,-1.3911,-1.4778,-1.4187,-1.2201,-1.0926,-0.9248,-0.7269,-0.5551,-0.4714,-0.4527,-0.3442,-0.3005,-0.2864,0.0,0.0,0.0,0.0,0.0452,0.1796,0.2738,0.4194,0.0,0.7261,0.0,0.0,0.0,0.0,0.0,0.0,0.0,0.0,0.0,0.0,1.6077,1.6732,1.8383,1.9848,1.9848,1.9338,1.8944,0.0,1.9788,1.9418,1.6245,0.0,0.0,0.0,0.0,2.4046,2.8945,3.2266,3.5283,3.8033,4.0037,4.1765,4.3075,4.5474,4.8053,5.0731,5.2778,5.3399,5.2393,5.0101,4.5982,0.0,0.0,0.0,0.0,0.0,0.0,0.0,0.0,0.0,0.0,0.0,0.0,0.0,0.0,0.0,0.0,0.0,0.0,0.0,0.0,0.0,0.0,0.0,0.0,0.0,0.0,0.0,0.0,0.0,-1.065,-1.2917,0.0,0.0,0.0,0.0,0.0,0.0,0.0,0.0,0.0,0.0,0.0,0.0,0.0,-1.242,-1.248,-1.2811,-1.2877,-1.2788,-1.3738,-1.3516,-1.2277,-1.0592,-0.9137,-0.7816,-0.5553,0.0,-0.4948,-0.3353,0.0,0.0,0.0,0.0,0.0,0.0,0.0,0.0,0.0,0.0,0.0,0.0,0.0,0.0,0.0,0.0,0.0,0.0,0.0,0.0,0.0,0.0,1.6004,1.663,1.7842,1.8796,0.0,1.7455,1.6927,1.7569,1.8024,0.0,0.0,0.0,0.0,0.0,0.0,0.0,2.7923,3.197,3.523,3.7932,4.0108,4.2248,4.4471,4.6611,4.9024,5.1923,5.3054,5.1686,4.7316,4.734,0.0,0.0,0.0,0.0,0.0,0.0,0.0,0.0,0.0,0.0,0.0,0.0,0.0,0.0,0.0,0.0,0.0,0.0,0.0,0.0,0.0,0.0,0.0,0.0,0.0,0.0,0.0,0.0,0.0,0.0,0.0,0.0,0.0,0.0,0.0,0.0,0.0,0.0,0.0,0.0,0.0,0.0,0.0,0.0,0.0,0.0,0.0,0.0,0.0,0.0,-1.1802,-1.187,-1.1568,-0.9976,-0.9076,-0.8576,-0.5598,-0.4681,-0.5014,0.0,0.0,0.0,0.0,0.0,0.0,0.0,0.0,0.0,0.0,0.0,0.0,0.0,0.0,0.0,0.0,0.0,0.0,0.0,0.0,0.0,0.0,0.0,0.0,0.0,1.6597,1.8378,0.0,0.0,0.0,0.0,0.0,0.0,0.0,0.0,0.0,0.0,0.0,0.0,2.5125,3.0665,3.5395,3.8562,4.0772,4.2967,4.5254,4.8162,5.0802,5.3025,5.0243,4.7941,0.0,0.0,0.0,0.0,0.0,0.0,0.0,0.0,0.0,0.0,0.0,0.0,0.0,0.0,0.0,0.0,0.0,0.0,0.0,0.0,0.0,0.0,0.0,0.0,0.0,0.0,0.0,0.0,0.0,0.0,0.0,0.0,0.0,0.0,0.0,0.0,0.0,0.0,0.0,0.0,0.0,0.0,0.0,0.0,0.0,0.0,0.0,0.0,0.0,0.0,0.0,0.0,0.0,0.0,0.0,0.0,0.0,0.0,0.0,-0.1967,0.0,0.0,0.0,0.0,0.0,0.0,0.0,0.0,0.0,0.0,0.0,0.0,0.0,0.0,0.0,0.0,0.0,0.0,0.0,0.0,0.0,0.0,0.0,0.0,0.0,0.0,0.0,0.0,0.0,0.0,0.0,0.0,0.0,0.0,0.0,0.0,0.0,0.0,0.0,0.0,2.4414,3.0652,3.5918,3.9105,4.1579,4.4111,4.688,4.9959,5.1111,4.9603,4.763,0.0,0.0,0.0,0.0,0.0,0.0,0.0,0.0,0.0,0.0,0.0,0.0,0.0,0.0,0.0,0.0,0.0,0.0,0.0,0.0,0.0,0.0,0.0,0.0,0.0,0.0,0.0,0.0,0.0,0.0,0.0,0.0,0.0,0.0,0.0,0.0,0.0,0.0,0.0,0.0,0.0,0.0,0.0,0.0,0.0,0.0,0.0,0.0,0.0,0.0,0.0,0.0,0.0,0.0,0.0,0.0,0.0,0.0,0.0,0.0355,0.0,0.0,0.0,0.0,0.0,0.0,0.0,0.0,0.0,0.0,0.0,0.0,0.0,0.0,0.0,0.0,0.0,0.0,0.0,0.0,0.0,0.0,0.0,0.0,0.0,0.0,0.0,0.0,0.0,0.0,0.0,0.0,0.0,0.0,0.0,0.0,0.0,0.0,0.0,0.0,0.0,2.4299,3.0774,3.6357,3.9737,4.2397,4.5203,4.8534,5.1511,5.1191,4.6463,4.5099,0.0,0.0,0.0,0.0,0.0,0.0,0.0,0.0,0.0,0.0,0.0,0.0,0.0,0.0,0.0,0.0,0.0,0.0,0.0,0.0,0.0,0.0,0.0,0.0,0.0,0.0,0.0,0.0,0.0,0.0,0.0,0.0,0.0,0.0,0.0,0.0,0.0,0.0,0.0,0.0,0.0,0.0,0.0,0.0,0.0,0.0,0.0,0.0,0.0,0.0,0.0,0.0,0.0,0.0,0.0,0.0,0.0,0.0,0.0,0.0,0.0,0.0,0.0,0.0,0.0,0.0,0.0,0.0,0.0,0.0,0.0,0.0,0.0,0.0,0.0,0.0,0.0,0.0,0.0,0.0,0.0,0.0,0.0,0.0,0.0,0.0,0.0,0.0,0.0,0.0,0.0,0.0,0.0,0.0,0.0,0.0,0.0,0.0,0.0,0.0,0.0,2.3912,3.0374,3.6238,4.0448,4.3037,4.5998,4.9823,5.2278,5.1748,4.7405,0.0,0.0,0.0,0.0,0.0,0.0,0.0,0.0,0.0,0.0,0.0,0.0,0.0,0.0,0.0,0.0,0.0,0.0,0.0,0.0,0.0,0.0,0.0,0.0,0.0,0.0,0.0,0.0,0.0,0.0,0.0,0.0,0.0,0.0,0.0,0.0,0.0,0.0,0.0,0.0,0.0,0.0,0.0,0.0,0.0,0.0,0.0,0.0,0.0,0.0,0.0,0.0,0.0,0.0,0.0,0.0,0.0,0.0,0.0,0.0,0.0,0.0,0.0,0.0,0.0,0.0,0.0,0.0,0.0,0.0,0.0,0.0,0.0,0.0,0.0,0.0,0.0,0.0,0.0,0.0,0.0,0.0,0.0,0.0,0.0,0.0,0.0,0.0,0.0,0.0,0.0,0.0,0.0,0.0,0.0,0.0,0.0,0.0,0.0,0.0,0.0,0.0,2.3708,3.0553,3.6901,4.1692,4.4258,4.7071,5.05,5.3272,5.0968,4.1978,0.0,0.0,0.0,0.0,0.0,0.0,0.0,0.0,0.0,0.0,0.0,0.0,0.0,0.0,0.0,0.0,0.0,0.0,0.0,0.0,0.0,0.0,0.0,0.0,0.0,0.0,0.0,0.0,0.0,0.0,0.0,0.0,0.0,0.0,0.0,0.0,0.0,0.0,0.0,0.0,0.0,0.0,0.0,0.0,0.0,0.0,0.0,0.0,0.0,0.0,0.0,0.0,0.0,0.0,0.0,0.0,0.0,0.0,0.0,0.0,0.0,0.0,0.0,0.0,0.0,0.0,0.0,0.0,0.0,0.0,0.0,0.0,0.0,0.0,0.0,0.0,0.0,0.0,0.0,0.0,0.0,0.0,0.0,0.0,0.0,0.0,0.0,0.0,0.0,0.0,0.0,0.0,0.0,0.0,0.0,0.0,0.0,0.0,0.0,0.0,0.0,0.0,2.3453,3.0536,3.7207,4.2379,4.5175,4.7994,5.1129,5.3976,5.0716,3.9199,0.0,0.0,0.0,0.0,0.0,0.0,0.0,0.0,0.0,0.0,0.0,0.0,0.0,0.0,0.0,0.0,0.0,0.0,0.0,0.0,0.0,0.0,0.0,0.0,0.0,0.0,0.0,0.0,0.0,0.0,0.0,0.0,0.0,0.0,0.0,0.0,0.0,0.0,0.0,0.0,0.0,0.0,0.0,0.0,0.0,0.0,0.0,0.0,0.0,0.0,0.0,0.0,0.0,0.0,0.0,0.0,0.0,0.0,0.0,0.0,0.0,0.0,0.0,0.0,0.0,0.0,0.0,0.0,0.0,0.0,0.0,0.0,0.0,0.0,0.0,0.0,0.0,0.0,0.0,0.0,0.0,0.0,0.0,0.0,0.0,0.0,0.0,0.0,0.0,0.0,0.0,0.0,0.0,0.0,0.0,0.0,0.0,0.0,0.0,0.0,0.0,0.0,2.3015,3.0127,3.6877,4.2388,4.5494,4.8555,5.1787,5.4235,5.1379,0.0,0.0,0.0,0.0,0.0,0.0,0.0,0.0,0.0,0.0,0.0,0.0,0.0,0.0,0.0,0.0,0.0,0.0,0.0,0.0,0.0,0.0,0.0,0.0,0.0,0.0,0.0,0.0,0.0,0.0,0.0,0.0,0.0,0.0,0.0,0.0,0.0,0.0,0.0,0.0,0.0,0.0,0.0,0.0,0.0,0.0,0.0,0.0,0.0,0.0,0.0,0.0,0.0,0.0,0.0,0.0,0.0,0.0,0.0,0.0,0.0,0.0,0.0,0.0,0.0,0.0,0.0,0.0,0.0,0.0,0.0,0.0,0.0,0.0,0.0,0.0,0.0,0.0,0.0,0.0,0.0,0.0,0.0,0.0,0.0,0.0,0.0,0.0,0.0,0.0,0.0,0.0,0.0,0.0,0.0,0.0,0.0,0.0,0.0,0.0,0.0,0.0,0.0,2.2255,2.8806,3.5633,0.0,4.6311,4.9396,5.2116,5.4578,5.1565,4.1203,0.0,0.0,0.0,0.0,0.0,0.0,0.0,0.0,0.0,0.0,0.0,0.0,0.0,0.0,0.0,0.0,0.0,0.0,0.0,0.0,0.0,0.0,0.0,0.0,0.0,0.0,0.0,0.0,0.0,0.0,0.0,0.0,0.0,0.0,0.0,0.0,0.0,0.0,0.0,0.0,0.0,0.0,0.0,0.0,0.0,0.0,0.0,0.0,0.0,0.0,0.0,0.0,0.0,0.0,0.0,0.0,0.0,0.0,0.0,0.0,0.0,0.0,0.0,0.0,0.0,0.0,0.0,0.0,0.0,0.0,0.0,0.0,0.0,0.0,0.0,0.0,0.0,0.0,0.0,0.0,0.0,0.0,0.0,0.0,0.0,0.0,0.0,0.0,0.0,0.0,0.0,0.0,0.0,0.0,0.0,0.0,0.0,0.0,0.0,0.0,0.0,0.0,0.0,2.8661,3.5758,0.0,4.6451,4.9809,5.228,5.4575,5.1745,4.2015,0.0,0.0,0.0,0.0,0.0,0.0,0.0,0.0,0.0,0.0,0.0,0.0,0.0,0.0,0.0,0.0,0.0,0.0,0.0,0.0,0.0,0.0,0.0,0.0,0.0,0.0,0.0,0.0,0.0,0.0,0.0,0.0,0.0,0.0,0.0,0.0,0.0,0.0,0.0,0.0,0.0,0.0,0.0,0.0,0.0,0.0,0.0,0.0,0.0,0.0,0.0,0.0,0.0,0.0,0.0,0.0,0.0,0.0,0.0,0.0,0.0,0.0,0.0,0.0,0.0,0.0,0.0,0.0,0.0,0.0,0.0,0.0,0.0,0.0,0.0,0.0,0.0,0.0,0.0,0.0,0.0,0.0,0.0,0.0,0.0,0.0,0.0,0.0,0.0,0.0,0.0,0.0,0.0,0.0,0.0,0.0,0.0,0.0,0.0,0.0,0.0,0.0,0.0,2.9268,3.6668,4.1524,4.6067,4.9783,5.2247,5.4285,5.1834,4.3474,4.0157,0.0,0.0,0.0,0.0,0.0,0.0,0.0,0.0,0.0,0.0,0.0,0.0,0.0,0.0,0.0,0.0,0.0,0.0,0.0,0.0,0.0,0.0,0.0,0.0,0.0,0.0,0.0,0.0,0.0,0.0,0.0,0.0,0.0,0.0,0.0,0.0,0.0,0.0,0.0,0.0,0.0,0.0,0.0,0.0,0.0,0.0,0.0,0.0,0.0,0.0,0.0,0.0,0.0,0.0,0.0,0.0,0.0,0.0,0.0,0.0,0.0,0.0,0.0,0.0,0.0,0.0,0.0,0.0,0.0,0.0,0.0,0.0,0.0,0.0,0.0,0.0,0.0,0.0,0.0,0.0,0.0,0.0,0.0,0.0,0.0,0.0,0.0,0.0,0.0,0.0,0.0,0.0,0.0,0.0,0.0,0.0,0.0,0.0,0.0,0.0,0.0,0.0,2.8288,3.4051,4.162,4.5911,4.9362,5.2239,5.4277,5.1834,4.3474,4.0157,0.0,0.0,0.0,0.0,0.0,0.0,0.0,0.0,0.0,0.0,0.0,0.0,0.0,0.0,0.0,0.0,0.0,0.0,0.0,0.0,0.0,0.0,0.0,0.0,0.0,0.0,0.0,0.0,0.0,0.0,0.0,0.0,0.0,0.0,0.0,0.0,0.0,0.0,0.0,0.0,0.0,0.0,0.0,0.0,0.0,0.0,0.0,0.0,0.0,0.0,0.0,0.0,0.0,0.0,0.0,0.0,0.0,0.0,0.0,0.0,0.0,0.0,0.0,0.0,0.0,0.0,0.0,0.0,0.0,0.0,0.0,0.0,0.0,0.0,0.0,0.0,0.0,0.0,0.0,0.0,0.0,0.0,0.0,0.0,0.0,0.0,0.0,0.0,0.0,0.0,0.0,0.0,0.0,0.0,0.0,0.0,0.0,0.0,0.0,0.0,0.0,0.0,2.3942,3.0497,4.0602,4.4994,4.8456,5.1592,5.3438,5.1103,4.3371,3.9302,0.0,0.0,0.0,0.0,0.0,0.0,0.0,0.0,0.0,0.0,0.0,0.0,0.0,0.0,0.0,0.0,0.0,0.0,0.0,0.0,0.0,0.0,0.0,0.0,0.0,0.0,0.0,0.0,0.0,0.0,0.0,0.0,0.0,0.0,0.0,0.0,0.0,0.0,0.0,0.0,0.0,0.0,0.0,0.0,0.0,0.0,0.0,0.0,0.0,0.0,0.0,0.0,0.0,0.0,0.0,0.0,0.0,0.0,0.0,0.0,0.0,0.0,0.0,0.0,0.0,0.0,0.0,0.0,0.0,0.0,0.0,0.0,0.0,0.0,0.0,0.0,0.0,0.0,0.0,0.0,0.0,0.0,0.0,0.0,0.0,0.0,0.0,0.0,0.0,0.0,0.0,0.0,0.0,0.0,0.0,0.0,0.0,0.0,0.0,0.0,0.0,0.0,0.0,2.7394,3.7985,4.3272,4.736,5.0425,5.2046,4.9855,4.2757,0.0,0.0,0.0,0.0,0.0,0.0,0.0,0.0,0.0,0.0,0.0,0.0,0.0,0.0,0.0,0.0,0.0,0.0,0.0,0.0,0.0,0.0,0.0,0.0,0.0,0.0,0.0,0.0,0.0,0.0,0.0,0.0,0.0,0.0,0.0,0.0,0.0,0.0,0.0,0.0,0.0,0.0,0.0,0.0,0.0,0.0,0.0,0.0,0.0,0.0,0.0,0.0,0.0,0.0,0.0,0.0,0.0,0.0,0.0,0.0,0.0,0.0,0.0,0.0,0.0,0.0,0.0,0.0,0.0,0.0,0.0,0.0,0.0,0.0,0.0,0.0,0.0,0.0,0.0,0.0,0.0,0.0,0.0,0.0,0.0,0.0,0.0,0.0,0.0,0.0,0.0,0.0,0.0,0.0,0.0,0.0,0.0,0.0,0.0,0.0,0.0,0.0,0.0,0.0,0.0,3.1635,3.9985,4.6183,4.8467,5.0158,4.8011,4.0753,0.0,0.0,0.0,0.0,0.0,0.0,0.0,0.0,0.0,0.0,0.0,0.0,0.0,0.0]}]]]